Time,TemperatureF,DewpointF,PressureIn,WindDirection,WindDirectionDegrees,WindSpeedMPH,WindSpeedGustMPH,Humidity,HourlyPrecipIn,Conditions,Clouds,dailyrainin,SoftwareType,DateUTC
2013-01-06 00:00:00,39.8,26.2,30.11,SSE,153,2.0,2.0,58,0.00,,---,0.00,VWS V14.01,2013-01-06 05:00:00,
2013-01-06 00:01:00,39.9,26.3,30.11,SSE,153,0.0,3.0,58,0.00,,---,0.00,VWS V14.01,2013-01-06 05:01:00,
2013-01-06 00:02:00,39.9,26.8,30.11,SE,142,2.0,2.0,59,0.00,,---,0.00,VWS V14.01,2013-01-06 05:02:00,
2013-01-06 00:03:00,39.9,26.3,30.11,SSE,166,1.0,5.0,58,0.00,,---,0.00,VWS V14.01,2013-01-06 05:03:00,
2013-01-06 00:04:00,39.9,26.3,30.11,SSE,165,2.0,3.0,58,0.00,,---,0.00,VWS V14.01,2013-01-06 05:04:00,
2013-01-06 00:05:00,39.9,26.3,30.11,SSE,167,3.0,4.0,58,0.00,,---,0.00,VWS V14.01,2013-01-06 05:05:00,
2013-01-06 00:06:00,39.9,26.3,30.11,SSE,166,1.0,4.0,58,0.00,,---,0.00,VWS V14.01,2013-01-06 05:06:00,
2013-01-06 00:07:00,39.9,26.3,30.11,SSE,153,3.0,5.0,58,0.00,,---,0.00,VWS V14.01,2013-01-06 05:07:00,
2013-01-06 00:08:00,39.9,26.3,30.11,SSE,166,1.0,5.0,58,0.00,,---,0.00,VWS V14.01,2013-01-06 05:08:00,
2013-01-06 00:09:00,40.1,26.5,30.11,SSE,166,1.0,2.0,58,0.00,,---,0.00,VWS V14.01,2013-01-06 05:09:00,
2013-01-06 00:10:00,40.1,26.5,30.11,SSE,166,0.0,1.0,58,0.00,,---,0.00,VWS V14.01,2013-01-06 05:10:00,
2013-01-06 00:11:00,40.1,26.5,30.11,SSE,166,0.0,1.0,58,0.00,,---,0.00,VWS V14.01,2013-01-06 05:11:00,
2013-01-06 00:12:00,40.1,26.5,30.11,SSE,150,1.0,5.0,58,0.00,,---,0.00,VWS V14.01,2013-01-06 05:12:00,
2013-01-06 00:13:00,40.1,26.5,30.11,SSE,150,0.0,2.0,58,0.00,,---,0.00,VWS V14.01,2013-01-06 05:13:00,
2013-01-06 00:14:00,40.1,26.5,30.11,SSE,151,1.0,6.0,58,0.00,,---,0.00,VWS V14.01,2013-01-06 05:14:00,
2013-01-06 00:15:00,40.1,26.5,30.12,SSE,152,1.0,4.0,58,0.00,,---,0.00,VWS V14.01,2013-01-06 05:15:00,
2013-01-06 00:16:00,40.1,26.5,30.12,SSE,152,1.0,4.0,58,0.00,,---,0.00,VWS V14.01,2013-01-06 05:16:00,
2013-01-06 00:17:00,40.1,26.5,30.12,South,187,1.0,2.0,58,0.00,,---,0.00,VWS V14.01,2013-01-06 05:17:00,
2013-01-06 00:18:00,40.1,26.5,30.12,SSE,152,4.0,5.0,58,0.00,,---,0.00,VWS V14.01,2013-01-06 05:18:00,
2013-01-06 00:19:00,40.1,26.5,30.12,SSE,152,4.0,4.0,58,0.00,,---,0.00,VWS V14.01,2013-01-06 05:19:00,
2013-01-06 00:20:00,40.1,26.5,30.12,SSE,150,1.0,5.0,58,0.00,,---,0.00,VWS V14.01,2013-01-06 05:20:00,
2013-01-06 00:21:00,40.1,26.5,30.12,SSE,150,2.0,5.0,58,0.00,,---,0.00,VWS V14.01,2013-01-06 05:21:00,
2013-01-06 00:22:00,40.2,26.6,30.12,SSE,159,1.0,4.0,58,0.00,,---,0.00,VWS V14.01,2013-01-06 05:22:00,
2013-01-06 00:23:00,40.2,27.0,30.12,SSE,159,2.0,2.0,59,0.00,,---,0.00,VWS V14.01,2013-01-06 05:23:00,
2013-01-06 00:24:00,40.2,27.0,30.12,SSE,160,1.0,3.0,59,0.00,,---,0.00,VWS V14.01,2013-01-06 05:24:00,
2013-01-06 00:25:00,40.1,26.9,30.12,SSE,160,2.0,2.0,59,0.00,,---,0.00,VWS V14.01,2013-01-06 05:25:00,
2013-01-06 00:26:00,40.2,27.0,30.12,SSE,160,1.0,1.0,59,0.00,,---,0.00,VWS V14.01,2013-01-06 05:26:00,
2013-01-06 00:27:00,40.1,26.9,30.12,SSE,159,1.0,5.0,59,0.00,,---,0.00,VWS V14.01,2013-01-06 05:27:00,
2013-01-06 00:28:00,40.1,26.5,30.12,SSE,159,1.0,5.0,58,0.00,,---,0.00,VWS V14.01,2013-01-06 05:28:00,
2013-01-06 00:29:00,40.1,26.9,30.12,South,175,5.0,6.0,59,0.00,,---,0.00,VWS V14.01,2013-01-06 05:29:00,
2013-01-06 00:30:00,40.1,26.5,30.12,South,171,5.0,7.0,58,0.00,,---,0.00,VWS V14.01,2013-01-06 05:30:00,
2013-01-06 00:31:00,40.1,26.5,30.12,South,179,4.0,7.0,58,0.00,,---,0.00,VWS V14.01,2013-01-06 05:31:00,
2013-01-06 00:32:00,40.1,26.5,30.12,South,169,6.0,6.0,58,0.00,,---,0.00,VWS V14.01,2013-01-06 05:32:00,
2013-01-06 00:33:00,40.2,26.2,30.12,South,172,8.0,11.0,57,0.00,,---,0.00,VWS V14.01,2013-01-06 05:33:00,
2013-01-06 00:34:00,40.2,26.2,30.12,South,184,4.0,8.0,57,0.00,,---,0.00,VWS V14.01,2013-01-06 05:34:00,
2013-01-06 00:35:00,40.3,26.7,30.12,South,186,2.0,5.0,58,0.00,,---,0.00,VWS V14.01,2013-01-06 05:35:00,
2013-01-06 00:36:00,40.2,26.6,30.12,South,186,2.0,5.0,58,0.00,,---,0.00,VWS V14.01,2013-01-06 05:36:00,
2013-01-06 00:37:00,40.3,26.7,30.12,SE,142,3.0,6.0,58,0.00,,---,0.00,VWS V14.01,2013-01-06 05:37:00,
2013-01-06 00:38:00,40.3,26.7,30.12,SE,135,1.0,6.0,58,0.00,,---,0.00,VWS V14.01,2013-01-06 05:38:00,
2013-01-06 00:39:00,40.3,26.7,30.12,SE,136,1.0,4.0,58,0.00,,---,0.00,VWS V14.01,2013-01-06 05:39:00,
2013-01-06 00:40:00,40.3,26.7,30.12,SE,140,0.0,4.0,58,0.00,,---,0.00,VWS V14.01,2013-01-06 05:40:00,
2013-01-06 00:41:00,40.3,26.7,30.12,SE,140,1.0,4.0,58,0.00,,---,0.00,VWS V14.01,2013-01-06 05:41:00,
2013-01-06 00:42:00,40.3,26.7,30.12,SSE,165,4.0,5.0,58,0.00,,---,0.00,VWS V14.01,2013-01-06 05:42:00,
2013-01-06 00:43:00,40.3,26.7,30.12,SSE,165,0.0,4.0,58,0.00,,---,0.00,VWS V14.01,2013-01-06 05:43:00,
2013-01-06 00:44:00,40.3,27.1,30.12,SSE,156,4.0,5.0,59,0.00,,---,0.00,VWS V14.01,2013-01-06 05:44:00,
2013-01-06 00:45:00,40.3,27.1,30.10,SSW,208,1.0,8.0,59,0.00,,---,0.00,VWS V14.01,2013-01-06 05:45:00,
2013-01-06 00:46:00,40.3,27.1,30.10,SSW,208,2.0,8.0,59,0.00,,---,0.00,VWS V14.01,2013-01-06 05:46:00,
2013-01-06 00:47:00,40.2,27.8,30.10,SSW,202,2.0,2.0,61,0.00,,---,0.00,VWS V14.01,2013-01-06 05:47:00,
2013-01-06 00:48:00,40.2,27.8,30.10,South,172,1.0,9.0,61,0.00,,---,0.00,VWS V14.01,2013-01-06 05:48:00,
2013-01-06 00:49:00,40.1,27.8,30.10,SSE,165,5.0,5.0,61,0.00,,---,0.00,VWS V14.01,2013-01-06 05:49:00,
2013-01-06 00:50:00,40.1,28.1,30.10,SSE,165,2.0,5.0,62,0.00,,---,0.00,VWS V14.01,2013-01-06 05:50:00,
2013-01-06 00:51:00,40.1,28.1,30.10,SSE,165,1.0,5.0,62,0.00,,---,0.00,VWS V14.01,2013-01-06 05:51:00,
2013-01-06 00:52:00,39.9,28.3,30.10,SE,126,1.0,5.0,63,0.01,,---,0.01,VWS V14.01,2013-01-06 05:52:00,
2013-01-06 00:53:00,39.8,28.6,30.10,SE,126,1.0,4.0,64,0.01,,---,0.01,VWS V14.01,2013-01-06 05:53:00,
2013-01-06 00:54:00,39.6,28.4,30.10,SE,126,1.0,1.0,64,0.01,,---,0.01,VWS V14.01,2013-01-06 05:54:00,
2013-01-06 00:55:00,39.6,28.4,30.10,SE,126,0.0,1.0,64,0.01,,---,0.01,VWS V14.01,2013-01-06 05:55:00,
2013-01-06 00:56:00,39.6,29.2,30.10,SE,126,1.0,2.0,66,0.01,,---,0.01,VWS V14.01,2013-01-06 05:56:00,
2013-01-06 00:57:00,39.5,29.1,30.10,SE,127,4.0,4.0,66,0.01,,---,0.01,VWS V14.01,2013-01-06 05:57:00,
2013-01-06 00:58:00,39.5,29.1,30.10,SE,128,1.0,5.0,66,0.01,,---,0.01,VWS V14.01,2013-01-06 05:58:00,
2013-01-06 00:59:00,39.3,29.3,30.10,SE,128,0.0,5.0,67,0.01,,---,0.01,VWS V14.01,2013-01-06 05:59:00,
2013-01-06 01:00:00,39.2,29.2,30.10,SE,134,1.0,2.0,67,0.01,,---,0.01,VWS V14.01,2013-01-06 06:00:00,
2013-01-06 01:01:00,39.2,29.5,30.10,SE,134,0.0,4.0,68,0.01,,---,0.01,VWS V14.01,2013-01-06 06:01:00,
2013-01-06 01:02:00,39.1,29.4,30.10,SSE,161,4.0,4.0,68,0.01,,---,0.01,VWS V14.01,2013-01-06 06:02:00,
2013-01-06 01:03:00,39.1,29.8,30.10,SSE,161,1.0,4.0,69,0.01,,---,0.01,VWS V14.01,2013-01-06 06:03:00,
2013-01-06 01:04:00,38.9,29.6,30.10,SSE,168,2.0,5.0,69,0.01,,---,0.01,VWS V14.01,2013-01-06 06:04:00,
2013-01-06 01:05:00,38.9,30.0,30.10,South,172,3.0,4.0,70,0.01,,---,0.01,VWS V14.01,2013-01-06 06:05:00,
2013-01-06 01:06:00,38.8,29.9,30.10,South,180,2.0,6.0,70,0.01,,---,0.01,VWS V14.01,2013-01-06 06:06:00,
2013-01-06 01:07:00,38.6,29.3,30.10,SSE,153,2.0,5.0,69,0.01,,---,0.01,VWS V14.01,2013-01-06 06:07:00,
2013-01-06 01:08:00,38.6,29.3,30.10,SSE,149,0.0,5.0,69,0.01,,---,0.01,VWS V14.01,2013-01-06 06:08:00,
2013-01-06 01:09:00,38.6,29.7,30.10,South,178,3.0,6.0,70,0.01,,---,0.01,VWS V14.01,2013-01-06 06:09:00,
2013-01-06 01:10:00,38.6,29.3,30.10,South,175,4.0,5.0,69,0.01,,---,0.01,VWS V14.01,2013-01-06 06:10:00,
2013-01-06 01:11:00,38.6,29.3,30.10,South,183,0.0,7.0,69,0.01,,---,0.01,VWS V14.01,2013-01-06 06:11:00,
2013-01-06 01:12:00,38.6,29.3,30.10,South,173,8.0,8.0,69,0.01,,---,0.01,VWS V14.01,2013-01-06 06:12:00,
2013-01-06 01:13:00,38.6,29.3,30.10,South,171,0.0,8.0,69,0.01,,---,0.01,VWS V14.01,2013-01-06 06:13:00,
2013-01-06 01:14:00,38.6,29.3,30.10,South,171,2.0,2.0,69,0.01,,---,0.01,VWS V14.01,2013-01-06 06:14:00,
2013-01-06 01:15:00,38.6,29.3,30.09,South,171,0.0,2.0,69,0.01,,---,0.01,VWS V14.01,2013-01-06 06:15:00,
2013-01-06 01:16:00,38.6,29.3,30.09,South,171,0.0,2.0,69,0.01,,---,0.01,VWS V14.01,2013-01-06 06:16:00,
2013-01-06 01:17:00,38.6,29.3,30.09,SE,129,1.0,5.0,69,0.01,,---,0.01,VWS V14.01,2013-01-06 06:17:00,
2013-01-06 01:18:00,38.6,29.3,30.09,SE,129,0.0,2.0,69,0.01,,---,0.01,VWS V14.01,2013-01-06 06:18:00,
2013-01-06 01:19:00,38.6,29.3,30.09,SE,129,1.0,1.0,69,0.01,,---,0.01,VWS V14.01,2013-01-06 06:19:00,
2013-01-06 01:20:00,38.6,29.3,30.09,SE,129,0.0,1.0,69,0.01,,---,0.01,VWS V14.01,2013-01-06 06:20:00,
2013-01-06 01:21:00,38.6,29.3,30.09,SE,130,0.0,3.0,69,0.01,,---,0.01,VWS V14.01,2013-01-06 06:21:00,
2013-01-06 01:22:00,38.6,29.3,30.09,SE,130,1.0,1.0,69,0.01,,---,0.01,VWS V14.01,2013-01-06 06:22:00,
2013-01-06 01:23:00,38.6,29.3,30.09,SE,130,0.0,1.0,69,0.01,,---,0.01,VWS V14.01,2013-01-06 06:23:00,
2013-01-06 01:24:00,38.6,29.3,30.09,SE,130,0.0,3.0,69,0.01,,---,0.01,VWS V14.01,2013-01-06 06:24:00,
2013-01-06 01:25:00,38.6,29.3,30.09,SSE,147,1.0,5.0,69,0.01,,---,0.01,VWS V14.01,2013-01-06 06:25:00,
2013-01-06 01:26:00,38.5,29.6,30.09,SSE,147,0.0,1.0,70,0.01,,---,0.01,VWS V14.01,2013-01-06 06:26:00,
2013-01-06 01:27:00,38.5,29.9,30.09,SSE,147,1.0,1.0,71,0.01,,---,0.01,VWS V14.01,2013-01-06 06:27:00,
2013-01-06 01:28:00,38.5,29.9,30.09,SSE,147,0.0,2.0,71,0.01,,---,0.01,VWS V14.01,2013-01-06 06:28:00,
2013-01-06 01:29:00,38.5,29.9,30.09,SSE,147,0.0,0.0,71,0.01,,---,0.01,VWS V14.01,2013-01-06 06:29:00,
2013-01-06 01:30:00,38.3,29.7,30.10,SSE,148,1.0,4.0,71,0.01,,---,0.01,VWS V14.01,2013-01-06 06:30:00,
2013-01-06 01:31:00,38.3,29.7,30.10,SSE,148,0.0,1.0,71,0.01,,---,0.01,VWS V14.01,2013-01-06 06:31:00,
2013-01-06 01:32:00,38.3,29.7,30.10,SSE,148,0.0,1.0,71,0.01,,---,0.01,VWS V14.01,2013-01-06 06:32:00,
2013-01-06 01:33:00,38.3,29.7,30.10,SSE,148,0.0,1.0,71,0.01,,---,0.01,VWS V14.01,2013-01-06 06:33:00,
2013-01-06 01:34:00,38.3,29.7,30.10,SSE,148,0.0,0.0,71,0.01,,---,0.01,VWS V14.01,2013-01-06 06:34:00,
2013-01-06 01:35:00,38.3,29.7,30.10,SSE,148,0.0,1.0,71,0.01,,---,0.01,VWS V14.01,2013-01-06 06:35:00,
2013-01-06 01:36:00,38.2,29.6,30.10,SSE,148,0.0,0.0,71,0.01,,---,0.01,VWS V14.01,2013-01-06 06:36:00,
2013-01-06 01:37:00,38.2,30.0,30.10,SSE,148,1.0,1.0,72,0.01,,---,0.01,VWS V14.01,2013-01-06 06:37:00,
2013-01-06 01:38:00,38.2,30.0,30.10,SSE,148,2.0,2.0,72,0.01,,---,0.01,VWS V14.01,2013-01-06 06:38:00,
2013-01-06 01:39:00,38.2,30.0,30.10,SSE,147,2.0,2.0,72,0.01,,---,0.01,VWS V14.01,2013-01-06 06:39:00,
2013-01-06 01:40:00,38.2,30.0,30.10,SSE,147,0.0,2.0,72,0.01,,---,0.01,VWS V14.01,2013-01-06 06:40:00,
2013-01-06 01:41:00,38.2,30.0,30.10,SE,146,0.0,1.0,72,0.01,,---,0.01,VWS V14.01,2013-01-06 06:41:00,
2013-01-06 01:42:00,38.2,30.0,30.10,SE,146,0.0,1.0,72,0.01,,---,0.01,VWS V14.01,2013-01-06 06:42:00,
2013-01-06 01:43:00,38.2,30.0,30.10,SE,146,0.0,2.0,72,0.01,,---,0.01,VWS V14.01,2013-01-06 06:43:00,
2013-01-06 01:44:00,38.0,29.8,30.10,SE,146,1.0,1.0,72,0.01,,---,0.01,VWS V14.01,2013-01-06 06:44:00,
2013-01-06 01:45:00,38.0,29.8,30.10,SE,146,0.0,1.0,72,0.01,,---,0.01,VWS V14.01,2013-01-06 06:45:00,
2013-01-06 01:46:00,38.0,29.8,30.10,SE,144,1.0,2.0,72,0.01,,---,0.01,VWS V14.01,2013-01-06 06:46:00,
2013-01-06 01:47:00,38.0,29.8,30.10,SE,144,0.0,2.0,72,0.01,,---,0.01,VWS V14.01,2013-01-06 06:47:00,
2013-01-06 01:48:00,38.0,29.8,30.10,SE,144,0.0,4.0,72,0.01,,---,0.01,VWS V14.01,2013-01-06 06:48:00,
2013-01-06 01:49:00,38.0,29.8,30.10,SE,144,0.0,1.0,72,0.01,,---,0.01,VWS V14.01,2013-01-06 06:49:00,
2013-01-06 01:50:00,38.0,29.5,30.10,SE,144,0.0,1.0,71,0.01,,---,0.01,VWS V14.01,2013-01-06 06:50:00,
2013-01-06 01:51:00,38.0,29.5,30.10,SE,144,0.0,1.0,71,0.01,,---,0.01,VWS V14.01,2013-01-06 06:51:00,
2013-01-06 01:52:00,38.0,29.5,30.10,SE,144,0.0,0.0,71,0.00,,---,0.01,VWS V14.01,2013-01-06 06:52:00,
2013-01-06 01:53:00,37.9,29.7,30.10,SE,144,0.0,0.0,72,0.00,,---,0.01,VWS V14.01,2013-01-06 06:53:00,
2013-01-06 01:54:00,37.9,29.7,30.10,SE,144,0.0,0.0,72,0.00,,---,0.01,VWS V14.01,2013-01-06 06:54:00,
2013-01-06 01:55:00,37.9,29.7,30.10,SE,144,0.0,0.0,72,0.00,,---,0.01,VWS V14.01,2013-01-06 06:55:00,
2013-01-06 01:56:00,37.9,29.4,30.10,SE,144,0.0,1.0,71,0.00,,---,0.01,VWS V14.01,2013-01-06 06:56:00,
2013-01-06 01:57:00,37.9,29.4,30.10,SE,144,0.0,0.0,71,0.00,,---,0.01,VWS V14.01,2013-01-06 06:57:00,
2013-01-06 01:58:00,37.9,29.4,30.10,SE,144,0.0,0.0,71,0.00,,---,0.01,VWS V14.01,2013-01-06 06:58:00,
2013-01-06 01:59:00,37.9,29.7,30.10,SE,144,0.0,1.0,72,0.00,,---,0.01,VWS V14.01,2013-01-06 06:59:00,
2013-01-06 02:00:00,37.9,29.7,30.08,SE,144,0.0,0.0,72,0.00,,---,0.01,VWS V14.01,2013-01-06 07:00:00,
2013-01-06 02:01:00,37.9,29.4,30.08,SE,144,0.0,1.0,71,0.00,,---,0.01,VWS V14.01,2013-01-06 07:01:00,
2013-01-06 02:02:00,37.9,29.4,30.08,SE,144,0.0,1.0,71,0.00,,---,0.01,VWS V14.01,2013-01-06 07:02:00,
2013-01-06 02:03:00,37.8,29.6,30.08,SE,144,0.0,0.0,72,0.00,,---,0.01,VWS V14.01,2013-01-06 07:03:00,
2013-01-06 02:04:00,37.8,29.6,30.08,SE,144,0.0,0.0,72,0.00,,---,0.01,VWS V14.01,2013-01-06 07:04:00,
2013-01-06 02:05:00,37.8,29.6,30.08,SE,144,0.0,0.0,72,0.00,,---,0.01,VWS V14.01,2013-01-06 07:05:00,
2013-01-06 02:06:00,37.8,29.6,30.08,SE,144,0.0,0.0,72,0.00,,---,0.01,VWS V14.01,2013-01-06 07:06:00,
2013-01-06 02:07:00,37.8,29.6,30.08,SE,144,0.0,0.0,72,0.00,,---,0.01,VWS V14.01,2013-01-06 07:07:00,
2013-01-06 02:08:00,37.8,29.6,30.08,SE,144,0.0,0.0,72,0.00,,---,0.01,VWS V14.01,2013-01-06 07:08:00,
2013-01-06 02:09:00,37.6,29.4,30.08,SE,144,0.0,2.0,72,0.00,,---,0.01,VWS V14.01,2013-01-06 07:09:00,
2013-01-06 02:10:00,37.6,29.4,30.08,SE,144,1.0,2.0,72,0.00,,---,0.01,VWS V14.01,2013-01-06 07:10:00,
2013-01-06 02:11:00,37.6,29.4,30.08,SE,144,1.0,4.0,72,0.00,,---,0.01,VWS V14.01,2013-01-06 07:11:00,
2013-01-06 02:12:00,37.6,29.4,30.08,SE,144,0.0,2.0,72,0.00,,---,0.01,VWS V14.01,2013-01-06 07:12:00,
2013-01-06 02:13:00,37.8,29.2,30.08,SE,144,1.0,2.0,71,0.00,,---,0.01,VWS V14.01,2013-01-06 07:13:00,
2013-01-06 02:14:00,37.8,29.2,30.08,SE,144,1.0,2.0,71,0.00,,---,0.01,VWS V14.01,2013-01-06 07:14:00,
2013-01-06 02:15:00,37.8,29.3,30.08,SE,144,1.0,1.0,71,0.00,,---,0.01,VWS V14.01,2013-01-06 07:15:00,
2013-01-06 02:16:00,37.8,29.2,30.08,SE,144,1.0,1.0,71,0.00,,---,0.01,VWS V14.01,2013-01-06 07:16:00,
2013-01-06 02:17:00,37.8,28.9,30.08,SE,144,0.0,1.0,70,0.00,,---,0.01,VWS V14.01,2013-01-06 07:17:00,
2013-01-06 02:18:00,37.8,29.2,30.08,SE,144,0.0,1.0,71,0.00,,---,0.01,VWS V14.01,2013-01-06 07:18:00,
2013-01-06 02:19:00,37.8,29.2,30.08,SE,144,0.0,0.0,71,0.00,,---,0.01,VWS V14.01,2013-01-06 07:19:00,
2013-01-06 02:20:00,37.8,29.3,30.08,SE,144,0.0,0.0,71,0.00,,---,0.01,VWS V14.01,2013-01-06 07:20:00,
2013-01-06 02:21:00,37.8,29.2,30.08,SE,144,0.0,1.0,71,0.00,,---,0.01,VWS V14.01,2013-01-06 07:21:00,
2013-01-06 02:22:00,37.8,28.9,30.08,SE,144,0.0,0.0,70,0.00,,---,0.01,VWS V14.01,2013-01-06 07:22:00,
2013-01-06 02:23:00,37.8,28.9,30.08,SE,144,0.0,0.0,70,0.00,,---,0.01,VWS V14.01,2013-01-06 07:23:00,
2013-01-06 02:24:00,37.8,28.9,30.08,SE,144,0.0,1.0,70,0.00,,---,0.01,VWS V14.01,2013-01-06 07:24:00,
2013-01-06 02:25:00,37.8,28.9,30.08,SE,144,0.0,0.0,70,0.00,,---,0.01,VWS V14.01,2013-01-06 07:25:00,
2013-01-06 02:26:00,37.8,28.6,30.08,SE,144,0.0,2.0,69,0.00,,---,0.01,VWS V14.01,2013-01-06 07:26:00,
2013-01-06 02:27:00,37.8,28.9,30.08,SE,144,2.0,2.0,70,0.00,,---,0.01,VWS V14.01,2013-01-06 07:27:00,
2013-01-06 02:28:00,37.8,28.9,30.08,SE,144,0.0,2.0,70,0.00,,---,0.01,VWS V14.01,2013-01-06 07:28:00,
2013-01-06 02:29:00,37.8,28.6,30.08,SE,144,1.0,1.0,69,0.00,,---,0.01,VWS V14.01,2013-01-06 07:29:00,
2013-01-06 02:30:00,37.8,28.6,30.08,SE,144,2.0,4.0,69,0.00,,---,0.01,VWS V14.01,2013-01-06 07:30:00,
2013-01-06 02:31:00,37.9,27.9,30.08,SSE,147,4.0,5.0,67,0.00,,---,0.01,VWS V14.01,2013-01-06 07:31:00,
2013-01-06 02:32:00,38.0,27.7,30.08,SSE,147,2.0,4.0,66,0.00,,---,0.01,VWS V14.01,2013-01-06 07:32:00,
2013-01-06 02:33:00,38.0,27.7,30.08,SSE,148,2.0,2.0,66,0.00,,---,0.01,VWS V14.01,2013-01-06 07:33:00,
2013-01-06 02:34:00,38.2,27.9,30.08,SSE,148,0.0,2.0,66,0.00,,---,0.01,VWS V14.01,2013-01-06 07:34:00,
2013-01-06 02:35:00,38.2,27.9,30.08,SSE,168,1.0,5.0,66,0.00,,---,0.01,VWS V14.01,2013-01-06 07:35:00,
2013-01-06 02:36:00,38.3,27.6,30.08,SSE,168,0.0,1.0,65,0.00,,---,0.01,VWS V14.01,2013-01-06 07:36:00,
2013-01-06 02:37:00,38.5,27.8,30.08,SSE,168,2.0,2.0,65,0.00,,---,0.01,VWS V14.01,2013-01-06 07:37:00,
2013-01-06 02:38:00,38.5,27.8,30.08,SSW,194,3.0,3.0,65,0.00,,---,0.01,VWS V14.01,2013-01-06 07:38:00,
2013-01-06 02:39:00,38.5,27.4,30.08,SSW,195,4.0,5.0,64,0.00,,---,0.01,VWS V14.01,2013-01-06 07:39:00,
2013-01-06 02:40:00,38.6,27.5,30.08,SSW,195,0.0,4.0,64,0.00,,---,0.01,VWS V14.01,2013-01-06 07:40:00,
2013-01-06 02:41:00,38.6,27.5,30.08,SSW,192,1.0,4.0,64,0.00,,---,0.01,VWS V14.01,2013-01-06 07:41:00,
2013-01-06 02:42:00,38.6,27.5,30.08,SSW,192,1.0,2.0,64,0.00,,---,0.01,VWS V14.01,2013-01-06 07:42:00,
2013-01-06 02:43:00,38.6,27.5,30.08,SSW,192,2.0,2.0,64,0.00,,---,0.01,VWS V14.01,2013-01-06 07:43:00,
2013-01-06 02:44:00,38.8,27.7,30.08,SSW,192,0.0,2.0,64,0.00,,---,0.01,VWS V14.01,2013-01-06 07:44:00,
2013-01-06 02:45:00,38.6,27.5,30.08,SSW,192,0.0,0.0,64,0.00,,---,0.01,VWS V14.01,2013-01-06 07:45:00,
2013-01-06 02:46:00,38.6,27.5,30.08,SSW,192,2.0,2.0,64,0.00,,---,0.01,VWS V14.01,2013-01-06 07:46:00,
2013-01-06 02:47:00,38.6,27.5,30.08,SSW,192,0.0,2.0,64,0.00,,---,0.01,VWS V14.01,2013-01-06 07:47:00,
2013-01-06 02:48:00,38.6,27.5,30.08,SSW,192,0.0,1.0,64,0.00,,---,0.01,VWS V14.01,2013-01-06 07:48:00,
2013-01-06 02:49:00,38.6,27.5,30.08,SSW,192,0.0,5.0,64,0.00,,---,0.01,VWS V14.01,2013-01-06 07:49:00,
2013-01-06 02:50:00,38.6,27.5,30.08,SSW,192,0.0,1.0,64,0.00,,---,0.01,VWS V14.01,2013-01-06 07:50:00,
2013-01-06 02:51:00,38.6,27.5,30.08,SSW,192,0.0,1.0,64,0.00,,---,0.01,VWS V14.01,2013-01-06 07:51:00,
2013-01-06 02:52:00,38.6,27.5,30.08,SSW,192,0.0,1.0,64,0.00,,---,0.01,VWS V14.01,2013-01-06 07:52:00,
2013-01-06 02:53:00,38.6,27.5,30.08,SSW,192,3.0,3.0,64,0.00,,---,0.01,VWS V14.01,2013-01-06 07:53:00,
2013-01-06 02:54:00,38.6,27.5,30.08,South,191,4.0,4.0,64,0.00,,---,0.01,VWS V14.01,2013-01-06 07:54:00,
2013-01-06 02:55:00,38.6,27.1,30.08,South,191,0.0,4.0,63,0.00,,---,0.01,VWS V14.01,2013-01-06 07:55:00,
2013-01-06 02:56:00,38.6,27.1,30.08,South,191,0.0,1.0,63,0.00,,---,0.01,VWS V14.01,2013-01-06 07:56:00,
2013-01-06 02:57:00,38.6,27.5,30.08,South,191,0.0,0.0,64,0.00,,---,0.01,VWS V14.01,2013-01-06 07:57:00,
2013-01-06 02:58:00,38.6,27.5,30.08,South,191,0.0,0.0,64,0.00,,---,0.01,VWS V14.01,2013-01-06 07:58:00,
2013-01-06 02:59:00,38.5,27.4,30.08,South,191,0.0,0.0,64,0.00,,---,0.01,VWS V14.01,2013-01-06 07:59:00,
2013-01-06 03:00:00,38.5,27.4,30.08,South,191,0.0,0.0,64,0.00,,---,0.01,VWS V14.01,2013-01-06 08:00:00,
2013-01-06 03:01:00,38.5,27.4,30.08,South,191,0.0,0.0,64,0.00,,---,0.01,VWS V14.01,2013-01-06 08:01:00,
2013-01-06 03:02:00,38.5,27.4,30.08,South,191,0.0,0.0,64,0.00,,---,0.01,VWS V14.01,2013-01-06 08:02:00,
2013-01-06 03:03:00,38.3,27.2,30.08,South,191,0.0,1.0,64,0.00,,---,0.01,VWS V14.01,2013-01-06 08:03:00,
2013-01-06 03:04:00,38.3,27.2,30.08,South,191,0.0,3.0,64,0.00,,---,0.01,VWS V14.01,2013-01-06 08:04:00,
2013-01-06 03:05:00,38.3,27.2,30.08,SSW,192,0.0,1.0,64,0.00,,---,0.01,VWS V14.01,2013-01-06 08:05:00,
2013-01-06 03:06:00,38.2,27.5,30.08,SSW,192,0.0,0.0,65,0.00,,---,0.01,VWS V14.01,2013-01-06 08:06:00,
2013-01-06 03:07:00,38.2,27.5,30.08,SSW,192,0.0,1.0,65,0.00,,---,0.01,VWS V14.01,2013-01-06 08:07:00,
2013-01-06 03:08:00,38.2,27.5,30.08,SSW,192,0.0,0.0,65,0.00,,---,0.01,VWS V14.01,2013-01-06 08:08:00,
2013-01-06 03:09:00,38.0,26.9,30.08,SSW,192,0.0,0.0,64,0.00,,---,0.01,VWS V14.01,2013-01-06 08:09:00,
2013-01-06 03:10:00,38.0,27.3,30.08,SSW,192,0.0,0.0,65,0.00,,---,0.01,VWS V14.01,2013-01-06 08:10:00,
2013-01-06 03:11:00,38.0,27.3,30.08,SSW,192,0.0,1.0,65,0.00,,---,0.01,VWS V14.01,2013-01-06 08:11:00,
2013-01-06 03:12:00,37.9,27.6,30.08,SSW,192,0.0,0.0,66,0.00,,---,0.01,VWS V14.01,2013-01-06 08:12:00,
2013-01-06 03:13:00,37.9,27.6,30.08,SSW,193,1.0,1.0,66,0.00,,---,0.01,VWS V14.01,2013-01-06 08:13:00,
2013-01-06 03:14:00,37.8,27.5,30.08,SSW,193,0.0,1.0,66,0.00,,---,0.01,VWS V14.01,2013-01-06 08:14:00,
2013-01-06 03:15:00,37.8,27.5,30.08,SSW,193,0.0,0.0,66,0.00,,---,0.01,VWS V14.01,2013-01-06 08:15:00,
2013-01-06 03:16:00,37.6,27.3,30.08,SSW,193,0.0,1.0,66,0.00,,---,0.01,VWS V14.01,2013-01-06 08:16:00,
2013-01-06 03:17:00,37.5,27.6,30.08,SSW,193,0.0,0.0,67,0.00,,---,0.01,VWS V14.01,2013-01-06 08:17:00,
2013-01-06 03:18:00,37.5,27.6,30.08,SSW,193,0.0,0.0,67,0.00,,---,0.01,VWS V14.01,2013-01-06 08:18:00,
2013-01-06 03:19:00,37.3,27.4,30.08,SSW,193,0.0,0.0,67,0.00,,---,0.01,VWS V14.01,2013-01-06 08:19:00,
2013-01-06 03:20:00,37.3,27.4,30.08,SSW,193,0.0,0.0,67,0.00,,---,0.01,VWS V14.01,2013-01-06 08:20:00,
2013-01-06 03:21:00,37.2,27.3,30.08,SSW,193,0.0,0.0,67,0.00,,---,0.01,VWS V14.01,2013-01-06 08:21:00,
2013-01-06 03:22:00,37.2,27.3,30.08,SSW,193,0.0,0.0,67,0.00,,---,0.01,VWS V14.01,2013-01-06 08:22:00,
2013-01-06 03:23:00,37.0,27.1,30.08,SSW,193,0.0,0.0,67,0.00,,---,0.01,VWS V14.01,2013-01-06 08:23:00,
2013-01-06 03:24:00,37.0,27.1,30.08,SSW,193,0.0,0.0,67,0.00,,---,0.01,VWS V14.01,2013-01-06 08:24:00,
2013-01-06 03:25:00,37.0,27.1,30.08,SSW,193,0.0,0.0,67,0.00,,---,0.01,VWS V14.01,2013-01-06 08:25:00,
2013-01-06 03:26:00,36.9,27.0,30.08,SSW,193,0.0,0.0,67,0.00,,---,0.01,VWS V14.01,2013-01-06 08:26:00,
2013-01-06 03:27:00,36.9,27.0,30.08,SSW,193,0.0,0.0,67,0.00,,---,0.01,VWS V14.01,2013-01-06 08:27:00,
2013-01-06 03:28:00,36.9,27.0,30.08,SSW,195,2.0,4.0,67,0.00,,---,0.01,VWS V14.01,2013-01-06 08:28:00,
2013-01-06 03:29:00,36.9,26.6,30.08,SSW,195,0.0,2.0,66,0.00,,---,0.01,VWS V14.01,2013-01-06 08:29:00,
2013-01-06 03:30:00,36.9,27.0,30.08,SSW,195,1.0,1.0,67,0.00,,---,0.01,VWS V14.01,2013-01-06 08:30:00,
2013-01-06 03:31:00,37.0,26.7,30.08,SSW,195,0.0,1.0,66,0.00,,---,0.01,VWS V14.01,2013-01-06 08:31:00,
2013-01-06 03:32:00,37.0,26.7,30.08,SSW,195,0.0,1.0,66,0.00,,---,0.01,VWS V14.01,2013-01-06 08:32:00,
2013-01-06 03:33:00,37.0,26.7,30.08,SSW,195,0.0,0.0,66,0.00,,---,0.01,VWS V14.01,2013-01-06 08:33:00,
2013-01-06 03:34:00,37.0,27.1,30.08,SSW,195,0.0,0.0,67,0.00,,---,0.01,VWS V14.01,2013-01-06 08:34:00,
2013-01-06 03:35:00,37.0,27.1,30.08,SSW,195,0.0,0.0,67,0.00,,---,0.01,VWS V14.01,2013-01-06 08:35:00,
2013-01-06 03:36:00,37.0,26.7,30.08,SSW,195,0.0,2.0,66,0.00,,---,0.01,VWS V14.01,2013-01-06 08:36:00,
2013-01-06 03:37:00,37.0,26.7,30.08,SSW,194,0.0,0.0,66,0.00,,---,0.01,VWS V14.01,2013-01-06 08:37:00,
2013-01-06 03:38:00,37.0,27.1,30.08,SSW,194,0.0,0.0,67,0.00,,---,0.01,VWS V14.01,2013-01-06 08:38:00,
2013-01-06 03:39:00,37.0,26.7,30.08,SSW,195,0.0,0.0,66,0.00,,---,0.01,VWS V14.01,2013-01-06 08:39:00,
2013-01-06 03:40:00,37.0,26.7,30.08,SSW,195,0.0,0.0,66,0.00,,---,0.01,VWS V14.01,2013-01-06 08:40:00,
2013-01-06 03:41:00,36.9,27.0,30.08,SSW,195,0.0,0.0,67,0.00,,---,0.01,VWS V14.01,2013-01-06 08:41:00,
2013-01-06 03:42:00,36.9,26.6,30.08,SSW,195,0.0,1.0,66,0.00,,---,0.01,VWS V14.01,2013-01-06 08:42:00,
2013-01-06 03:43:00,36.9,26.6,30.08,SSW,194,0.0,1.0,66,0.00,,---,0.01,VWS V14.01,2013-01-06 08:43:00,
2013-01-06 03:44:00,36.9,26.6,30.08,SSW,195,1.0,1.0,66,0.00,,---,0.01,VWS V14.01,2013-01-06 08:44:00,
2013-01-06 03:45:00,36.9,26.6,30.08,SSW,195,0.0,1.0,66,0.00,,---,0.01,VWS V14.01,2013-01-06 08:45:00,
2013-01-06 03:46:00,36.8,27.2,30.08,SSW,195,1.0,2.0,68,0.00,,---,0.01,VWS V14.01,2013-01-06 08:46:00,
2013-01-06 03:47:00,36.6,26.7,30.08,SSW,195,0.0,1.0,67,0.00,,---,0.01,VWS V14.01,2013-01-06 08:47:00,
2013-01-06 03:48:00,36.6,26.7,30.08,SSW,194,0.0,2.0,67,0.00,,---,0.01,VWS V14.01,2013-01-06 08:48:00,
2013-01-06 03:49:00,36.6,26.7,30.08,SSW,194,0.0,0.0,67,0.00,,---,0.01,VWS V14.01,2013-01-06 08:49:00,
2013-01-06 03:50:00,36.5,26.6,30.08,SSW,195,0.0,0.0,67,0.00,,---,0.01,VWS V14.01,2013-01-06 08:50:00,
2013-01-06 03:51:00,36.5,27.0,30.08,SSW,195,0.0,1.0,68,0.00,,---,0.01,VWS V14.01,2013-01-06 08:51:00,
2013-01-06 03:52:00,36.3,26.8,30.08,SSW,195,0.0,4.0,68,0.00,,---,0.01,VWS V14.01,2013-01-06 08:52:00,
2013-01-06 03:53:00,36.2,27.0,30.08,SSW,195,1.0,4.0,69,0.00,,---,0.01,VWS V14.01,2013-01-06 08:53:00,
2013-01-06 03:54:00,36.0,26.8,30.08,SSW,194,0.0,1.0,69,0.00,,---,0.01,VWS V14.01,2013-01-06 08:54:00,
2013-01-06 03:55:00,35.9,27.1,30.08,SSW,195,0.0,0.0,70,0.00,,---,0.01,VWS V14.01,2013-01-06 08:55:00,
2013-01-06 03:56:00,35.8,26.6,30.08,SSW,195,0.0,0.0,69,0.00,,---,0.01,VWS V14.01,2013-01-06 08:56:00,
2013-01-06 03:57:00,35.8,26.6,30.08,SSW,194,0.0,1.0,69,0.00,,---,0.01,VWS V14.01,2013-01-06 08:57:00,
2013-01-06 03:58:00,35.8,26.3,30.08,SSW,194,0.0,3.0,68,0.00,,---,0.01,VWS V14.01,2013-01-06 08:58:00,
2013-01-06 03:59:00,35.8,26.6,30.08,SSW,194,0.0,0.0,69,0.00,,---,0.01,VWS V14.01,2013-01-06 08:59:00,
2013-01-06 04:00:00,35.8,26.3,30.08,SSW,195,0.0,1.0,68,0.00,,---,0.01,VWS V14.01,2013-01-06 09:00:00,
2013-01-06 04:01:00,35.9,26.4,30.08,SSW,194,0.0,2.0,68,0.00,,---,0.01,VWS V14.01,2013-01-06 09:01:00,
2013-01-06 04:02:00,36.0,26.1,30.08,SSW,194,0.0,1.0,67,0.00,,---,0.01,VWS V14.01,2013-01-06 09:02:00,
2013-01-06 04:03:00,36.2,26.0,30.08,SSW,194,0.0,1.0,66,0.00,,---,0.01,VWS V14.01,2013-01-06 09:03:00,
2013-01-06 04:04:00,36.3,25.7,30.08,SSW,194,0.0,0.0,65,0.00,,---,0.01,VWS V14.01,2013-01-06 09:04:00,
2013-01-06 04:05:00,36.3,25.7,30.08,SSW,195,0.0,0.0,65,0.00,,---,0.01,VWS V14.01,2013-01-06 09:05:00,
2013-01-06 04:06:00,36.5,25.9,30.08,SSW,194,0.0,0.0,65,0.00,,---,0.01,VWS V14.01,2013-01-06 09:06:00,
2013-01-06 04:07:00,36.5,25.9,30.08,SSW,195,0.0,0.0,65,0.00,,---,0.01,VWS V14.01,2013-01-06 09:07:00,
2013-01-06 04:08:00,36.6,26.0,30.08,SSW,195,0.0,0.0,65,0.00,,---,0.01,VWS V14.01,2013-01-06 09:08:00,
2013-01-06 04:09:00,36.6,26.0,30.08,SSW,194,1.0,1.0,65,0.00,,---,0.01,VWS V14.01,2013-01-06 09:09:00,
2013-01-06 04:10:00,36.8,26.1,30.08,SSW,194,0.0,1.0,65,0.00,,---,0.01,VWS V14.01,2013-01-06 09:10:00,
2013-01-06 04:11:00,36.8,25.8,30.08,SSW,194,0.0,0.0,64,0.00,,---,0.01,VWS V14.01,2013-01-06 09:11:00,
2013-01-06 04:12:00,36.9,25.9,30.08,SSW,195,0.0,0.0,64,0.00,,---,0.01,VWS V14.01,2013-01-06 09:12:00,
2013-01-06 04:13:00,36.9,25.9,30.08,SSW,194,0.0,0.0,64,0.00,,---,0.01,VWS V14.01,2013-01-06 09:13:00,
2013-01-06 04:14:00,36.9,26.2,30.08,SSW,194,0.0,1.0,65,0.00,,---,0.01,VWS V14.01,2013-01-06 09:14:00,
2013-01-06 04:15:00,36.9,26.2,30.07,SSW,194,1.0,2.0,65,0.00,,---,0.01,VWS V14.01,2013-01-06 09:15:00,
2013-01-06 04:16:00,36.9,26.2,30.07,South,190,5.0,6.0,65,0.00,,---,0.01,VWS V14.01,2013-01-06 09:16:00,
2013-01-06 04:17:00,37.0,25.6,30.07,South,190,1.0,5.0,63,0.00,,---,0.01,VWS V14.01,2013-01-06 09:17:00,
2013-01-06 04:18:00,37.3,25.9,30.07,South,190,0.0,1.0,63,0.00,,---,0.01,VWS V14.01,2013-01-06 09:18:00,
2013-01-06 04:19:00,37.5,25.7,30.07,South,190,1.0,2.0,62,0.00,,---,0.01,VWS V14.01,2013-01-06 09:19:00,
2013-01-06 04:20:00,37.6,25.8,30.07,South,190,0.0,1.0,62,0.00,,---,0.01,VWS V14.01,2013-01-06 09:20:00,
2013-01-06 04:21:00,37.8,26.0,30.07,South,190,0.0,1.0,62,0.00,,---,0.01,VWS V14.01,2013-01-06 09:21:00,
2013-01-06 04:22:00,37.8,26.0,30.07,South,190,1.0,2.0,62,0.00,,---,0.01,VWS V14.01,2013-01-06 09:22:00,
2013-01-06 04:23:00,37.8,26.0,30.07,South,190,0.0,2.0,62,0.00,,---,0.01,VWS V14.01,2013-01-06 09:23:00,
2013-01-06 04:24:00,37.8,26.0,30.07,South,190,0.0,1.0,62,0.00,,---,0.01,VWS V14.01,2013-01-06 09:24:00,
2013-01-06 04:25:00,37.8,26.0,30.07,South,190,1.0,1.0,62,0.00,,---,0.01,VWS V14.01,2013-01-06 09:25:00,
2013-01-06 04:26:00,37.8,26.0,30.07,South,190,1.0,4.0,62,0.00,,---,0.01,VWS V14.01,2013-01-06 09:26:00,
2013-01-06 04:27:00,37.8,26.0,30.07,South,190,0.0,1.0,62,0.00,,---,0.01,VWS V14.01,2013-01-06 09:27:00,
2013-01-06 04:28:00,37.8,26.0,30.07,South,190,0.0,0.0,62,0.00,,---,0.01,VWS V14.01,2013-01-06 09:28:00,
2013-01-06 04:29:00,37.8,26.0,30.07,South,190,0.0,0.0,62,0.00,,---,0.01,VWS V14.01,2013-01-06 09:29:00,
2013-01-06 04:30:00,37.8,26.0,30.06,South,190,0.0,0.0,62,0.00,,---,0.01,VWS V14.01,2013-01-06 09:30:00,
2013-01-06 04:31:00,37.6,25.8,30.06,South,190,0.0,0.0,62,0.00,,---,0.01,VWS V14.01,2013-01-06 09:31:00,
2013-01-06 04:32:00,37.6,25.8,30.06,South,190,0.0,0.0,62,0.00,,---,0.01,VWS V14.01,2013-01-06 09:32:00,
2013-01-06 04:33:00,37.5,26.1,30.06,South,190,0.0,0.0,63,0.00,,---,0.01,VWS V14.01,2013-01-06 09:33:00,
2013-01-06 04:34:00,37.5,26.5,30.06,South,190,0.0,0.0,64,0.00,,---,0.01,VWS V14.01,2013-01-06 09:34:00,
2013-01-06 04:35:00,37.3,26.3,30.06,South,190,0.0,0.0,64,0.00,,---,0.01,VWS V14.01,2013-01-06 09:35:00,
2013-01-06 04:36:00,37.2,26.2,30.06,South,190,0.0,1.0,64,0.00,,---,0.01,VWS V14.01,2013-01-06 09:36:00,
2013-01-06 04:37:00,37.0,26.0,30.06,South,190,0.0,0.0,64,0.00,,---,0.01,VWS V14.01,2013-01-06 09:37:00,
2013-01-06 04:38:00,37.0,26.0,30.06,South,190,0.0,0.0,64,0.00,,---,0.01,VWS V14.01,2013-01-06 09:38:00,
2013-01-06 04:39:00,36.9,26.2,30.06,South,190,0.0,0.0,65,0.00,,---,0.01,VWS V14.01,2013-01-06 09:39:00,
2013-01-06 04:40:00,36.8,26.1,30.06,South,190,0.0,0.0,65,0.00,,---,0.01,VWS V14.01,2013-01-06 09:40:00,
2013-01-06 04:41:00,36.8,25.8,30.06,South,190,0.0,1.0,64,0.00,,---,0.01,VWS V14.01,2013-01-06 09:41:00,
2013-01-06 04:42:00,36.8,25.8,30.06,South,190,0.0,0.0,64,0.00,,---,0.01,VWS V14.01,2013-01-06 09:42:00,
2013-01-06 04:43:00,36.8,25.8,30.06,South,190,0.0,0.0,64,0.00,,---,0.01,VWS V14.01,2013-01-06 09:43:00,
2013-01-06 04:44:00,36.6,26.0,30.06,South,190,0.0,2.0,65,0.00,,---,0.01,VWS V14.01,2013-01-06 09:44:00,
2013-01-06 04:45:00,36.5,25.9,30.06,South,190,0.0,1.0,65,0.00,,---,0.01,VWS V14.01,2013-01-06 09:45:00,
2013-01-06 04:46:00,36.3,26.0,30.06,South,190,0.0,0.0,66,0.00,,---,0.01,VWS V14.01,2013-01-06 09:46:00,
2013-01-06 04:47:00,36.2,26.3,30.06,South,190,0.0,0.0,67,0.00,,---,0.01,VWS V14.01,2013-01-06 09:47:00,
2013-01-06 04:48:00,36.0,26.1,30.06,South,190,0.0,1.0,67,0.00,,---,0.01,VWS V14.01,2013-01-06 09:48:00,
2013-01-06 04:49:00,35.8,26.3,30.06,South,190,0.0,0.0,68,0.00,,---,0.01,VWS V14.01,2013-01-06 09:49:00,
2013-01-06 04:50:00,35.8,26.3,30.06,South,190,0.0,0.0,68,0.00,,---,0.01,VWS V14.01,2013-01-06 09:50:00,
2013-01-06 04:51:00,35.5,26.4,30.06,South,190,0.0,0.0,69,0.00,,---,0.01,VWS V14.01,2013-01-06 09:51:00,
2013-01-06 04:52:00,35.2,26.1,30.06,South,190,0.0,0.0,69,0.00,,---,0.01,VWS V14.01,2013-01-06 09:52:00,
2013-01-06 04:53:00,34.9,26.1,30.06,South,190,1.0,2.0,70,0.00,,---,0.01,VWS V14.01,2013-01-06 09:53:00,
2013-01-06 04:54:00,34.7,26.3,30.06,South,190,0.0,1.0,71,0.00,,---,0.01,VWS V14.01,2013-01-06 09:54:00,
2013-01-06 04:55:00,34.6,26.2,30.06,South,190,0.0,0.0,71,0.00,,---,0.01,VWS V14.01,2013-01-06 09:55:00,
2013-01-06 04:56:00,34.3,26.2,30.06,South,190,0.0,2.0,72,0.00,,---,0.01,VWS V14.01,2013-01-06 09:56:00,
2013-01-06 04:57:00,34.1,26.0,30.06,South,190,0.0,2.0,72,0.00,,---,0.01,VWS V14.01,2013-01-06 09:57:00,
2013-01-06 04:58:00,34.0,25.9,30.06,South,190,0.0,2.0,72,0.00,,---,0.01,VWS V14.01,2013-01-06 09:58:00,
2013-01-06 04:59:00,33.8,25.8,30.06,South,190,0.0,1.0,72,0.00,,---,0.01,VWS V14.01,2013-01-06 09:59:00,
2013-01-06 05:00:00,33.7,26.0,30.06,South,190,0.0,0.0,73,0.00,,---,0.01,VWS V14.01,2013-01-06 10:00:00,
2013-01-06 05:01:00,33.5,25.8,30.06,South,190,0.0,0.0,73,0.00,,---,0.01,VWS V14.01,2013-01-06 10:01:00,
2013-01-06 05:02:00,33.4,25.7,30.06,South,190,0.0,0.0,73,0.00,,---,0.01,VWS V14.01,2013-01-06 10:02:00,
2013-01-06 05:03:00,33.2,25.5,30.06,South,190,0.0,0.0,73,0.00,,---,0.01,VWS V14.01,2013-01-06 10:03:00,
2013-01-06 05:04:00,33.2,25.8,30.06,South,190,0.0,0.0,74,0.00,,---,0.01,VWS V14.01,2013-01-06 10:04:00,
2013-01-06 05:05:00,33.1,25.7,30.06,South,190,0.0,0.0,74,0.00,,---,0.01,VWS V14.01,2013-01-06 10:05:00,
2013-01-06 05:06:00,32.9,25.5,30.06,South,190,0.0,0.0,74,0.00,,---,0.01,VWS V14.01,2013-01-06 10:06:00,
2013-01-06 05:07:00,32.9,25.5,30.06,South,190,0.0,0.0,74,0.00,,---,0.01,VWS V14.01,2013-01-06 10:07:00,
2013-01-06 05:08:00,32.8,25.4,30.06,South,190,0.0,0.0,74,0.00,,---,0.01,VWS V14.01,2013-01-06 10:08:00,
2013-01-06 05:09:00,32.7,25.3,30.06,South,190,0.0,0.0,74,0.00,,---,0.01,VWS V14.01,2013-01-06 10:09:00,
2013-01-06 05:10:00,32.7,25.3,30.06,South,190,0.0,0.0,74,0.00,,---,0.01,VWS V14.01,2013-01-06 10:10:00,
2013-01-06 05:11:00,32.5,25.5,30.06,South,190,0.0,0.0,75,0.00,,---,0.01,VWS V14.01,2013-01-06 10:11:00,
2013-01-06 05:12:00,32.4,25.4,30.06,South,190,0.0,0.0,75,0.00,,---,0.01,VWS V14.01,2013-01-06 10:12:00,
2013-01-06 05:13:00,32.4,25.4,30.06,South,190,0.0,0.0,75,0.00,,---,0.01,VWS V14.01,2013-01-06 10:13:00,
2013-01-06 05:14:00,32.2,25.2,30.06,South,190,0.0,0.0,75,0.00,,---,0.01,VWS V14.01,2013-01-06 10:14:00,
2013-01-06 05:15:00,32.2,25.2,30.08,South,190,0.0,0.0,75,0.00,,---,0.01,VWS V14.01,2013-01-06 10:15:00,
2013-01-06 05:16:00,32.1,25.1,30.08,South,190,0.0,0.0,75,0.00,,---,0.01,VWS V14.01,2013-01-06 10:16:00,
2013-01-06 05:17:00,31.9,25.2,30.08,South,190,0.0,0.0,76,0.00,,---,0.01,VWS V14.01,2013-01-06 10:17:00,
2013-01-06 05:18:00,31.8,25.1,30.08,South,190,0.0,0.0,76,0.00,,---,0.01,VWS V14.01,2013-01-06 10:18:00,
2013-01-06 05:19:00,31.8,25.1,30.08,South,190,0.0,0.0,76,0.00,,---,0.01,VWS V14.01,2013-01-06 10:19:00,
2013-01-06 05:20:00,31.8,25.1,30.08,South,190,0.0,0.0,76,0.00,,---,0.01,VWS V14.01,2013-01-06 10:20:00,
2013-01-06 05:21:00,31.6,24.9,30.08,South,190,0.0,0.0,76,0.00,,---,0.01,VWS V14.01,2013-01-06 10:21:00,
2013-01-06 05:22:00,31.5,24.8,30.08,South,190,0.0,0.0,76,0.00,,---,0.01,VWS V14.01,2013-01-06 10:22:00,
2013-01-06 05:23:00,31.5,24.8,30.08,South,190,0.0,0.0,76,0.00,,---,0.01,VWS V14.01,2013-01-06 10:23:00,
2013-01-06 05:24:00,31.3,24.9,30.08,South,190,0.0,0.0,77,0.00,,---,0.01,VWS V14.01,2013-01-06 10:24:00,
2013-01-06 05:25:00,31.3,24.9,30.08,South,190,0.0,0.0,77,0.00,,---,0.01,VWS V14.01,2013-01-06 10:25:00,
2013-01-06 05:26:00,31.2,24.8,30.08,South,190,0.0,0.0,77,0.00,,---,0.01,VWS V14.01,2013-01-06 10:26:00,
2013-01-06 05:27:00,31.2,24.8,30.08,South,190,0.0,0.0,77,0.00,,---,0.01,VWS V14.01,2013-01-06 10:27:00,
2013-01-06 05:28:00,31.0,24.6,30.08,South,190,0.0,0.0,77,0.00,,---,0.01,VWS V14.01,2013-01-06 10:28:00,
2013-01-06 05:29:00,31.0,24.6,30.08,South,190,0.0,0.0,77,0.00,,---,0.01,VWS V14.01,2013-01-06 10:29:00,
2013-01-06 05:30:00,31.0,24.6,30.08,South,190,0.0,0.0,77,0.00,,---,0.01,VWS V14.01,2013-01-06 10:30:00,
2013-01-06 05:31:00,30.9,24.9,30.08,South,190,0.0,0.0,78,0.00,,---,0.01,VWS V14.01,2013-01-06 10:31:00,
2013-01-06 05:32:00,30.7,24.7,30.08,South,190,0.0,0.0,78,0.00,,---,0.01,VWS V14.01,2013-01-06 10:32:00,
2013-01-06 05:33:00,30.7,24.7,30.08,South,190,0.0,0.0,78,0.00,,---,0.01,VWS V14.01,2013-01-06 10:33:00,
2013-01-06 05:34:00,30.6,24.6,30.08,South,190,0.0,0.0,78,0.00,,---,0.01,VWS V14.01,2013-01-06 10:34:00,
2013-01-06 05:35:00,30.6,24.6,30.08,South,190,0.0,0.0,78,0.00,,---,0.01,VWS V14.01,2013-01-06 10:35:00,
2013-01-06 05:36:00,30.4,24.4,30.08,South,190,0.0,0.0,78,0.00,,---,0.01,VWS V14.01,2013-01-06 10:36:00,
2013-01-06 05:37:00,30.4,24.7,30.08,South,190,0.0,0.0,79,0.00,,---,0.01,VWS V14.01,2013-01-06 10:37:00,
2013-01-06 05:38:00,30.3,24.6,30.08,South,190,0.0,0.0,79,0.00,,---,0.01,VWS V14.01,2013-01-06 10:38:00,
2013-01-06 05:39:00,30.3,24.6,30.08,South,190,0.0,0.0,79,0.00,,---,0.01,VWS V14.01,2013-01-06 10:39:00,
2013-01-06 05:40:00,30.3,24.6,30.08,South,190,0.0,0.0,79,0.00,,---,0.01,VWS V14.01,2013-01-06 10:40:00,
2013-01-06 05:41:00,30.1,24.4,30.08,South,190,0.0,0.0,79,0.00,,---,0.01,VWS V14.01,2013-01-06 10:41:00,
2013-01-06 05:42:00,30.1,24.4,30.08,South,190,0.0,0.0,79,0.00,,---,0.01,VWS V14.01,2013-01-06 10:42:00,
2013-01-06 05:43:00,30.0,24.3,30.08,South,190,0.0,0.0,79,0.00,,---,0.01,VWS V14.01,2013-01-06 10:43:00,
2013-01-06 05:44:00,30.0,24.6,30.08,South,190,0.0,0.0,80,0.00,,---,0.01,VWS V14.01,2013-01-06 10:44:00,
2013-01-06 05:45:00,30.0,24.6,30.08,South,190,0.0,0.0,80,0.00,,---,0.01,VWS V14.01,2013-01-06 10:45:00,
2013-01-06 05:46:00,29.8,24.4,30.08,South,190,0.0,0.0,80,0.00,,---,0.01,VWS V14.01,2013-01-06 10:46:00,
2013-01-06 05:47:00,29.8,24.4,30.08,South,190,0.0,0.0,80,0.00,,---,0.01,VWS V14.01,2013-01-06 10:47:00,
2013-01-06 05:48:00,29.8,24.4,30.08,South,190,0.0,0.0,80,0.00,,---,0.01,VWS V14.01,2013-01-06 10:48:00,
2013-01-06 05:49:00,29.7,24.3,30.08,South,190,0.0,0.0,80,0.00,,---,0.01,VWS V14.01,2013-01-06 10:49:00,
2013-01-06 05:50:00,29.7,24.3,30.08,South,190,0.0,0.0,80,0.00,,---,0.01,VWS V14.01,2013-01-06 10:50:00,
2013-01-06 05:51:00,29.7,24.6,30.08,South,190,0.0,0.0,81,0.00,,---,0.01,VWS V14.01,2013-01-06 10:51:00,
2013-01-06 05:52:00,29.7,24.6,30.08,South,190,0.0,0.0,81,0.00,,---,0.01,VWS V14.01,2013-01-06 10:52:00,
2013-01-06 05:53:00,29.8,24.7,30.08,South,190,0.0,0.0,81,0.00,,---,0.01,VWS V14.01,2013-01-06 10:53:00,
2013-01-06 05:54:00,29.8,24.7,30.08,South,190,0.0,1.0,81,0.00,,---,0.01,VWS V14.01,2013-01-06 10:54:00,
2013-01-06 05:55:00,29.8,24.7,30.08,South,190,2.0,2.0,81,0.00,,---,0.01,VWS V14.01,2013-01-06 10:55:00,
2013-01-06 05:56:00,30.0,24.9,30.08,South,190,1.0,1.0,81,0.00,,---,0.01,VWS V14.01,2013-01-06 10:56:00,
2013-01-06 05:57:00,30.1,25.0,30.08,South,190,0.0,1.0,81,0.00,,---,0.01,VWS V14.01,2013-01-06 10:57:00,
2013-01-06 05:58:00,30.3,25.2,30.08,South,190,0.0,1.0,81,0.00,,---,0.01,VWS V14.01,2013-01-06 10:58:00,
2013-01-06 05:59:00,30.4,25.3,30.08,South,190,2.0,2.0,81,0.00,,---,0.01,VWS V14.01,2013-01-06 10:59:00,
2013-01-06 06:00:00,30.6,25.5,30.08,South,190,0.0,2.0,81,0.00,,---,0.01,VWS V14.01,2013-01-06 11:00:00,
2013-01-06 06:01:00,31.0,25.6,30.08,South,185,0.0,2.0,80,0.00,,---,0.01,VWS V14.01,2013-01-06 11:01:00,
2013-01-06 06:02:00,31.2,25.8,30.08,South,185,0.0,0.0,80,0.00,,---,0.01,VWS V14.01,2013-01-06 11:02:00,
2013-01-06 06:03:00,31.3,25.6,30.08,South,185,0.0,1.0,79,0.00,,---,0.01,VWS V14.01,2013-01-06 11:03:00,
2013-01-06 06:04:00,31.5,25.8,30.08,South,186,1.0,4.0,79,0.00,,---,0.01,VWS V14.01,2013-01-06 11:04:00,
2013-01-06 06:05:00,31.6,25.5,30.08,South,186,0.0,1.0,78,0.00,,---,0.01,VWS V14.01,2013-01-06 11:05:00,
2013-01-06 06:06:00,32.1,26.0,30.08,South,186,0.0,1.0,78,0.00,,---,0.01,VWS V14.01,2013-01-06 11:06:00,
2013-01-06 06:07:00,32.2,25.8,30.08,South,186,0.0,0.0,77,0.00,,---,0.01,VWS V14.01,2013-01-06 11:07:00,
2013-01-06 06:08:00,32.4,26.0,30.08,South,183,3.0,6.0,77,0.00,,---,0.01,VWS V14.01,2013-01-06 11:08:00,
2013-01-06 06:09:00,32.5,25.8,30.08,South,183,0.0,3.0,76,0.00,,---,0.01,VWS V14.01,2013-01-06 11:09:00,
2013-01-06 06:10:00,32.7,26.0,30.08,South,183,1.0,1.0,76,0.00,,---,0.01,VWS V14.01,2013-01-06 11:10:00,
2013-01-06 06:11:00,32.9,25.9,30.08,South,183,0.0,1.0,75,0.00,,---,0.01,VWS V14.01,2013-01-06 11:11:00,
2013-01-06 06:12:00,33.1,25.7,30.08,South,184,1.0,2.0,74,0.00,,---,0.01,VWS V14.01,2013-01-06 11:12:00,
2013-01-06 06:13:00,33.5,25.8,30.08,South,183,0.0,5.0,73,0.00,,---,0.01,VWS V14.01,2013-01-06 11:13:00,
2013-01-06 06:14:00,33.8,25.8,30.08,South,183,1.0,5.0,72,0.00,,---,0.01,VWS V14.01,2013-01-06 11:14:00,
2013-01-06 06:15:00,34.0,25.9,30.08,South,183,0.0,1.0,72,0.00,,---,0.01,VWS V14.01,2013-01-06 11:15:00,
2013-01-06 06:16:00,34.4,26.0,30.08,South,183,4.0,5.0,71,0.00,,---,0.01,VWS V14.01,2013-01-06 11:16:00,
2013-01-06 06:17:00,34.7,25.9,30.08,South,183,0.0,4.0,70,0.00,,---,0.01,VWS V14.01,2013-01-06 11:17:00,
2013-01-06 06:18:00,35.0,25.9,30.08,South,183,0.0,2.0,69,0.00,,---,0.01,VWS V14.01,2013-01-06 11:18:00,
2013-01-06 06:19:00,35.3,25.8,30.08,South,182,1.0,3.0,68,0.00,,---,0.01,VWS V14.01,2013-01-06 11:19:00,
2013-01-06 06:20:00,35.5,26.0,30.08,South,182,1.0,2.0,68,0.00,,---,0.01,VWS V14.01,2013-01-06 11:20:00,
2013-01-06 06:21:00,35.9,26.0,30.08,SSE,152,4.0,5.0,67,0.00,,---,0.01,VWS V14.01,2013-01-06 11:21:00,
2013-01-06 06:22:00,36.2,26.0,30.08,SSE,153,1.0,4.0,66,0.00,,---,0.01,VWS V14.01,2013-01-06 11:22:00,
2013-01-06 06:23:00,36.3,26.0,30.08,SSE,166,3.0,4.0,66,0.00,,---,0.01,VWS V14.01,2013-01-06 11:23:00,
2013-01-06 06:24:00,36.6,26.0,30.08,South,178,0.0,4.0,65,0.00,,---,0.01,VWS V14.01,2013-01-06 11:24:00,
2013-01-06 06:25:00,36.6,26.0,30.08,South,171,1.0,4.0,65,0.00,,---,0.01,VWS V14.01,2013-01-06 11:25:00,
2013-01-06 06:26:00,36.9,25.9,30.08,South,177,4.0,5.0,64,0.00,,---,0.01,VWS V14.01,2013-01-06 11:26:00,
2013-01-06 06:27:00,37.0,26.0,30.08,South,174,1.0,4.0,64,0.00,,---,0.01,VWS V14.01,2013-01-06 11:27:00,
2013-01-06 06:28:00,37.0,25.6,30.08,South,186,4.0,5.0,63,0.00,,---,0.01,VWS V14.01,2013-01-06 11:28:00,
2013-01-06 06:29:00,37.2,25.8,30.08,South,182,3.0,4.0,63,0.00,,---,0.01,VWS V14.01,2013-01-06 11:29:00,
2013-01-06 06:30:00,37.2,25.8,30.08,South,183,0.0,3.0,63,0.00,,---,0.01,VWS V14.01,2013-01-06 11:30:00,
2013-01-06 06:31:00,37.3,25.9,30.08,South,183,0.0,1.0,63,0.00,,---,0.01,VWS V14.01,2013-01-06 11:31:00,
2013-01-06 06:32:00,37.3,25.9,30.08,South,183,0.0,0.0,63,0.00,,---,0.01,VWS V14.01,2013-01-06 11:32:00,
2013-01-06 06:33:00,37.3,25.9,30.08,South,183,0.0,1.0,63,0.00,,---,0.01,VWS V14.01,2013-01-06 11:33:00,
2013-01-06 06:34:00,37.3,25.9,30.08,SSE,152,5.0,6.0,63,0.00,,---,0.01,VWS V14.01,2013-01-06 11:34:00,
2013-01-06 06:35:00,37.3,25.9,30.08,SSE,148,2.0,5.0,63,0.00,,---,0.01,VWS V14.01,2013-01-06 11:35:00,
2013-01-06 06:36:00,37.2,25.4,30.08,SSE,154,0.0,2.0,62,0.00,,---,0.01,VWS V14.01,2013-01-06 11:36:00,
2013-01-06 06:37:00,37.0,25.6,30.08,SSE,154,0.0,1.0,63,0.00,,---,0.01,VWS V14.01,2013-01-06 11:37:00,
2013-01-06 06:38:00,36.9,25.5,30.08,SSE,155,0.0,1.0,63,0.00,,---,0.01,VWS V14.01,2013-01-06 11:38:00,
2013-01-06 06:39:00,36.8,25.8,30.08,SSE,163,2.0,5.0,64,0.00,,---,0.01,VWS V14.01,2013-01-06 11:39:00,
2013-01-06 06:40:00,36.8,25.8,30.08,SSE,163,0.0,2.0,64,0.00,,---,0.01,VWS V14.01,2013-01-06 11:40:00,
2013-01-06 06:41:00,36.6,25.6,30.08,SSE,163,2.0,5.0,64,0.00,,---,0.01,VWS V14.01,2013-01-06 11:41:00,
2013-01-06 06:42:00,36.6,25.6,30.08,SSE,163,1.0,4.0,64,0.00,,---,0.01,VWS V14.01,2013-01-06 11:42:00,
2013-01-06 06:43:00,36.6,25.6,30.08,SSE,163,0.0,2.0,64,0.00,,---,0.01,VWS V14.01,2013-01-06 11:43:00,
2013-01-06 06:44:00,36.6,25.6,30.08,SSE,163,0.0,2.0,64,0.00,,---,0.01,VWS V14.01,2013-01-06 11:44:00,
2013-01-06 06:45:00,36.6,25.6,30.08,SSE,163,0.0,0.0,64,0.00,,---,0.01,VWS V14.01,2013-01-06 11:45:00,
2013-01-06 06:46:00,36.5,25.5,30.08,SSE,161,2.0,4.0,64,0.00,,---,0.01,VWS V14.01,2013-01-06 11:46:00,
2013-01-06 06:47:00,36.5,25.5,30.08,SSE,167,2.0,2.0,64,0.00,,---,0.01,VWS V14.01,2013-01-06 11:47:00,
2013-01-06 06:48:00,36.5,25.5,30.08,SSE,167,0.0,2.0,64,0.00,,---,0.01,VWS V14.01,2013-01-06 11:48:00,
2013-01-06 06:49:00,36.5,25.5,30.08,South,182,1.0,2.0,64,0.00,,---,0.01,VWS V14.01,2013-01-06 11:49:00,
2013-01-06 06:50:00,36.5,25.5,30.08,South,182,0.0,1.0,64,0.00,,---,0.01,VWS V14.01,2013-01-06 11:50:00,
2013-01-06 06:51:00,36.3,25.3,30.08,SSE,161,0.0,1.0,64,0.00,,---,0.01,VWS V14.01,2013-01-06 11:51:00,
2013-01-06 06:52:00,36.3,25.3,30.08,SSE,168,2.0,5.0,64,0.00,,---,0.01,VWS V14.01,2013-01-06 11:52:00,
2013-01-06 06:53:00,36.3,25.3,30.08,South,178,5.0,6.0,64,0.00,,---,0.01,VWS V14.01,2013-01-06 11:53:00,
2013-01-06 06:54:00,36.5,25.5,30.08,South,179,0.0,5.0,64,0.00,,---,0.01,VWS V14.01,2013-01-06 11:54:00,
2013-01-06 06:55:00,36.5,25.5,30.08,South,179,2.0,2.0,64,0.00,,---,0.01,VWS V14.01,2013-01-06 11:55:00,
2013-01-06 06:56:00,36.5,25.5,30.08,South,178,0.0,0.0,64,0.00,,---,0.01,VWS V14.01,2013-01-06 11:56:00,
2013-01-06 06:57:00,36.5,25.1,30.08,South,178,0.0,0.0,63,0.00,,---,0.01,VWS V14.01,2013-01-06 11:57:00,
2013-01-06 06:58:00,36.3,24.9,30.08,South,178,0.0,1.0,63,0.00,,---,0.01,VWS V14.01,2013-01-06 11:58:00,
2013-01-06 06:59:00,36.3,25.3,30.08,South,178,0.0,1.0,64,0.00,,---,0.01,VWS V14.01,2013-01-06 11:59:00,
2013-01-06 07:00:00,36.2,25.2,30.08,South,178,0.0,1.0,64,0.00,,---,0.01,VWS V14.01,2013-01-06 12:00:00,
2013-01-06 07:01:00,36.0,25.0,30.08,South,178,0.0,1.0,64,0.00,,---,0.01,VWS V14.01,2013-01-06 12:01:00,
2013-01-06 07:02:00,35.9,24.9,30.08,South,178,0.0,2.0,64,0.00,,---,0.01,VWS V14.01,2013-01-06 12:02:00,
2013-01-06 07:03:00,35.9,25.3,30.08,South,178,0.0,3.0,65,0.00,,---,0.01,VWS V14.01,2013-01-06 12:03:00,
2013-01-06 07:04:00,35.9,25.3,30.08,South,178,0.0,4.0,65,0.00,,---,0.01,VWS V14.01,2013-01-06 12:04:00,
2013-01-06 07:05:00,35.9,25.3,30.08,South,178,0.0,0.0,65,0.00,,---,0.01,VWS V14.01,2013-01-06 12:05:00,
2013-01-06 07:06:00,35.8,25.2,30.08,South,169,1.0,2.0,65,0.00,,---,0.01,VWS V14.01,2013-01-06 12:06:00,
2013-01-06 07:07:00,35.6,25.0,30.08,South,169,0.0,4.0,65,0.00,,---,0.01,VWS V14.01,2013-01-06 12:07:00,
2013-01-06 07:08:00,35.5,24.9,30.08,South,169,0.0,1.0,65,0.00,,---,0.01,VWS V14.01,2013-01-06 12:08:00,
2013-01-06 07:09:00,35.5,24.9,30.08,South,169,0.0,1.0,65,0.00,,---,0.01,VWS V14.01,2013-01-06 12:09:00,
2013-01-06 07:10:00,35.5,24.9,30.08,South,169,0.0,0.0,65,0.00,,---,0.01,VWS V14.01,2013-01-06 12:10:00,
2013-01-06 07:11:00,35.2,24.6,30.08,South,169,0.0,0.0,65,0.00,,---,0.01,VWS V14.01,2013-01-06 12:11:00,
2013-01-06 07:12:00,35.2,25.0,30.08,SSE,155,0.0,4.0,66,0.00,,---,0.01,VWS V14.01,2013-01-06 12:12:00,
2013-01-06 07:13:00,35.0,24.8,30.08,SSE,155,0.0,2.0,66,0.00,,---,0.01,VWS V14.01,2013-01-06 12:13:00,
2013-01-06 07:14:00,34.9,24.7,30.08,SSE,155,0.0,2.0,66,0.00,,---,0.01,VWS V14.01,2013-01-06 12:14:00,
2013-01-06 07:15:00,34.7,24.5,30.09,SSE,155,1.0,1.0,66,0.00,,---,0.01,VWS V14.01,2013-01-06 12:15:00,
2013-01-06 07:16:00,34.6,24.8,30.09,SSE,155,0.0,0.0,67,0.00,,---,0.01,VWS V14.01,2013-01-06 12:16:00,
2013-01-06 07:17:00,34.4,24.6,30.09,SSE,155,0.0,1.0,67,0.00,,---,0.01,VWS V14.01,2013-01-06 12:17:00,
2013-01-06 07:18:00,34.3,24.5,30.09,SSE,155,0.0,0.0,67,0.00,,---,0.01,VWS V14.01,2013-01-06 12:18:00,
2013-01-06 07:19:00,34.1,24.3,30.09,SSE,155,0.0,0.0,67,0.00,,---,0.01,VWS V14.01,2013-01-06 12:19:00,
2013-01-06 07:20:00,34.0,24.2,30.09,SSE,155,0.0,0.0,67,0.00,,---,0.01,VWS V14.01,2013-01-06 12:20:00,
2013-01-06 07:21:00,33.8,24.4,30.09,SSE,155,0.0,2.0,68,0.00,,---,0.01,VWS V14.01,2013-01-06 12:21:00,
2013-01-06 07:22:00,33.7,24.3,30.09,SSE,155,0.0,1.0,68,0.00,,---,0.01,VWS V14.01,2013-01-06 12:22:00,
2013-01-06 07:23:00,33.7,24.3,30.09,SSE,155,0.0,1.0,68,0.00,,---,0.01,VWS V14.01,2013-01-06 12:23:00,
2013-01-06 07:24:00,33.7,24.6,30.09,SSE,155,0.0,1.0,69,0.00,,---,0.01,VWS V14.01,2013-01-06 12:24:00,
2013-01-06 07:25:00,33.7,24.6,30.09,SSE,155,1.0,1.0,69,0.00,,---,0.01,VWS V14.01,2013-01-06 12:25:00,
2013-01-06 07:26:00,33.7,24.6,30.09,SSE,156,0.0,2.0,69,0.00,,---,0.01,VWS V14.01,2013-01-06 12:26:00,
2013-01-06 07:27:00,33.8,24.4,30.09,SSE,156,0.0,1.0,68,0.00,,---,0.01,VWS V14.01,2013-01-06 12:27:00,
2013-01-06 07:28:00,33.8,24.4,30.09,SSE,156,0.0,2.0,68,0.00,,---,0.01,VWS V14.01,2013-01-06 12:28:00,
2013-01-06 07:29:00,34.0,24.6,30.09,SSE,156,0.0,1.0,68,0.00,,---,0.01,VWS V14.01,2013-01-06 12:29:00,
2013-01-06 07:30:00,34.0,24.6,30.09,SSE,156,1.0,2.0,68,0.00,,---,0.01,VWS V14.01,2013-01-06 12:30:00,
2013-01-06 07:31:00,34.1,24.3,30.09,SSE,162,0.0,3.0,67,0.00,,---,0.01,VWS V14.01,2013-01-06 12:31:00,
2013-01-06 07:32:00,34.3,24.5,30.09,SSE,163,1.0,4.0,67,0.00,,---,0.01,VWS V14.01,2013-01-06 12:32:00,
2013-01-06 07:33:00,34.4,24.6,30.09,SSE,163,0.0,2.0,67,0.00,,---,0.01,VWS V14.01,2013-01-06 12:33:00,
2013-01-06 07:34:00,34.6,24.4,30.09,SSE,162,0.0,1.0,66,0.00,,---,0.01,VWS V14.01,2013-01-06 12:34:00,
2013-01-06 07:35:00,34.6,24.4,30.09,SSE,162,0.0,0.0,66,0.00,,---,0.01,VWS V14.01,2013-01-06 12:35:00,
2013-01-06 07:36:00,34.7,24.5,30.09,SSE,163,0.0,2.0,66,0.00,,---,0.01,VWS V14.01,2013-01-06 12:36:00,
2013-01-06 07:37:00,34.9,24.7,30.09,SSE,163,0.0,4.0,66,0.00,,---,0.01,VWS V14.01,2013-01-06 12:37:00,
2013-01-06 07:38:00,34.9,24.7,30.09,SSE,163,1.0,3.0,66,0.00,,---,0.01,VWS V14.01,2013-01-06 12:38:00,
2013-01-06 07:39:00,35.0,24.8,30.09,SSE,163,0.0,4.0,66,0.00,,---,0.01,VWS V14.01,2013-01-06 12:39:00,
2013-01-06 07:40:00,35.0,24.4,30.09,SSE,163,1.0,2.0,65,0.00,,---,0.01,VWS V14.01,2013-01-06 12:40:00,
2013-01-06 07:41:00,35.3,24.7,30.09,SSE,163,1.0,4.0,65,0.00,,---,0.01,VWS V14.01,2013-01-06 12:41:00,
2013-01-06 07:42:00,35.3,24.7,30.09,SSE,163,1.0,4.0,65,0.00,,---,0.01,VWS V14.01,2013-01-06 12:42:00,
2013-01-06 07:43:00,35.3,24.4,30.09,SSW,198,0.0,4.0,64,0.00,,---,0.01,VWS V14.01,2013-01-06 12:43:00,
2013-01-06 07:44:00,35.5,24.5,30.09,South,190,2.0,5.0,64,0.00,,---,0.01,VWS V14.01,2013-01-06 12:44:00,
2013-01-06 07:45:00,35.5,24.5,30.08,South,190,0.0,2.0,64,0.00,,---,0.01,VWS V14.01,2013-01-06 12:45:00,
2013-01-06 07:46:00,35.5,24.5,30.08,South,190,0.0,2.0,64,0.00,,---,0.01,VWS V14.01,2013-01-06 12:46:00,
2013-01-06 07:47:00,35.6,24.6,30.08,South,190,0.0,1.0,64,0.00,,---,0.01,VWS V14.01,2013-01-06 12:47:00,
2013-01-06 07:48:00,35.6,24.6,30.08,South,190,0.0,0.0,64,0.00,,---,0.01,VWS V14.01,2013-01-06 12:48:00,
2013-01-06 07:49:00,35.6,24.6,30.08,South,190,0.0,0.0,64,0.00,,---,0.01,VWS V14.01,2013-01-06 12:49:00,
2013-01-06 07:50:00,35.6,24.6,30.08,South,190,0.0,0.0,64,0.00,,---,0.01,VWS V14.01,2013-01-06 12:50:00,
2013-01-06 07:51:00,35.6,24.6,30.08,South,190,0.0,0.0,64,0.00,,---,0.01,VWS V14.01,2013-01-06 12:51:00,
2013-01-06 07:52:00,35.5,24.5,30.08,South,190,0.0,0.0,64,0.00,,---,0.01,VWS V14.01,2013-01-06 12:52:00,
2013-01-06 07:53:00,35.5,24.5,30.08,South,190,0.0,0.0,64,0.00,,---,0.01,VWS V14.01,2013-01-06 12:53:00,
2013-01-06 07:54:00,35.5,24.5,30.08,South,190,0.0,0.0,64,0.00,,---,0.01,VWS V14.01,2013-01-06 12:54:00,
2013-01-06 07:55:00,35.3,24.4,30.08,South,190,0.0,0.0,64,0.00,,---,0.01,VWS V14.01,2013-01-06 12:55:00,
2013-01-06 07:56:00,35.2,25.0,30.08,South,190,0.0,1.0,66,0.00,,---,0.01,VWS V14.01,2013-01-06 12:56:00,
2013-01-06 07:57:00,35.0,24.8,30.08,South,190,0.0,0.0,66,0.00,,---,0.01,VWS V14.01,2013-01-06 12:57:00,
2013-01-06 07:58:00,34.7,24.9,30.08,South,190,0.0,0.0,67,0.00,,---,0.01,VWS V14.01,2013-01-06 12:58:00,
2013-01-06 07:59:00,34.4,24.6,30.08,South,190,0.0,0.0,67,0.00,,---,0.01,VWS V14.01,2013-01-06 12:59:00,
2013-01-06 08:00:00,34.4,24.6,30.09,South,190,0.0,0.0,67,0.00,,---,0.01,VWS V14.01,2013-01-06 13:00:00,
2013-01-06 08:01:00,34.0,24.2,30.09,South,190,0.0,0.0,67,0.00,,---,0.01,VWS V14.01,2013-01-06 13:01:00,
2013-01-06 08:02:00,33.7,24.3,30.09,South,190,0.0,0.0,68,0.00,,---,0.01,VWS V14.01,2013-01-06 13:02:00,
2013-01-06 08:03:00,33.4,24.3,30.09,South,190,0.0,0.0,69,0.00,,---,0.01,VWS V14.01,2013-01-06 13:03:00,
2013-01-06 08:04:00,33.2,24.1,30.09,South,190,0.0,3.0,69,0.00,,---,0.01,VWS V14.01,2013-01-06 13:04:00,
2013-01-06 08:05:00,33.1,24.0,30.09,South,190,0.0,0.0,69,0.00,,---,0.01,VWS V14.01,2013-01-06 13:05:00,
2013-01-06 08:06:00,32.8,24.1,30.09,South,190,0.0,0.0,70,0.00,,---,0.01,VWS V14.01,2013-01-06 13:06:00,
2013-01-06 08:07:00,32.7,24.0,30.09,South,190,0.0,1.0,70,0.00,,---,0.01,VWS V14.01,2013-01-06 13:07:00,
2013-01-06 08:08:00,32.4,24.1,30.09,South,190,0.0,1.0,71,0.00,,---,0.01,VWS V14.01,2013-01-06 13:08:00,
2013-01-06 08:09:00,32.2,24.2,30.09,South,190,0.0,0.0,72,0.00,,---,0.01,VWS V14.01,2013-01-06 13:09:00,
2013-01-06 08:10:00,32.2,24.2,30.09,South,190,0.0,0.0,72,0.00,,---,0.01,VWS V14.01,2013-01-06 13:10:00,
2013-01-06 08:11:00,32.1,24.1,30.09,South,190,0.0,0.0,72,0.00,,---,0.01,VWS V14.01,2013-01-06 13:11:00,
2013-01-06 08:12:00,31.9,23.9,30.09,South,190,0.0,0.0,72,0.00,,---,0.01,VWS V14.01,2013-01-06 13:12:00,
2013-01-06 08:13:00,31.8,23.8,30.09,South,190,0.0,0.0,72,0.00,,---,0.01,VWS V14.01,2013-01-06 13:13:00,
2013-01-06 08:14:00,31.6,24.0,30.09,South,190,0.0,2.0,73,0.00,,---,0.01,VWS V14.01,2013-01-06 13:14:00,
2013-01-06 08:15:00,31.6,24.0,30.09,South,190,0.0,0.0,73,0.00,,---,0.01,VWS V14.01,2013-01-06 13:15:00,
2013-01-06 08:16:00,31.3,24.0,30.09,South,190,0.0,0.0,74,0.00,,---,0.01,VWS V14.01,2013-01-06 13:16:00,
2013-01-06 08:17:00,31.2,23.9,30.09,South,190,0.0,0.0,74,0.00,,---,0.01,VWS V14.01,2013-01-06 13:17:00,
2013-01-06 08:18:00,31.2,23.9,30.09,South,190,0.0,0.0,74,0.00,,---,0.01,VWS V14.01,2013-01-06 13:18:00,
2013-01-06 08:19:00,31.0,23.7,30.09,South,190,0.0,0.0,74,0.00,,---,0.01,VWS V14.01,2013-01-06 13:19:00,
2013-01-06 08:20:00,31.0,24.0,30.09,South,190,0.0,0.0,75,0.00,,---,0.01,VWS V14.01,2013-01-06 13:20:00,
2013-01-06 08:21:00,30.9,23.9,30.09,South,190,0.0,0.0,75,0.00,,---,0.01,VWS V14.01,2013-01-06 13:21:00,
2013-01-06 08:22:00,30.7,23.7,30.09,South,190,0.0,0.0,75,0.00,,---,0.01,VWS V14.01,2013-01-06 13:22:00,
2013-01-06 08:23:00,30.7,23.7,30.09,South,190,0.0,0.0,75,0.00,,---,0.01,VWS V14.01,2013-01-06 13:23:00,
2013-01-06 08:24:00,30.6,23.6,30.09,South,190,0.0,0.0,75,0.00,,---,0.01,VWS V14.01,2013-01-06 13:24:00,
2013-01-06 08:25:00,30.6,23.6,30.09,South,190,0.0,0.0,75,0.00,,---,0.01,VWS V14.01,2013-01-06 13:25:00,
2013-01-06 08:26:00,30.6,24.0,30.09,South,190,0.0,0.0,76,0.00,,---,0.01,VWS V14.01,2013-01-06 13:26:00,
2013-01-06 08:27:00,30.4,23.8,30.09,South,190,0.0,0.0,76,0.00,,---,0.01,VWS V14.01,2013-01-06 13:27:00,
2013-01-06 08:28:00,30.4,24.1,30.09,South,190,0.0,0.0,77,0.00,,---,0.01,VWS V14.01,2013-01-06 13:28:00,
2013-01-06 08:29:00,30.4,24.1,30.09,South,190,0.0,0.0,77,0.00,,---,0.01,VWS V14.01,2013-01-06 13:29:00,
2013-01-06 08:30:00,30.3,24.0,30.10,South,190,0.0,0.0,77,0.00,,---,0.01,VWS V14.01,2013-01-06 13:30:00,
2013-01-06 08:31:00,30.3,24.0,30.10,South,190,0.0,0.0,77,0.00,,---,0.01,VWS V14.01,2013-01-06 13:31:00,
2013-01-06 08:32:00,30.3,24.0,30.10,South,190,0.0,0.0,77,0.00,,---,0.01,VWS V14.01,2013-01-06 13:32:00,
2013-01-06 08:33:00,30.3,24.0,30.10,South,190,0.0,0.0,77,0.00,,---,0.01,VWS V14.01,2013-01-06 13:33:00,
2013-01-06 08:34:00,30.3,24.3,30.10,South,190,0.0,0.0,78,0.00,,---,0.01,VWS V14.01,2013-01-06 13:34:00,
2013-01-06 08:35:00,30.3,24.3,30.10,South,190,0.0,0.0,78,0.00,,---,0.01,VWS V14.01,2013-01-06 13:35:00,
2013-01-06 08:36:00,30.3,24.3,30.10,South,190,0.0,0.0,78,0.00,,---,0.01,VWS V14.01,2013-01-06 13:36:00,
2013-01-06 08:37:00,30.3,24.3,30.10,South,190,0.0,0.0,78,0.00,,---,0.01,VWS V14.01,2013-01-06 13:37:00,
2013-01-06 08:38:00,30.4,24.7,30.10,South,190,0.0,0.0,79,0.00,,---,0.01,VWS V14.01,2013-01-06 13:38:00,
2013-01-06 08:39:00,30.4,24.7,30.10,South,190,0.0,0.0,79,0.00,,---,0.01,VWS V14.01,2013-01-06 13:39:00,
2013-01-06 08:40:00,30.4,24.7,30.10,South,190,0.0,0.0,79,0.00,,---,0.01,VWS V14.01,2013-01-06 13:40:00,
2013-01-06 08:41:00,30.6,24.9,30.10,South,190,0.0,0.0,79,0.00,,---,0.01,VWS V14.01,2013-01-06 13:41:00,
2013-01-06 08:42:00,30.7,25.3,30.10,South,169,3.0,4.0,80,0.00,,---,0.01,VWS V14.01,2013-01-06 13:42:00,
2013-01-06 08:43:00,31.2,25.8,30.10,South,169,0.0,3.0,80,0.00,,---,0.01,VWS V14.01,2013-01-06 13:43:00,
2013-01-06 08:44:00,31.3,25.2,30.10,South,169,0.0,0.0,78,0.00,,---,0.01,VWS V14.01,2013-01-06 13:44:00,
2013-01-06 08:45:00,31.3,25.2,30.10,South,169,0.0,0.0,78,0.00,,---,0.01,VWS V14.01,2013-01-06 13:45:00,
2013-01-06 08:46:00,31.6,25.5,30.10,South,169,1.0,2.0,78,0.00,,---,0.01,VWS V14.01,2013-01-06 13:46:00,
2013-01-06 08:47:00,32.1,26.0,30.10,ESE,123,2.0,3.0,78,0.00,,---,0.01,VWS V14.01,2013-01-06 13:47:00,
2013-01-06 08:48:00,32.7,26.3,30.10,South,180,4.0,4.0,77,0.00,,---,0.01,VWS V14.01,2013-01-06 13:48:00,
2013-01-06 08:49:00,33.4,26.7,30.10,South,181,0.0,6.0,76,0.00,,---,0.01,VWS V14.01,2013-01-06 13:49:00,
2013-01-06 08:50:00,33.5,26.1,30.10,South,181,2.0,2.0,74,0.00,,---,0.01,VWS V14.01,2013-01-06 13:50:00,
2013-01-06 08:51:00,34.4,26.3,30.10,South,184,0.0,2.0,72,0.00,,---,0.01,VWS V14.01,2013-01-06 13:51:00,
2013-01-06 08:52:00,34.7,26.3,30.10,South,184,0.0,1.0,71,0.00,,---,0.01,VWS V14.01,2013-01-06 13:52:00,
2013-01-06 08:53:00,35.2,26.4,30.10,South,172,0.0,3.0,70,0.00,,---,0.01,VWS V14.01,2013-01-06 13:53:00,
2013-01-06 08:54:00,35.6,26.8,30.10,South,172,0.0,2.0,70,0.00,,---,0.01,VWS V14.01,2013-01-06 13:54:00,
2013-01-06 08:55:00,35.6,26.5,30.10,South,172,1.0,1.0,69,0.00,,---,0.01,VWS V14.01,2013-01-06 13:55:00,
2013-01-06 08:56:00,36.3,26.4,30.10,South,170,1.0,4.0,67,0.00,,---,0.01,VWS V14.01,2013-01-06 13:56:00,
2013-01-06 08:57:00,36.6,26.7,30.10,South,170,0.0,1.0,67,0.00,,---,0.01,VWS V14.01,2013-01-06 13:57:00,
2013-01-06 08:58:00,36.9,26.6,30.10,SSE,165,4.0,4.0,66,0.00,,---,0.01,VWS V14.01,2013-01-06 13:58:00,
2013-01-06 08:59:00,37.2,26.5,30.10,SSE,167,1.0,5.0,65,0.00,,---,0.01,VWS V14.01,2013-01-06 13:59:00,
2013-01-06 09:00:00,37.3,26.6,30.09,SSE,161,3.0,3.0,65,0.00,,---,0.01,VWS V14.01,2013-01-06 14:00:00,
2013-01-06 09:01:00,37.8,26.4,30.09,SSE,162,1.0,5.0,63,0.00,,---,0.01,VWS V14.01,2013-01-06 14:01:00,
2013-01-06 09:02:00,38.0,26.5,30.09,SSE,159,2.0,5.0,63,0.00,,---,0.01,VWS V14.01,2013-01-06 14:02:00,
2013-01-06 09:03:00,38.2,26.3,30.09,SSE,159,1.0,2.0,62,0.00,,---,0.01,VWS V14.01,2013-01-06 14:03:00,
2013-01-06 09:04:00,38.3,26.4,30.09,SE,140,1.0,6.0,62,0.00,,---,0.01,VWS V14.01,2013-01-06 14:04:00,
2013-01-06 09:05:00,38.5,26.6,30.09,SE,140,2.0,2.0,62,0.00,,---,0.01,VWS V14.01,2013-01-06 14:05:00,
2013-01-06 09:06:00,38.6,26.3,30.09,South,171,4.0,5.0,61,0.00,,---,0.01,VWS V14.01,2013-01-06 14:06:00,
2013-01-06 09:07:00,38.8,26.5,30.09,SSE,167,1.0,4.0,61,0.00,,---,0.01,VWS V14.01,2013-01-06 14:07:00,
2013-01-06 09:08:00,38.9,26.6,30.09,SE,132,0.0,5.0,61,0.00,,---,0.01,VWS V14.01,2013-01-06 14:08:00,
2013-01-06 09:09:00,39.1,26.8,30.09,SE,144,5.0,5.0,61,0.00,,---,0.01,VWS V14.01,2013-01-06 14:09:00,
2013-01-06 09:10:00,39.1,26.8,30.09,SE,143,2.0,5.0,61,0.00,,---,0.01,VWS V14.01,2013-01-06 14:10:00,
2013-01-06 09:11:00,39.2,26.9,30.09,SSE,161,2.0,4.0,61,0.00,,---,0.01,VWS V14.01,2013-01-06 14:11:00,
2013-01-06 09:12:00,39.2,26.5,30.09,SSE,150,0.0,4.0,60,0.00,,---,0.01,VWS V14.01,2013-01-06 14:12:00,
2013-01-06 09:13:00,39.3,26.6,30.09,SE,144,2.0,4.0,60,0.00,,---,0.01,VWS V14.01,2013-01-06 14:13:00,
2013-01-06 09:14:00,39.3,26.6,30.09,SSE,167,4.0,5.0,60,0.00,,---,0.01,VWS V14.01,2013-01-06 14:14:00,
2013-01-06 09:15:00,39.3,26.6,30.09,SSE,167,4.0,4.0,60,0.00,,---,0.01,VWS V14.01,2013-01-06 14:15:00,
2013-01-06 09:16:00,39.5,26.4,30.09,SSW,194,2.0,6.0,59,0.00,,---,0.01,VWS V14.01,2013-01-06 14:16:00,
2013-01-06 09:17:00,39.5,26.4,30.09,SSW,194,5.0,5.0,59,0.00,,---,0.01,VWS V14.01,2013-01-06 14:17:00,
2013-01-06 09:18:00,39.5,26.4,30.09,SE,138,2.0,5.0,59,0.00,,---,0.01,VWS V14.01,2013-01-06 14:18:00,
2013-01-06 09:19:00,39.6,26.5,30.09,SE,138,2.0,2.0,59,0.00,,---,0.01,VWS V14.01,2013-01-06 14:19:00,
2013-01-06 09:20:00,39.6,26.5,30.09,South,172,3.0,5.0,59,0.00,,---,0.01,VWS V14.01,2013-01-06 14:20:00,
2013-01-06 09:21:00,39.6,26.1,30.09,South,175,2.0,6.0,58,0.00,,---,0.01,VWS V14.01,2013-01-06 14:21:00,
2013-01-06 09:22:00,39.6,26.1,30.09,South,182,4.0,6.0,58,0.00,,---,0.01,VWS V14.01,2013-01-06 14:22:00,
2013-01-06 09:23:00,39.6,26.1,30.09,South,182,1.0,4.0,58,0.00,,---,0.01,VWS V14.01,2013-01-06 14:23:00,
2013-01-06 09:24:00,39.6,26.1,30.09,South,179,2.0,4.0,58,0.00,,---,0.01,VWS V14.01,2013-01-06 14:24:00,
2013-01-06 09:25:00,39.6,26.1,30.09,South,179,2.0,3.0,58,0.00,,---,0.01,VWS V14.01,2013-01-06 14:25:00,
2013-01-06 09:26:00,39.8,26.2,30.09,South,178,0.0,2.0,58,0.00,,---,0.01,VWS V14.01,2013-01-06 14:26:00,
2013-01-06 09:27:00,39.8,26.2,30.09,South,190,4.0,5.0,58,0.00,,---,0.01,VWS V14.01,2013-01-06 14:27:00,
2013-01-06 09:28:00,39.8,26.2,30.09,South,189,2.0,5.0,58,0.00,,---,0.01,VWS V14.01,2013-01-06 14:28:00,
2013-01-06 09:29:00,39.8,26.2,30.09,South,189,1.0,3.0,58,0.00,,---,0.01,VWS V14.01,2013-01-06 14:29:00,
2013-01-06 09:30:00,39.8,26.2,30.10,SSE,161,6.0,6.0,58,0.00,,---,0.01,VWS V14.01,2013-01-06 14:30:00,
2013-01-06 09:31:00,39.8,26.2,30.10,SSE,162,2.0,2.0,58,0.00,,---,0.01,VWS V14.01,2013-01-06 14:31:00,
2013-01-06 09:32:00,39.9,26.3,30.10,SSE,161,0.0,4.0,58,0.00,,---,0.01,VWS V14.01,2013-01-06 14:32:00,
2013-01-06 09:33:00,39.9,26.3,30.10,SSW,195,3.0,7.0,58,0.00,,---,0.01,VWS V14.01,2013-01-06 14:33:00,
2013-01-06 09:34:00,40.1,26.5,30.10,South,190,2.0,5.0,58,0.00,,---,0.01,VWS V14.01,2013-01-06 14:34:00,
2013-01-06 09:35:00,40.1,26.5,30.10,South,190,2.0,4.0,58,0.00,,---,0.01,VWS V14.01,2013-01-06 14:35:00,
2013-01-06 09:36:00,40.3,26.3,30.10,SSE,148,2.0,5.0,57,0.00,,---,0.01,VWS V14.01,2013-01-06 14:36:00,
2013-01-06 09:37:00,40.5,26.5,30.10,SE,136,0.0,5.0,57,0.00,,---,0.01,VWS V14.01,2013-01-06 14:37:00,
2013-01-06 09:38:00,40.8,26.8,30.10,SE,136,1.0,4.0,57,0.00,,---,0.01,VWS V14.01,2013-01-06 14:38:00,
2013-01-06 09:39:00,40.9,26.4,30.10,South,171,4.0,6.0,56,0.00,,---,0.01,VWS V14.01,2013-01-06 14:39:00,
2013-01-06 09:40:00,40.9,26.4,30.10,South,174,5.0,5.0,56,0.00,,---,0.01,VWS V14.01,2013-01-06 14:40:00,
2013-01-06 09:41:00,41.2,26.3,30.10,SSE,153,3.0,6.0,55,0.00,,---,0.01,VWS V14.01,2013-01-06 14:41:00,
2013-01-06 09:42:00,41.3,26.4,30.10,South,178,0.0,5.0,55,0.00,,---,0.01,VWS V14.01,2013-01-06 14:42:00,
2013-01-06 09:43:00,41.3,26.4,30.10,South,178,1.0,1.0,55,0.00,,---,0.01,VWS V14.01,2013-01-06 14:43:00,
2013-01-06 09:44:00,41.5,27.0,30.10,South,185,6.0,6.0,56,0.00,,---,0.01,VWS V14.01,2013-01-06 14:44:00,
2013-01-06 09:45:00,41.5,27.0,30.09,South,171,5.0,7.0,56,0.00,,---,0.01,VWS V14.01,2013-01-06 14:45:00,
2013-01-06 09:46:00,41.6,27.1,30.09,South,188,5.0,5.0,56,0.00,,---,0.01,VWS V14.01,2013-01-06 14:46:00,
2013-01-06 09:47:00,41.8,26.8,30.09,SSE,152,6.0,6.0,55,0.00,,---,0.01,VWS V14.01,2013-01-06 14:47:00,
2013-01-06 09:48:00,41.9,26.9,30.09,SSW,192,5.0,6.0,55,0.00,,---,0.01,VWS V14.01,2013-01-06 14:48:00,
2013-01-06 09:49:00,42.1,26.2,30.09,SSW,194,3.0,7.0,53,0.00,,---,0.01,VWS V14.01,2013-01-06 14:49:00,
2013-01-06 09:50:00,42.1,26.2,30.09,SSW,194,1.0,4.0,53,0.00,,---,0.01,VWS V14.01,2013-01-06 14:50:00,
2013-01-06 09:51:00,42.2,26.8,30.09,South,188,0.0,6.0,54,0.00,,---,0.01,VWS V14.01,2013-01-06 14:51:00,
2013-01-06 09:52:00,42.3,27.3,30.09,SE,134,7.0,7.0,55,0.00,,---,0.01,VWS V14.01,2013-01-06 14:52:00,
2013-01-06 09:53:00,42.6,27.6,30.09,SSE,159,0.0,7.0,55,0.00,,---,0.01,VWS V14.01,2013-01-06 14:53:00,
2013-01-06 09:54:00,42.6,27.1,30.09,SE,132,4.0,10.0,54,0.00,,---,0.01,VWS V14.01,2013-01-06 14:54:00,
2013-01-06 09:55:00,42.8,27.3,30.09,South,176,4.0,5.0,54,0.00,,---,0.01,VWS V14.01,2013-01-06 14:55:00,
2013-01-06 09:56:00,43.1,27.1,30.09,SE,134,5.0,7.0,53,0.00,,---,0.01,VWS V14.01,2013-01-06 14:56:00,
2013-01-06 09:57:00,43.2,27.2,30.09,SSE,165,5.0,5.0,53,0.00,,---,0.01,VWS V14.01,2013-01-06 14:57:00,
2013-01-06 09:58:00,43.2,26.8,30.09,SSE,162,5.0,6.0,52,0.00,,---,0.01,VWS V14.01,2013-01-06 14:58:00,
2013-01-06 09:59:00,43.2,26.8,30.09,SSE,156,0.0,5.0,52,0.00,,---,0.01,VWS V14.01,2013-01-06 14:59:00,
2013-01-06 10:00:00,43.3,27.3,30.09,SE,138,2.0,2.0,53,0.00,,---,0.01,VWS V14.01,2013-01-06 15:00:00,
2013-01-06 10:01:00,43.5,27.1,30.09,SE,128,5.0,8.0,52,0.00,,---,0.01,VWS V14.01,2013-01-06 15:01:00,
2013-01-06 10:02:00,43.6,27.1,30.09,SSE,153,2.0,9.0,52,0.00,,---,0.01,VWS V14.01,2013-01-06 15:02:00,
2013-01-06 10:03:00,43.8,27.3,30.09,South,181,3.0,7.0,52,0.00,,---,0.01,VWS V14.01,2013-01-06 15:03:00,
2013-01-06 10:04:00,43.8,26.9,30.09,SSE,167,2.0,5.0,51,0.00,,---,0.01,VWS V14.01,2013-01-06 15:04:00,
2013-01-06 10:05:00,43.8,27.3,30.09,SSE,148,8.0,9.0,52,0.00,,---,0.01,VWS V14.01,2013-01-06 15:05:00,
2013-01-06 10:06:00,43.9,27.4,30.09,SSW,193,6.0,10.0,52,0.00,,---,0.01,VWS V14.01,2013-01-06 15:06:00,
2013-01-06 10:07:00,44.1,27.1,30.09,SSW,211,7.0,8.0,51,0.00,,---,0.01,VWS V14.01,2013-01-06 15:07:00,
2013-01-06 10:08:00,43.9,27.0,30.09,SSE,165,5.0,9.0,51,0.00,,---,0.01,VWS V14.01,2013-01-06 15:08:00,
2013-01-06 10:09:00,43.9,27.4,30.09,SSE,154,4.0,6.0,52,0.00,,---,0.01,VWS V14.01,2013-01-06 15:09:00,
2013-01-06 10:10:00,44.1,27.6,30.09,SE,146,4.0,5.0,52,0.00,,---,0.01,VWS V14.01,2013-01-06 15:10:00,
2013-01-06 10:11:00,44.1,27.1,30.09,South,174,6.0,6.0,51,0.00,,---,0.01,VWS V14.01,2013-01-06 15:11:00,
2013-01-06 10:12:00,44.1,26.7,30.09,SSE,167,4.0,6.0,50,0.00,,---,0.01,VWS V14.01,2013-01-06 15:12:00,
2013-01-06 10:13:00,44.1,27.6,30.09,South,175,5.0,5.0,52,0.00,,---,0.01,VWS V14.01,2013-01-06 15:13:00,
2013-01-06 10:14:00,43.9,27.0,30.09,South,185,7.0,8.0,51,0.00,,---,0.01,VWS V14.01,2013-01-06 15:14:00,
2013-01-06 10:15:00,43.9,27.0,30.10,SSW,207,5.0,8.0,51,0.00,,---,0.01,VWS V14.01,2013-01-06 15:15:00,
2013-01-06 10:16:00,43.8,26.4,30.10,SSW,194,2.0,7.0,50,0.00,,---,0.01,VWS V14.01,2013-01-06 15:16:00,
2013-01-06 10:17:00,43.6,26.2,30.10,South,180,2.0,6.0,50,0.00,,---,0.01,VWS V14.01,2013-01-06 15:17:00,
2013-01-06 10:18:00,43.8,26.9,30.10,South,185,6.0,6.0,51,0.00,,---,0.01,VWS V14.01,2013-01-06 15:18:00,
2013-01-06 10:19:00,43.8,26.9,30.10,SSW,197,2.0,6.0,51,0.00,,---,0.01,VWS V14.01,2013-01-06 15:19:00,
2013-01-06 10:20:00,43.8,26.9,30.10,WSW,247,4.0,5.0,51,0.00,,---,0.01,VWS V14.01,2013-01-06 15:20:00,
2013-01-06 10:21:00,43.6,27.1,30.10,South,188,4.0,8.0,52,0.00,,---,0.01,VWS V14.01,2013-01-06 15:21:00,
2013-01-06 10:22:00,43.6,27.1,30.10,South,183,8.0,8.0,52,0.00,,---,0.01,VWS V14.01,2013-01-06 15:22:00,
2013-01-06 10:23:00,43.5,26.1,30.10,SSW,194,3.0,8.0,50,0.00,,---,0.01,VWS V14.01,2013-01-06 15:23:00,
2013-01-06 10:24:00,43.5,26.1,30.10,South,190,7.0,8.0,50,0.00,,---,0.01,VWS V14.01,2013-01-06 15:24:00,
2013-01-06 10:25:00,43.5,26.1,30.10,South,190,9.0,9.0,50,0.00,,---,0.01,VWS V14.01,2013-01-06 15:25:00,
2013-01-06 10:26:00,43.5,26.6,30.10,South,169,2.0,5.0,51,0.00,,---,0.01,VWS V14.01,2013-01-06 15:26:00,
2013-01-06 10:27:00,43.5,26.1,30.10,South,178,5.0,7.0,50,0.00,,---,0.01,VWS V14.01,2013-01-06 15:27:00,
2013-01-06 10:28:00,43.6,26.2,30.10,SE,142,1.0,5.0,50,0.00,,---,0.01,VWS V14.01,2013-01-06 15:28:00,
2013-01-06 10:29:00,43.8,26.4,30.10,SE,144,2.0,2.0,50,0.00,,---,0.01,VWS V14.01,2013-01-06 15:29:00,
2013-01-06 10:30:00,43.8,26.9,30.09,SE,130,0.0,4.0,51,0.00,,---,0.01,VWS V14.01,2013-01-06 15:30:00,
2013-01-06 10:31:00,44.1,27.1,30.09,South,171,1.0,4.0,51,0.00,,---,0.01,VWS V14.01,2013-01-06 15:31:00,
2013-01-06 10:32:00,44.1,26.7,30.09,SE,140,4.0,7.0,50,0.00,,---,0.01,VWS V14.01,2013-01-06 15:32:00,
2013-01-06 10:33:00,44.2,26.8,30.09,SSE,156,5.0,6.0,50,0.00,,---,0.01,VWS V14.01,2013-01-06 15:33:00,
2013-01-06 10:34:00,44.2,27.2,30.09,SSE,155,0.0,6.0,51,0.00,,---,0.01,VWS V14.01,2013-01-06 15:34:00,
2013-01-06 10:35:00,44.2,27.2,30.09,SSE,155,0.0,0.0,51,0.00,,---,0.01,VWS V14.01,2013-01-06 15:35:00,
2013-01-06 10:36:00,44.2,26.8,30.09,SE,134,5.0,5.0,50,0.00,,---,0.01,VWS V14.01,2013-01-06 15:36:00,
2013-01-06 10:37:00,44.3,26.9,30.09,SSE,147,4.0,5.0,50,0.00,,---,0.01,VWS V14.01,2013-01-06 15:37:00,
2013-01-06 10:38:00,44.2,26.3,30.09,South,188,6.0,7.0,49,0.00,,---,0.01,VWS V14.01,2013-01-06 15:38:00,
2013-01-06 10:39:00,44.1,26.2,30.09,South,177,4.0,6.0,49,0.00,,---,0.01,VWS V14.01,2013-01-06 15:39:00,
2013-01-06 10:40:00,44.1,27.1,30.09,SSE,158,2.0,4.0,51,0.00,,---,0.01,VWS V14.01,2013-01-06 15:40:00,
2013-01-06 10:41:00,43.9,26.5,30.09,SSW,192,5.0,8.0,50,0.00,,---,0.01,VWS V14.01,2013-01-06 15:41:00,
2013-01-06 10:42:00,43.8,26.4,30.09,South,182,6.0,7.0,50,0.00,,---,0.01,VWS V14.01,2013-01-06 15:42:00,
2013-01-06 10:43:00,43.8,26.4,30.09,SE,126,4.0,6.0,50,0.00,,---,0.01,VWS V14.01,2013-01-06 15:43:00,
2013-01-06 10:44:00,43.8,27.3,30.09,SE,127,2.0,4.0,52,0.00,,---,0.01,VWS V14.01,2013-01-06 15:44:00,
2013-01-06 10:45:00,43.8,27.3,30.09,SE,131,2.0,2.0,52,0.00,,---,0.01,VWS V14.01,2013-01-06 15:45:00,
2013-01-06 10:46:00,43.6,26.2,30.09,SSE,157,1.0,5.0,50,0.00,,---,0.01,VWS V14.01,2013-01-06 15:46:00,
2013-01-06 10:47:00,43.6,26.7,30.09,SSE,157,4.0,6.0,51,0.00,,---,0.01,VWS V14.01,2013-01-06 15:47:00,
2013-01-06 10:48:00,43.6,26.2,30.09,SSE,167,0.0,5.0,50,0.00,,---,0.01,VWS V14.01,2013-01-06 15:48:00,
2013-01-06 10:49:00,43.8,26.9,30.09,SSE,167,0.0,1.0,51,0.00,,---,0.01,VWS V14.01,2013-01-06 15:49:00,
2013-01-06 10:50:00,43.8,26.9,30.09,SSE,164,5.0,5.0,51,0.00,,---,0.01,VWS V14.01,2013-01-06 15:50:00,
2013-01-06 10:51:00,44.1,27.1,30.09,SSE,163,3.0,4.0,51,0.00,,---,0.01,VWS V14.01,2013-01-06 15:51:00,
2013-01-06 10:52:00,44.1,27.1,30.09,SSE,159,2.0,3.0,51,0.00,,---,0.01,VWS V14.01,2013-01-06 15:52:00,
2013-01-06 10:53:00,44.1,27.1,30.09,SE,136,3.0,4.0,51,0.00,,---,0.01,VWS V14.01,2013-01-06 15:53:00,
2013-01-06 10:54:00,44.2,26.8,30.09,SE,137,5.0,6.0,50,0.00,,---,0.01,VWS V14.01,2013-01-06 15:54:00,
2013-01-06 10:55:00,44.2,26.8,30.09,SE,132,2.0,7.0,50,0.00,,---,0.01,VWS V14.01,2013-01-06 15:55:00,
2013-01-06 10:56:00,44.5,27.5,30.09,SE,143,5.0,8.0,51,0.00,,---,0.01,VWS V14.01,2013-01-06 15:56:00,
2013-01-06 10:57:00,44.6,27.6,30.09,SE,141,2.0,6.0,51,0.00,,---,0.01,VWS V14.01,2013-01-06 15:57:00,
2013-01-06 10:58:00,44.5,27.5,30.09,SSW,198,6.0,9.0,51,0.00,,---,0.01,VWS V14.01,2013-01-06 15:58:00,
2013-01-06 10:59:00,44.5,27.0,30.09,SE,138,4.0,6.0,50,0.00,,---,0.01,VWS V14.01,2013-01-06 15:59:00,
2013-01-06 11:00:00,44.5,27.0,30.08,ESE,113,7.0,7.0,50,0.00,,---,0.01,VWS V14.01,2013-01-06 16:00:00,
2013-01-06 11:01:00,44.5,27.5,30.08,South,180,5.0,5.0,51,0.00,,---,0.01,VWS V14.01,2013-01-06 16:01:00,
2013-01-06 11:02:00,44.5,26.5,30.08,South,182,6.0,8.0,49,0.00,,---,0.01,VWS V14.01,2013-01-06 16:02:00,
2013-01-06 11:03:00,44.3,26.4,30.08,East,98,3.0,6.0,49,0.00,,---,0.01,VWS V14.01,2013-01-06 16:03:00,
2013-01-06 11:04:00,44.3,26.9,30.08,SE,143,5.0,6.0,50,0.00,,---,0.01,VWS V14.01,2013-01-06 16:04:00,
2013-01-06 11:05:00,44.5,27.0,30.08,SSE,153,5.0,5.0,50,0.00,,---,0.01,VWS V14.01,2013-01-06 16:05:00,
2013-01-06 11:06:00,44.5,26.5,30.08,South,170,5.0,8.0,49,0.00,,---,0.01,VWS V14.01,2013-01-06 16:06:00,
2013-01-06 11:07:00,44.6,26.6,30.08,South,180,5.0,8.0,49,0.00,,---,0.01,VWS V14.01,2013-01-06 16:07:00,
2013-01-06 11:08:00,44.6,26.6,30.08,South,171,5.0,7.0,49,0.00,,---,0.01,VWS V14.01,2013-01-06 16:08:00,
2013-01-06 11:09:00,44.6,27.1,30.08,South,173,1.0,6.0,50,0.00,,---,0.01,VWS V14.01,2013-01-06 16:09:00,
2013-01-06 11:10:00,44.6,27.1,30.08,SSE,159,2.0,2.0,50,0.00,,---,0.01,VWS V14.01,2013-01-06 16:10:00,
2013-01-06 11:11:00,44.5,26.5,30.08,SW,229,1.0,7.0,49,0.00,,---,0.01,VWS V14.01,2013-01-06 16:11:00,
2013-01-06 11:12:00,44.5,26.5,30.08,SE,140,3.0,6.0,49,0.00,,---,0.01,VWS V14.01,2013-01-06 16:12:00,
2013-01-06 11:13:00,44.6,27.6,30.08,SE,130,1.0,6.0,51,0.00,,---,0.01,VWS V14.01,2013-01-06 16:13:00,
2013-01-06 11:14:00,44.8,28.3,30.08,SE,130,0.0,2.0,52,0.00,,---,0.01,VWS V14.01,2013-01-06 16:14:00,
2013-01-06 11:15:00,44.8,28.3,30.06,SE,134,2.0,2.0,52,0.00,,---,0.01,VWS V14.01,2013-01-06 16:15:00,
2013-01-06 11:16:00,44.6,28.1,30.06,SE,138,5.0,6.0,52,0.00,,---,0.01,VWS V14.01,2013-01-06 16:16:00,
2013-01-06 11:17:00,44.8,28.3,30.06,SE,137,0.0,7.0,52,0.00,,---,0.01,VWS V14.01,2013-01-06 16:17:00,
2013-01-06 11:18:00,44.8,28.3,30.06,WSW,246,6.0,7.0,52,0.00,,---,0.01,VWS V14.01,2013-01-06 16:18:00,
2013-01-06 11:19:00,44.8,26.8,30.06,West,261,2.0,6.0,49,0.00,,---,0.01,VWS V14.01,2013-01-06 16:19:00,
2013-01-06 11:20:00,44.8,26.8,30.06,SW,219,3.0,3.0,49,0.00,,---,0.01,VWS V14.01,2013-01-06 16:20:00,
2013-01-06 11:21:00,44.8,27.3,30.06,SSW,201,1.0,4.0,50,0.00,,---,0.01,VWS V14.01,2013-01-06 16:21:00,
2013-01-06 11:22:00,44.6,26.6,30.06,SW,219,4.0,5.0,49,0.00,,---,0.01,VWS V14.01,2013-01-06 16:22:00,
2013-01-06 11:23:00,44.6,26.1,30.06,SW,219,2.0,4.0,48,0.00,,---,0.01,VWS V14.01,2013-01-06 16:23:00,
2013-01-06 11:24:00,44.5,27.0,30.06,SW,219,0.0,3.0,50,0.00,,---,0.01,VWS V14.01,2013-01-06 16:24:00,
2013-01-06 11:25:00,44.5,27.0,30.06,SW,219,0.0,1.0,50,0.00,,---,0.01,VWS V14.01,2013-01-06 16:25:00,
2013-01-06 11:26:00,44.5,26.5,30.06,SW,219,2.0,2.0,49,0.00,,---,0.01,VWS V14.01,2013-01-06 16:26:00,
2013-01-06 11:27:00,44.6,26.6,30.06,SSW,211,0.0,2.0,49,0.00,,---,0.01,VWS V14.01,2013-01-06 16:27:00,
2013-01-06 11:28:00,44.8,28.7,30.06,SW,225,6.0,6.0,53,0.00,,---,0.01,VWS V14.01,2013-01-06 16:28:00,
2013-01-06 11:29:00,44.9,26.9,30.06,WSW,244,4.0,7.0,49,0.00,,---,0.01,VWS V14.01,2013-01-06 16:29:00,
2013-01-06 11:30:00,44.9,26.9,30.06,WSW,244,5.0,5.0,49,0.00,,---,0.01,VWS V14.01,2013-01-06 16:30:00,
2013-01-06 11:31:00,44.9,26.4,30.06,SSW,204,5.0,5.0,48,0.00,,---,0.01,VWS V14.01,2013-01-06 16:31:00,
2013-01-06 11:32:00,44.9,26.4,30.06,South,182,4.0,6.0,48,0.00,,---,0.01,VWS V14.01,2013-01-06 16:32:00,
2013-01-06 11:33:00,44.9,26.9,30.06,South,190,6.0,7.0,49,0.00,,---,0.01,VWS V14.01,2013-01-06 16:33:00,
2013-01-06 11:34:00,44.8,26.3,30.06,South,174,1.0,6.0,48,0.00,,---,0.01,VWS V14.01,2013-01-06 16:34:00,
2013-01-06 11:35:00,44.8,26.3,30.06,South,174,2.0,2.0,48,0.00,,---,0.01,VWS V14.01,2013-01-06 16:35:00,
2013-01-06 11:36:00,44.6,26.1,30.06,SSW,208,4.0,6.0,48,0.00,,---,0.01,VWS V14.01,2013-01-06 16:36:00,
2013-01-06 11:37:00,44.6,27.6,30.06,SSW,208,2.0,4.0,51,0.00,,---,0.01,VWS V14.01,2013-01-06 16:37:00,
2013-01-06 11:38:00,44.5,26.5,30.06,SW,236,1.0,7.0,49,0.00,,---,0.01,VWS V14.01,2013-01-06 16:38:00,
2013-01-06 11:39:00,44.5,26.5,30.06,South,188,7.0,7.0,49,0.00,,---,0.01,VWS V14.01,2013-01-06 16:39:00,
2013-01-06 11:40:00,44.5,27.0,30.06,South,175,7.0,8.0,50,0.00,,---,0.01,VWS V14.01,2013-01-06 16:40:00,
2013-01-06 11:41:00,44.5,26.5,30.06,SE,133,6.0,8.0,49,0.00,,---,0.01,VWS V14.01,2013-01-06 16:41:00,
2013-01-06 11:42:00,44.5,26.5,30.06,SE,135,4.0,8.0,49,0.00,,---,0.01,VWS V14.01,2013-01-06 16:42:00,
2013-01-06 11:43:00,44.8,26.8,30.06,SE,140,6.0,7.0,49,0.00,,---,0.01,VWS V14.01,2013-01-06 16:43:00,
2013-01-06 11:44:00,44.9,26.9,30.06,SSW,198,4.0,10.0,49,0.00,,---,0.01,VWS V14.01,2013-01-06 16:44:00,
2013-01-06 11:45:00,44.9,26.9,30.05,South,189,6.0,6.0,49,0.00,,---,0.01,VWS V14.01,2013-01-06 16:45:00,
2013-01-06 11:46:00,44.8,26.3,30.05,SSW,192,4.0,6.0,48,0.00,,---,0.01,VWS V14.01,2013-01-06 16:46:00,
2013-01-06 11:47:00,44.6,26.1,30.05,SSW,192,1.0,4.0,48,0.00,,---,0.01,VWS V14.01,2013-01-06 16:47:00,
2013-01-06 11:48:00,44.6,26.1,30.05,WNW,290,2.0,6.0,48,0.00,,---,0.01,VWS V14.01,2013-01-06 16:48:00,
2013-01-06 11:49:00,44.5,26.5,30.05,South,187,5.0,5.0,49,0.00,,---,0.01,VWS V14.01,2013-01-06 16:49:00,
2013-01-06 11:50:00,44.5,26.5,30.05,South,171,5.0,8.0,49,0.00,,---,0.01,VWS V14.01,2013-01-06 16:50:00,
2013-01-06 11:51:00,44.3,26.4,30.05,SW,229,5.0,7.0,49,0.00,,---,0.01,VWS V14.01,2013-01-06 16:51:00,
2013-01-06 11:52:00,44.2,26.3,30.05,South,190,5.0,7.0,49,0.00,,---,0.01,VWS V14.01,2013-01-06 16:52:00,
2013-01-06 11:53:00,44.2,26.8,30.05,SW,217,1.0,8.0,50,0.00,,---,0.01,VWS V14.01,2013-01-06 16:53:00,
2013-01-06 11:54:00,44.2,26.3,30.05,SSW,204,3.0,6.0,49,0.00,,---,0.01,VWS V14.01,2013-01-06 16:54:00,
2013-01-06 11:55:00,44.2,26.3,30.05,SSW,204,1.0,3.0,49,0.00,,---,0.01,VWS V14.01,2013-01-06 16:55:00,
2013-01-06 11:56:00,44.1,26.7,30.05,SSW,203,3.0,3.0,50,0.00,,---,0.01,VWS V14.01,2013-01-06 16:56:00,
2013-01-06 11:57:00,44.1,25.7,30.05,SSW,201,0.0,5.0,48,0.00,,---,0.01,VWS V14.01,2013-01-06 16:57:00,
2013-01-06 11:58:00,44.1,26.2,30.05,South,170,2.0,4.0,49,0.00,,---,0.01,VWS V14.01,2013-01-06 16:58:00,
2013-01-06 11:59:00,44.2,26.3,30.05,South,170,0.0,2.0,49,0.00,,---,0.01,VWS V14.01,2013-01-06 16:59:00,
2013-01-06 12:00:00,44.2,26.3,30.04,South,170,0.0,0.0,49,0.00,,---,0.01,VWS V14.01,2013-01-06 17:00:00,
2013-01-06 12:01:00,44.2,26.3,30.04,SW,235,4.0,8.0,49,0.00,,---,0.01,VWS V14.01,2013-01-06 17:01:00,
2013-01-06 12:02:00,44.3,26.4,30.04,West,267,1.0,6.0,49,0.00,,---,0.01,VWS V14.01,2013-01-06 17:02:00,
2013-01-06 12:03:00,44.5,27.0,30.04,SW,219,4.0,9.0,50,0.00,,---,0.01,VWS V14.01,2013-01-06 17:03:00,
2013-01-06 12:04:00,44.6,27.6,30.04,South,180,4.0,6.0,51,0.00,,---,0.01,VWS V14.01,2013-01-06 17:04:00,
2013-01-06 12:05:00,44.6,27.6,30.04,South,183,5.0,5.0,51,0.00,,---,0.01,VWS V14.01,2013-01-06 17:05:00,
2013-01-06 12:06:00,44.8,26.3,30.04,South,173,1.0,4.0,48,0.00,,---,0.01,VWS V14.01,2013-01-06 17:06:00,
2013-01-06 12:07:00,44.9,26.9,30.04,ESE,121,4.0,8.0,49,0.00,,---,0.01,VWS V14.01,2013-01-06 17:07:00,
2013-01-06 12:08:00,45.1,27.1,30.04,South,180,5.0,8.0,49,0.00,,---,0.01,VWS V14.01,2013-01-06 17:08:00,
2013-01-06 12:09:00,45.2,26.7,30.04,South,182,5.0,7.0,48,0.00,,---,0.01,VWS V14.01,2013-01-06 17:09:00,
2013-01-06 12:10:00,45.2,26.7,30.04,South,182,5.0,6.0,48,0.00,,---,0.01,VWS V14.01,2013-01-06 17:10:00,
2013-01-06 12:11:00,45.4,26.9,30.04,South,178,0.0,4.0,48,0.00,,---,0.01,VWS V14.01,2013-01-06 17:11:00,
2013-01-06 12:12:00,45.4,26.9,30.04,South,190,3.0,4.0,48,0.00,,---,0.01,VWS V14.01,2013-01-06 17:12:00,
2013-01-06 12:13:00,45.2,26.2,30.04,SSW,199,5.0,5.0,47,0.00,,---,0.01,VWS V14.01,2013-01-06 17:13:00,
2013-01-06 12:14:00,45.2,26.7,30.04,South,180,5.0,6.0,48,0.00,,---,0.01,VWS V14.01,2013-01-06 17:14:00,
2013-01-06 12:15:00,45.1,26.6,30.03,SSW,194,4.0,7.0,48,0.00,,---,0.01,VWS V14.01,2013-01-06 17:15:00,
2013-01-06 12:16:00,45.1,28.1,30.03,South,188,1.0,4.0,51,0.00,,---,0.01,VWS V14.01,2013-01-06 17:16:00,
2013-01-06 12:17:00,45.1,27.1,30.03,SW,217,3.0,6.0,49,0.00,,---,0.01,VWS V14.01,2013-01-06 17:17:00,
2013-01-06 12:18:00,45.1,27.1,30.03,SW,217,3.0,4.0,49,0.00,,---,0.01,VWS V14.01,2013-01-06 17:18:00,
2013-01-06 12:19:00,45.1,26.6,30.03,SW,234,6.0,7.0,48,0.00,,---,0.01,VWS V14.01,2013-01-06 17:19:00,
2013-01-06 12:20:00,44.9,26.4,30.03,SSW,203,5.0,6.0,48,0.00,,---,0.01,VWS V14.01,2013-01-06 17:20:00,
2013-01-06 12:21:00,44.9,26.9,30.03,South,175,3.0,3.0,49,0.00,,---,0.01,VWS V14.01,2013-01-06 17:21:00,
2013-01-06 12:22:00,44.8,26.8,30.03,South,191,2.0,6.0,49,0.00,,---,0.01,VWS V14.01,2013-01-06 17:22:00,
2013-01-06 12:23:00,44.8,26.8,30.03,SSW,199,2.0,5.0,49,0.00,,---,0.01,VWS V14.01,2013-01-06 17:23:00,
2013-01-06 12:24:00,44.6,26.6,30.03,South,190,5.0,6.0,49,0.00,,---,0.01,VWS V14.01,2013-01-06 17:24:00,
2013-01-06 12:25:00,44.6,26.6,30.03,South,190,4.0,5.0,49,0.00,,---,0.01,VWS V14.01,2013-01-06 17:25:00,
2013-01-06 12:26:00,44.5,26.0,30.03,South,190,2.0,4.0,48,0.00,,---,0.01,VWS V14.01,2013-01-06 17:26:00,
2013-01-06 12:27:00,44.5,27.0,30.03,South,190,0.0,2.0,50,0.00,,---,0.01,VWS V14.01,2013-01-06 17:27:00,
2013-01-06 12:28:00,44.5,26.5,30.03,South,190,5.0,5.0,49,0.00,,---,0.01,VWS V14.01,2013-01-06 17:28:00,
2013-01-06 12:29:00,44.5,26.5,30.03,South,190,5.0,5.0,49,0.00,,---,0.01,VWS V14.01,2013-01-06 17:29:00,
2013-01-06 12:30:00,44.5,26.5,30.02,SSW,192,5.0,5.0,49,0.00,,---,0.01,VWS V14.01,2013-01-06 17:30:00,
2013-01-06 12:31:00,44.5,26.0,30.02,South,179,4.0,8.0,48,0.00,,---,0.01,VWS V14.01,2013-01-06 17:31:00,
2013-01-06 12:32:00,44.3,25.9,30.02,South,186,2.0,4.0,48,0.00,,---,0.01,VWS V14.01,2013-01-06 17:32:00,
2013-01-06 12:33:00,44.5,27.0,30.02,South,186,2.0,4.0,50,0.00,,---,0.01,VWS V14.01,2013-01-06 17:33:00,
2013-01-06 12:34:00,44.5,26.5,30.02,West,259,7.0,7.0,49,0.00,,---,0.01,VWS V14.01,2013-01-06 17:34:00,
2013-01-06 12:35:00,44.5,26.5,30.02,WSW,258,3.0,7.0,49,0.00,,---,0.01,VWS V14.01,2013-01-06 17:35:00,
2013-01-06 12:36:00,44.5,26.0,30.02,West,273,4.0,5.0,48,0.00,,---,0.01,VWS V14.01,2013-01-06 17:36:00,
2013-01-06 12:37:00,44.5,26.5,30.02,SSW,212,5.0,6.0,49,0.00,,---,0.01,VWS V14.01,2013-01-06 17:37:00,
2013-01-06 12:38:00,44.5,26.0,30.02,WSW,242,0.0,5.0,48,0.00,,---,0.01,VWS V14.01,2013-01-06 17:38:00,
2013-01-06 12:39:00,44.5,26.5,30.02,WSW,242,2.0,5.0,49,0.00,,---,0.01,VWS V14.01,2013-01-06 17:39:00,
2013-01-06 12:40:00,44.5,26.5,30.02,WSW,239,2.0,2.0,49,0.00,,---,0.01,VWS V14.01,2013-01-06 17:40:00,
2013-01-06 12:41:00,44.6,26.1,30.02,SSW,208,4.0,10.0,48,0.00,,---,0.01,VWS V14.01,2013-01-06 17:41:00,
2013-01-06 12:42:00,44.6,26.6,30.02,SSW,196,5.0,8.0,49,0.00,,---,0.01,VWS V14.01,2013-01-06 17:42:00,
2013-01-06 12:43:00,44.6,26.1,30.02,SW,222,2.0,5.0,48,0.00,,---,0.01,VWS V14.01,2013-01-06 17:43:00,
2013-01-06 12:44:00,44.6,27.1,30.02,SW,224,5.0,5.0,50,0.00,,---,0.01,VWS V14.01,2013-01-06 17:44:00,
2013-01-06 12:45:00,44.6,27.1,30.02,SW,223,3.0,5.0,50,0.00,,---,0.01,VWS V14.01,2013-01-06 17:45:00,
2013-01-06 12:46:00,44.6,26.6,30.02,WSW,246,4.0,7.0,49,0.00,,---,0.01,VWS V14.01,2013-01-06 17:46:00,
2013-01-06 12:47:00,44.6,26.6,30.02,WSW,248,1.0,7.0,49,0.00,,---,0.01,VWS V14.01,2013-01-06 17:47:00,
2013-01-06 12:48:00,44.6,27.1,30.02,SSW,194,6.0,7.0,50,0.00,,---,0.01,VWS V14.01,2013-01-06 17:48:00,
2013-01-06 12:49:00,44.6,26.6,30.02,SSE,159,0.0,6.0,49,0.00,,---,0.01,VWS V14.01,2013-01-06 17:49:00,
2013-01-06 12:50:00,44.6,27.6,30.02,SSE,159,0.0,1.0,51,0.00,,---,0.01,VWS V14.01,2013-01-06 17:50:00,
2013-01-06 12:51:00,44.6,26.6,30.02,ESE,103,5.0,7.0,49,0.00,,---,0.01,VWS V14.01,2013-01-06 17:51:00,
2013-01-06 12:52:00,44.6,26.6,30.02,East,99,4.0,6.0,49,0.00,,---,0.01,VWS V14.01,2013-01-06 17:52:00,
2013-01-06 12:53:00,44.6,27.1,30.02,SSW,194,2.0,8.0,50,0.00,,---,0.01,VWS V14.01,2013-01-06 17:53:00,
2013-01-06 12:54:00,44.5,26.5,30.02,West,261,1.0,7.0,49,0.00,,---,0.01,VWS V14.01,2013-01-06 17:54:00,
2013-01-06 12:55:00,44.5,26.5,30.02,SSW,208,7.0,7.0,49,0.00,,---,0.01,VWS V14.01,2013-01-06 17:55:00,
2013-01-06 12:56:00,44.5,27.0,30.02,SSW,205,0.0,4.0,50,0.00,,---,0.01,VWS V14.01,2013-01-06 17:56:00,
2013-01-06 12:57:00,44.5,28.0,30.02,SSE,155,8.0,8.0,52,0.00,,---,0.01,VWS V14.01,2013-01-06 17:57:00,
2013-01-06 12:58:00,44.5,26.5,30.02,SSW,196,2.0,8.0,49,0.00,,---,0.01,VWS V14.01,2013-01-06 17:58:00,
2013-01-06 12:59:00,44.3,26.9,30.02,SSW,196,4.0,7.0,50,0.00,,---,0.01,VWS V14.01,2013-01-06 17:59:00,
2013-01-06 13:00:00,44.3,26.9,30.01,SSW,196,1.0,4.0,50,0.00,,---,0.01,VWS V14.01,2013-01-06 18:00:00,
2013-01-06 13:01:00,44.3,26.4,30.01,South,184,0.0,6.0,49,0.00,,---,0.01,VWS V14.01,2013-01-06 18:01:00,
2013-01-06 13:02:00,44.3,26.9,30.01,SSW,192,4.0,6.0,50,0.00,,---,0.01,VWS V14.01,2013-01-06 18:02:00,
2013-01-06 13:03:00,44.3,26.4,30.01,SSW,204,5.0,6.0,49,0.00,,---,0.01,VWS V14.01,2013-01-06 18:03:00,
2013-01-06 13:04:00,44.3,26.9,30.01,NW,312,2.0,5.0,50,0.00,,---,0.01,VWS V14.01,2013-01-06 18:04:00,
2013-01-06 13:05:00,44.3,26.9,30.01,WNW,303,1.0,2.0,50,0.00,,---,0.01,VWS V14.01,2013-01-06 18:05:00,
2013-01-06 13:06:00,44.3,26.9,30.01,SSW,209,2.0,6.0,50,0.00,,---,0.01,VWS V14.01,2013-01-06 18:06:00,
2013-01-06 13:07:00,44.3,26.9,30.01,WSW,238,5.0,5.0,50,0.00,,---,0.01,VWS V14.01,2013-01-06 18:07:00,
2013-01-06 13:08:00,44.3,26.9,30.01,SSE,157,5.0,6.0,50,0.00,,---,0.01,VWS V14.01,2013-01-06 18:08:00,
2013-01-06 13:09:00,44.3,26.9,30.01,SSW,204,6.0,6.0,50,0.00,,---,0.01,VWS V14.01,2013-01-06 18:09:00,
2013-01-06 13:10:00,44.3,26.9,30.01,South,190,4.0,6.0,50,0.00,,---,0.01,VWS V14.01,2013-01-06 18:10:00,
2013-01-06 13:11:00,44.2,26.8,30.01,South,178,4.0,9.0,50,0.00,,---,0.01,VWS V14.01,2013-01-06 18:11:00,
2013-01-06 13:12:00,44.2,26.8,30.01,SSE,165,2.0,4.0,50,0.00,,---,0.01,VWS V14.01,2013-01-06 18:12:00,
2013-01-06 13:13:00,44.3,26.9,30.01,SSE,167,1.0,3.0,50,0.00,,---,0.01,VWS V14.01,2013-01-06 18:13:00,
2013-01-06 13:14:00,44.2,26.8,30.01,WSW,248,2.0,5.0,50,0.00,,---,0.01,VWS V14.01,2013-01-06 18:14:00,
2013-01-06 13:15:00,44.2,26.8,30.01,WSW,248,2.0,2.0,50,0.00,,---,0.01,VWS V14.01,2013-01-06 18:15:00,
2013-01-06 13:16:00,44.3,26.9,30.01,WSW,246,1.0,4.0,50,0.00,,---,0.01,VWS V14.01,2013-01-06 18:16:00,
2013-01-06 13:17:00,44.3,26.9,30.01,WSW,246,0.0,1.0,50,0.00,,---,0.01,VWS V14.01,2013-01-06 18:17:00,
2013-01-06 13:18:00,44.3,27.8,30.01,WSW,246,0.0,4.0,52,0.00,,---,0.01,VWS V14.01,2013-01-06 18:18:00,
2013-01-06 13:19:00,44.3,26.9,30.01,South,178,2.0,7.0,50,0.00,,---,0.01,VWS V14.01,2013-01-06 18:19:00,
2013-01-06 13:20:00,44.3,26.9,30.01,South,178,0.0,2.0,50,0.00,,---,0.01,VWS V14.01,2013-01-06 18:20:00,
2013-01-06 13:21:00,44.3,27.3,30.01,South,187,7.0,7.0,51,0.00,,---,0.01,VWS V14.01,2013-01-06 18:21:00,
2013-01-06 13:22:00,44.3,26.9,30.01,SW,221,3.0,9.0,50,0.00,,---,0.01,VWS V14.01,2013-01-06 18:22:00,
2013-01-06 13:23:00,44.3,26.9,30.01,SSW,198,4.0,8.0,50,0.00,,---,0.01,VWS V14.01,2013-01-06 18:23:00,
2013-01-06 13:24:00,44.3,26.4,30.01,SW,225,7.0,9.0,49,0.00,,---,0.01,VWS V14.01,2013-01-06 18:24:00,
2013-01-06 13:25:00,44.3,26.9,30.01,WSW,238,6.0,7.0,50,0.00,,---,0.01,VWS V14.01,2013-01-06 18:25:00,
2013-01-06 13:26:00,44.3,26.4,30.01,SW,214,7.0,7.0,49,0.00,,---,0.01,VWS V14.01,2013-01-06 18:26:00,
2013-01-06 13:27:00,44.3,26.9,30.01,WSW,244,1.0,7.0,50,0.00,,---,0.01,VWS V14.01,2013-01-06 18:27:00,
2013-01-06 13:28:00,44.3,26.9,30.01,South,187,1.0,6.0,50,0.00,,---,0.01,VWS V14.01,2013-01-06 18:28:00,
2013-01-06 13:29:00,44.3,26.9,30.01,South,183,0.0,2.0,50,0.00,,---,0.01,VWS V14.01,2013-01-06 18:29:00,
2013-01-06 13:30:00,44.3,26.9,30.00,South,183,0.0,0.0,50,0.00,,---,0.01,VWS V14.01,2013-01-06 18:30:00,
2013-01-06 13:31:00,44.3,27.3,30.00,South,176,3.0,9.0,51,0.00,,---,0.01,VWS V14.01,2013-01-06 18:31:00,
2013-01-06 13:32:00,44.3,26.9,30.00,South,182,6.0,9.0,50,0.00,,---,0.01,VWS V14.01,2013-01-06 18:32:00,
2013-01-06 13:33:00,44.3,26.9,30.00,SSE,155,5.0,10.0,50,0.00,,---,0.01,VWS V14.01,2013-01-06 18:33:00,
2013-01-06 13:34:00,44.3,26.9,30.00,South,173,3.0,8.0,50,0.00,,---,0.01,VWS V14.01,2013-01-06 18:34:00,
2013-01-06 13:35:00,44.3,26.9,30.00,South,173,3.0,4.0,50,0.00,,---,0.01,VWS V14.01,2013-01-06 18:35:00,
2013-01-06 13:36:00,44.3,26.9,30.00,SSE,161,0.0,4.0,50,0.00,,---,0.01,VWS V14.01,2013-01-06 18:36:00,
2013-01-06 13:37:00,44.3,27.3,30.00,SSW,200,5.0,5.0,51,0.00,,---,0.01,VWS V14.01,2013-01-06 18:37:00,
2013-01-06 13:38:00,44.3,26.9,30.00,South,188,5.0,7.0,50,0.00,,---,0.01,VWS V14.01,2013-01-06 18:38:00,
2013-01-06 13:39:00,44.3,27.3,30.00,South,188,4.0,6.0,51,0.00,,---,0.01,VWS V14.01,2013-01-06 18:39:00,
2013-01-06 13:40:00,44.3,27.3,30.00,SSE,151,6.0,6.0,51,0.00,,---,0.01,VWS V14.01,2013-01-06 18:40:00,
2013-01-06 13:41:00,44.3,27.3,30.00,SSW,209,4.0,6.0,51,0.00,,---,0.01,VWS V14.01,2013-01-06 18:41:00,
2013-01-06 13:42:00,44.3,26.9,30.00,SSE,162,2.0,6.0,50,0.00,,---,0.01,VWS V14.01,2013-01-06 18:42:00,
2013-01-06 13:43:00,44.5,27.0,30.00,West,273,4.0,6.0,50,0.00,,---,0.01,VWS V14.01,2013-01-06 18:43:00,
2013-01-06 13:44:00,44.3,27.3,30.00,SW,233,0.0,6.0,51,0.00,,---,0.01,VWS V14.01,2013-01-06 18:44:00,
2013-01-06 13:45:00,44.3,27.3,30.00,SW,233,0.0,0.0,51,0.00,,---,0.01,VWS V14.01,2013-01-06 18:45:00,
2013-01-06 13:46:00,44.3,26.9,30.00,SSE,153,0.0,4.0,50,0.00,,---,0.01,VWS V14.01,2013-01-06 18:46:00,
2013-01-06 13:47:00,44.3,26.9,30.00,SSE,153,1.0,6.0,50,0.00,,---,0.01,VWS V14.01,2013-01-06 18:47:00,
2013-01-06 13:48:00,44.3,26.9,30.00,South,171,5.0,8.0,50,0.00,,---,0.01,VWS V14.01,2013-01-06 18:48:00,
2013-01-06 13:49:00,44.3,26.9,30.00,SW,218,5.0,5.0,50,0.00,,---,0.01,VWS V14.01,2013-01-06 18:49:00,
2013-01-06 13:50:00,44.3,26.9,30.00,SW,218,3.0,5.0,50,0.00,,---,0.01,VWS V14.01,2013-01-06 18:50:00,
2013-01-06 13:51:00,44.3,27.8,30.00,South,183,9.0,9.0,52,0.00,,---,0.01,VWS V14.01,2013-01-06 18:51:00,
2013-01-06 13:52:00,44.3,26.9,30.00,SSW,196,6.0,10.0,50,0.00,,---,0.01,VWS V14.01,2013-01-06 18:52:00,
2013-01-06 13:53:00,44.3,26.9,30.00,South,180,9.0,9.0,50,0.00,,---,0.01,VWS V14.01,2013-01-06 18:53:00,
2013-01-06 13:54:00,44.2,26.8,30.00,SW,227,5.0,10.0,50,0.00,,---,0.01,VWS V14.01,2013-01-06 18:54:00,
2013-01-06 13:55:00,44.2,26.8,30.00,SW,227,4.0,5.0,50,0.00,,---,0.01,VWS V14.01,2013-01-06 18:55:00,
2013-01-06 13:56:00,44.2,27.2,30.00,WSW,244,1.0,6.0,51,0.00,,---,0.01,VWS V14.01,2013-01-06 18:56:00,
2013-01-06 13:57:00,44.2,27.2,30.00,WSW,238,5.0,6.0,51,0.00,,---,0.01,VWS V14.01,2013-01-06 18:57:00,
2013-01-06 13:58:00,44.2,26.8,30.00,SW,235,1.0,5.0,50,0.00,,---,0.01,VWS V14.01,2013-01-06 18:58:00,
2013-01-06 13:59:00,44.2,27.2,30.00,West,266,4.0,7.0,51,0.00,,---,0.01,VWS V14.01,2013-01-06 18:59:00,
2013-01-06 14:00:00,44.2,27.2,30.00,West,266,5.0,5.0,51,0.00,,---,0.01,VWS V14.01,2013-01-06 19:00:00,
2013-01-06 14:01:00,44.2,27.7,30.00,WSW,252,4.0,4.0,52,0.00,,---,0.01,VWS V14.01,2013-01-06 19:01:00,
2013-01-06 14:02:00,44.2,27.7,30.00,SW,221,2.0,4.0,52,0.00,,---,0.01,VWS V14.01,2013-01-06 19:02:00,
2013-01-06 14:03:00,44.2,27.2,30.00,SW,222,3.0,5.0,51,0.00,,---,0.01,VWS V14.01,2013-01-06 19:03:00,
2013-01-06 14:04:00,44.2,27.2,30.00,SW,219,2.0,5.0,51,0.00,,---,0.01,VWS V14.01,2013-01-06 19:04:00,
2013-01-06 14:05:00,44.2,27.2,30.00,SW,219,1.0,2.0,51,0.00,,---,0.01,VWS V14.01,2013-01-06 19:05:00,
2013-01-06 14:06:00,44.3,27.3,30.00,WSW,237,1.0,5.0,51,0.00,,---,0.01,VWS V14.01,2013-01-06 19:06:00,
2013-01-06 14:07:00,44.3,27.3,30.00,South,169,3.0,5.0,51,0.00,,---,0.01,VWS V14.01,2013-01-06 19:07:00,
2013-01-06 14:08:00,44.3,26.9,30.00,South,189,4.0,8.0,50,0.00,,---,0.01,VWS V14.01,2013-01-06 19:08:00,
2013-01-06 14:09:00,44.3,26.9,30.00,South,182,6.0,8.0,50,0.00,,---,0.01,VWS V14.01,2013-01-06 19:09:00,
2013-01-06 14:10:00,44.3,26.9,30.00,South,182,4.0,6.0,50,0.00,,---,0.01,VWS V14.01,2013-01-06 19:10:00,
2013-01-06 14:11:00,44.3,26.9,30.00,South,180,6.0,7.0,50,0.00,,---,0.01,VWS V14.01,2013-01-06 19:11:00,
2013-01-06 14:12:00,44.2,26.3,30.00,South,185,0.0,6.0,49,0.00,,---,0.01,VWS V14.01,2013-01-06 19:12:00,
2013-01-06 14:13:00,44.2,27.2,30.00,SSE,163,5.0,6.0,51,0.00,,---,0.01,VWS V14.01,2013-01-06 19:13:00,
2013-01-06 14:14:00,44.2,26.8,30.00,South,184,8.0,8.0,50,0.00,,---,0.01,VWS V14.01,2013-01-06 19:14:00,
2013-01-06 14:15:00,44.2,26.8,30.00,South,184,7.0,8.0,50,0.00,,---,0.01,VWS V14.01,2013-01-06 19:15:00,
2013-01-06 14:16:00,44.2,26.8,30.00,South,188,1.0,5.0,50,0.00,,---,0.01,VWS V14.01,2013-01-06 19:16:00,
2013-01-06 14:17:00,44.3,27.3,30.00,South,188,3.0,4.0,51,0.00,,---,0.01,VWS V14.01,2013-01-06 19:17:00,
2013-01-06 14:18:00,44.3,27.3,30.00,South,186,4.0,4.0,51,0.00,,---,0.01,VWS V14.01,2013-01-06 19:18:00,
2013-01-06 14:19:00,44.3,26.9,30.00,South,177,1.0,5.0,50,0.00,,---,0.01,VWS V14.01,2013-01-06 19:19:00,
2013-01-06 14:20:00,44.3,26.9,30.00,South,176,2.0,2.0,50,0.00,,---,0.01,VWS V14.01,2013-01-06 19:20:00,
2013-01-06 14:21:00,44.3,27.3,30.00,SW,234,4.0,5.0,51,0.00,,---,0.01,VWS V14.01,2013-01-06 19:21:00,
2013-01-06 14:22:00,44.5,27.0,30.00,West,270,3.0,7.0,50,0.00,,---,0.01,VWS V14.01,2013-01-06 19:22:00,
2013-01-06 14:23:00,44.5,27.0,30.00,South,178,5.0,7.0,50,0.00,,---,0.01,VWS V14.01,2013-01-06 19:23:00,
2013-01-06 14:24:00,44.5,28.0,30.00,South,182,0.0,5.0,52,0.00,,---,0.01,VWS V14.01,2013-01-06 19:24:00,
2013-01-06 14:25:00,44.5,28.0,30.00,South,182,0.0,0.0,52,0.00,,---,0.01,VWS V14.01,2013-01-06 19:25:00,
2013-01-06 14:26:00,44.5,27.5,30.00,South,182,0.0,0.0,51,0.00,,---,0.01,VWS V14.01,2013-01-06 19:26:00,
2013-01-06 14:27:00,44.6,27.6,30.00,South,182,0.0,1.0,51,0.00,,---,0.01,VWS V14.01,2013-01-06 19:27:00,
2013-01-06 14:28:00,44.6,27.6,30.00,South,184,0.0,4.0,51,0.00,,---,0.01,VWS V14.01,2013-01-06 19:28:00,
2013-01-06 14:29:00,44.8,27.3,30.00,SSW,207,10.0,10.0,50,0.00,,---,0.01,VWS V14.01,2013-01-06 19:29:00,
2013-01-06 14:30:00,44.8,27.3,30.00,SSW,207,10.0,10.0,50,0.00,,---,0.01,VWS V14.01,2013-01-06 19:30:00,
2013-01-06 14:31:00,45.1,27.1,29.99,SSW,196,1.0,5.0,49,0.00,,---,0.01,VWS V14.01,2013-01-06 19:31:00,
2013-01-06 14:32:00,45.2,28.6,29.99,SW,227,1.0,6.0,52,0.00,,---,0.01,VWS V14.01,2013-01-06 19:32:00,
2013-01-06 14:33:00,45.2,27.7,29.99,SSW,201,4.0,7.0,50,0.00,,---,0.01,VWS V14.01,2013-01-06 19:33:00,
2013-01-06 14:34:00,45.2,27.2,29.99,South,179,6.0,7.0,49,0.00,,---,0.01,VWS V14.01,2013-01-06 19:34:00,
2013-01-06 14:35:00,45.2,27.2,29.99,South,178,6.0,6.0,49,0.00,,---,0.01,VWS V14.01,2013-01-06 19:35:00,
2013-01-06 14:36:00,45.4,27.4,29.99,SSW,202,5.0,6.0,49,0.00,,---,0.01,VWS V14.01,2013-01-06 19:36:00,
2013-01-06 14:37:00,45.5,27.0,29.99,South,184,5.0,6.0,48,0.00,,---,0.01,VWS V14.01,2013-01-06 19:37:00,
2013-01-06 14:38:00,45.5,27.5,29.99,South,178,6.0,7.0,49,0.00,,---,0.01,VWS V14.01,2013-01-06 19:38:00,
2013-01-06 14:39:00,45.5,27.0,29.99,SSW,193,7.0,7.0,48,0.00,,---,0.01,VWS V14.01,2013-01-06 19:39:00,
2013-01-06 14:40:00,45.5,27.0,29.99,SSW,193,7.0,7.0,48,0.00,,---,0.01,VWS V14.01,2013-01-06 19:40:00,
2013-01-06 14:41:00,45.4,26.9,29.99,SSW,197,2.0,10.0,48,0.00,,---,0.01,VWS V14.01,2013-01-06 19:41:00,
2013-01-06 14:42:00,45.2,27.2,29.99,SSW,197,0.0,4.0,49,0.00,,---,0.01,VWS V14.01,2013-01-06 19:42:00,
2013-01-06 14:43:00,45.2,27.2,29.99,SSW,197,0.0,2.0,49,0.00,,---,0.01,VWS V14.01,2013-01-06 19:43:00,
2013-01-06 14:44:00,45.2,27.2,29.99,SE,126,7.0,8.0,49,0.00,,---,0.01,VWS V14.01,2013-01-06 19:44:00,
2013-01-06 14:45:00,45.2,27.2,29.99,SSW,192,7.0,7.0,49,0.00,,---,0.01,VWS V14.01,2013-01-06 19:45:00,
2013-01-06 14:46:00,45.1,27.1,29.99,WSW,249,5.0,8.0,49,0.00,,---,0.01,VWS V14.01,2013-01-06 19:46:00,
2013-01-06 14:47:00,45.1,27.6,29.99,WSW,249,4.0,6.0,50,0.00,,---,0.01,VWS V14.01,2013-01-06 19:47:00,
2013-01-06 14:48:00,45.1,27.1,29.99,WSW,248,1.0,4.0,49,0.00,,---,0.01,VWS V14.01,2013-01-06 19:48:00,
2013-01-06 14:49:00,45.1,27.1,29.99,SSW,207,3.0,9.0,49,0.00,,---,0.01,VWS V14.01,2013-01-06 19:49:00,
2013-01-06 14:50:00,45.1,27.1,29.99,SSW,208,3.0,4.0,49,0.00,,---,0.01,VWS V14.01,2013-01-06 19:50:00,
2013-01-06 14:51:00,45.2,28.6,29.99,SSW,213,4.0,4.0,52,0.00,,---,0.01,VWS V14.01,2013-01-06 19:51:00,
2013-01-06 14:52:00,45.2,27.7,29.99,South,179,4.0,7.0,50,0.00,,---,0.01,VWS V14.01,2013-01-06 19:52:00,
2013-01-06 14:53:00,45.2,27.7,29.99,South,188,0.0,4.0,50,0.00,,---,0.01,VWS V14.01,2013-01-06 19:53:00,
2013-01-06 14:54:00,45.4,27.4,29.99,South,188,3.0,5.0,49,0.00,,---,0.01,VWS V14.01,2013-01-06 19:54:00,
2013-01-06 14:55:00,45.4,27.4,29.99,West,263,5.0,6.0,49,0.00,,---,0.01,VWS V14.01,2013-01-06 19:55:00,
2013-01-06 14:56:00,45.2,27.2,29.99,South,182,2.0,6.0,49,0.00,,---,0.01,VWS V14.01,2013-01-06 19:56:00,
2013-01-06 14:57:00,45.2,27.2,29.99,WNW,298,3.0,6.0,49,0.00,,---,0.01,VWS V14.01,2013-01-06 19:57:00,
2013-01-06 14:58:00,45.2,27.2,29.99,SW,221,7.0,7.0,49,0.00,,---,0.01,VWS V14.01,2013-01-06 19:58:00,
2013-01-06 14:59:00,45.1,27.1,29.99,SSE,164,4.0,8.0,49,0.00,,---,0.01,VWS V14.01,2013-01-06 19:59:00,
2013-01-06 15:00:00,45.1,27.6,29.99,SE,146,1.0,7.0,50,0.00,,---,0.01,VWS V14.01,2013-01-06 20:00:00,
2013-01-06 15:01:00,45.1,27.6,29.99,South,178,2.0,7.0,50,0.00,,---,0.01,VWS V14.01,2013-01-06 20:01:00,
2013-01-06 15:02:00,44.9,26.9,29.99,SW,228,1.0,5.0,49,0.00,,---,0.01,VWS V14.01,2013-01-06 20:02:00,
2013-01-06 15:03:00,44.9,27.4,29.99,SW,228,1.0,5.0,50,0.00,,---,0.01,VWS V14.01,2013-01-06 20:03:00,
2013-01-06 15:04:00,44.9,27.9,29.99,WSW,244,5.0,5.0,51,0.00,,---,0.01,VWS V14.01,2013-01-06 20:04:00,
2013-01-06 15:05:00,44.8,27.3,29.99,South,173,5.0,6.0,50,0.00,,---,0.01,VWS V14.01,2013-01-06 20:05:00,
2013-01-06 15:06:00,44.8,27.3,29.99,SSW,213,4.0,6.0,50,0.00,,---,0.01,VWS V14.01,2013-01-06 20:06:00,
2013-01-06 15:07:00,44.8,27.8,29.99,South,184,6.0,6.0,51,0.00,,---,0.01,VWS V14.01,2013-01-06 20:07:00,
2013-01-06 15:08:00,44.6,27.1,29.99,SSW,196,6.0,10.0,50,0.00,,---,0.01,VWS V14.01,2013-01-06 20:08:00,
2013-01-06 15:09:00,44.6,27.1,29.99,SSW,201,5.0,7.0,50,0.00,,---,0.01,VWS V14.01,2013-01-06 20:09:00,
2013-01-06 15:10:00,44.5,27.0,29.99,SSW,203,5.0,8.0,50,0.00,,---,0.01,VWS V14.01,2013-01-06 20:10:00,
2013-01-06 15:11:00,44.6,27.1,29.99,SSW,192,4.0,8.0,50,0.00,,---,0.01,VWS V14.01,2013-01-06 20:11:00,
2013-01-06 15:12:00,44.5,27.0,29.99,South,186,6.0,6.0,50,0.00,,---,0.01,VWS V14.01,2013-01-06 20:12:00,
2013-01-06 15:13:00,44.5,27.0,29.99,South,186,6.0,6.0,50,0.00,,---,0.01,VWS V14.01,2013-01-06 20:13:00,
2013-01-06 15:14:00,44.3,27.3,29.99,South,186,4.0,5.0,51,0.00,,---,0.01,VWS V14.01,2013-01-06 20:14:00,
2013-01-06 15:15:00,44.3,27.3,30.00,South,188,5.0,5.0,51,0.00,,---,0.01,VWS V14.01,2013-01-06 20:15:00,
2013-01-06 15:16:00,44.3,27.8,30.00,WSW,240,2.0,6.0,52,0.00,,---,0.01,VWS V14.01,2013-01-06 20:16:00,
2013-01-06 15:17:00,44.3,27.3,30.00,West,269,7.0,7.0,51,0.00,,---,0.01,VWS V14.01,2013-01-06 20:17:00,
2013-01-06 15:18:00,44.3,27.3,30.00,West,269,7.0,7.0,51,0.00,,---,0.01,VWS V14.01,2013-01-06 20:18:00,
2013-01-06 15:19:00,44.3,27.3,30.00,South,175,10.0,10.0,51,0.00,,---,0.01,VWS V14.01,2013-01-06 20:19:00,
2013-01-06 15:20:00,44.3,26.9,30.00,SSW,205,9.0,10.0,50,0.00,,---,0.01,VWS V14.01,2013-01-06 20:20:00,
2013-01-06 15:21:00,44.2,26.8,30.00,SSW,194,4.0,10.0,50,0.00,,---,0.01,VWS V14.01,2013-01-06 20:21:00,
2013-01-06 15:22:00,44.2,27.2,30.00,South,185,3.0,5.0,51,0.00,,---,0.01,VWS V14.01,2013-01-06 20:22:00,
2013-01-06 15:23:00,44.2,27.2,30.00,South,185,3.0,5.0,51,0.00,,---,0.01,VWS V14.01,2013-01-06 20:23:00,
2013-01-06 15:24:00,44.2,27.2,30.00,SSE,168,8.0,8.0,51,0.00,,---,0.01,VWS V14.01,2013-01-06 20:24:00,
2013-01-06 15:25:00,44.2,26.8,30.00,South,188,5.0,8.0,50,0.00,,---,0.01,VWS V14.01,2013-01-06 20:25:00,
2013-01-06 15:26:00,44.2,27.2,30.00,West,260,4.0,6.0,51,0.00,,---,0.01,VWS V14.01,2013-01-06 20:26:00,
2013-01-06 15:27:00,44.2,27.2,30.00,WSW,258,4.0,5.0,51,0.00,,---,0.01,VWS V14.01,2013-01-06 20:27:00,
2013-01-06 15:28:00,44.2,27.2,30.00,WSW,258,4.0,5.0,51,0.00,,---,0.01,VWS V14.01,2013-01-06 20:28:00,
2013-01-06 15:29:00,44.2,27.2,30.00,SSW,199,5.0,6.0,51,0.00,,---,0.01,VWS V14.01,2013-01-06 20:29:00,
2013-01-06 15:30:00,44.1,26.7,30.00,SSW,198,7.0,10.0,50,0.00,,---,0.01,VWS V14.01,2013-01-06 20:30:00,
2013-01-06 15:31:00,44.1,27.1,30.00,South,169,7.0,7.0,51,0.00,,---,0.01,VWS V14.01,2013-01-06 20:31:00,
2013-01-06 15:32:00,44.1,27.1,30.00,South,180,4.0,8.0,51,0.00,,---,0.01,VWS V14.01,2013-01-06 20:32:00,
2013-01-06 15:33:00,44.1,27.1,30.00,South,180,4.0,8.0,51,0.00,,---,0.01,VWS V14.01,2013-01-06 20:33:00,
2013-01-06 15:34:00,44.1,27.1,30.00,SSW,211,4.0,6.0,51,0.00,,---,0.01,VWS V14.01,2013-01-06 20:34:00,
2013-01-06 15:35:00,44.1,27.1,30.00,SW,236,1.0,5.0,51,0.00,,---,0.01,VWS V14.01,2013-01-06 20:35:00,
2013-01-06 15:36:00,44.1,27.6,30.00,SW,236,0.0,4.0,52,0.00,,---,0.01,VWS V14.01,2013-01-06 20:36:00,
2013-01-06 15:37:00,44.1,27.6,30.00,SW,235,1.0,1.0,52,0.00,,---,0.01,VWS V14.01,2013-01-06 20:37:00,
2013-01-06 15:38:00,44.1,27.6,30.00,SW,235,1.0,1.0,52,0.00,,---,0.01,VWS V14.01,2013-01-06 20:38:00,
2013-01-06 15:39:00,44.1,27.6,30.00,SSW,213,2.0,4.0,52,0.00,,---,0.01,VWS V14.01,2013-01-06 20:39:00,
2013-01-06 15:40:00,44.1,27.6,30.00,South,187,12.0,12.0,52,0.00,,---,0.01,VWS V14.01,2013-01-06 20:40:00,
2013-01-06 15:41:00,44.1,27.1,30.00,SSW,213,4.0,14.0,51,0.00,,---,0.01,VWS V14.01,2013-01-06 20:41:00,
2013-01-06 15:42:00,44.1,27.6,30.00,SSW,193,1.0,5.0,52,0.00,,---,0.01,VWS V14.01,2013-01-06 20:42:00,
2013-01-06 15:43:00,44.1,27.6,30.00,SSW,193,1.0,5.0,52,0.00,,---,0.01,VWS V14.01,2013-01-06 20:43:00,
2013-01-06 15:44:00,43.9,27.4,30.00,SW,234,4.0,6.0,52,0.00,,---,0.01,VWS V14.01,2013-01-06 20:44:00,
2013-01-06 15:45:00,43.9,27.4,30.00,SSW,209,2.0,5.0,52,0.00,,---,0.01,VWS V14.01,2013-01-06 20:45:00,
2013-01-06 15:46:00,43.9,27.4,30.00,South,186,1.0,8.0,52,0.00,,---,0.01,VWS V14.01,2013-01-06 20:46:00,
2013-01-06 15:47:00,43.9,27.4,30.00,South,186,1.0,2.0,52,0.00,,---,0.01,VWS V14.01,2013-01-06 20:47:00,
2013-01-06 15:48:00,43.9,27.4,30.00,South,186,0.0,2.0,52,0.00,,---,0.01,VWS V14.01,2013-01-06 20:48:00,
2013-01-06 15:49:00,43.9,27.4,30.00,South,188,1.0,2.0,52,0.00,,---,0.01,VWS V14.01,2013-01-06 20:49:00,
2013-01-06 15:50:00,43.9,27.9,30.00,South,190,3.0,5.0,53,0.00,,---,0.01,VWS V14.01,2013-01-06 20:50:00,
2013-01-06 15:51:00,43.9,27.4,30.00,South,190,3.0,5.0,52,0.00,,---,0.01,VWS V14.01,2013-01-06 20:51:00,
2013-01-06 15:52:00,43.9,27.4,30.00,South,191,1.0,4.0,52,0.00,,---,0.01,VWS V14.01,2013-01-06 20:52:00,
2013-01-06 15:53:00,43.9,27.4,30.00,South,191,2.0,2.0,52,0.00,,---,0.01,VWS V14.01,2013-01-06 20:53:00,
2013-01-06 15:54:00,43.9,27.4,30.00,South,189,5.0,5.0,52,0.00,,---,0.01,VWS V14.01,2013-01-06 20:54:00,
2013-01-06 15:55:00,43.9,27.9,30.00,South,191,1.0,7.0,53,0.00,,---,0.01,VWS V14.01,2013-01-06 20:55:00,
2013-01-06 15:56:00,43.9,27.9,30.00,SSW,198,1.0,5.0,53,0.00,,---,0.01,VWS V14.01,2013-01-06 20:56:00,
2013-01-06 15:57:00,43.8,27.8,30.00,SSW,198,3.0,4.0,53,0.00,,---,0.01,VWS V14.01,2013-01-06 20:57:00,
2013-01-06 15:58:00,43.8,27.8,30.00,SSW,198,1.0,3.0,53,0.00,,---,0.01,VWS V14.01,2013-01-06 20:58:00,
2013-01-06 15:59:00,43.8,27.3,30.00,West,261,1.0,5.0,52,0.00,,---,0.01,VWS V14.01,2013-01-06 20:59:00,
2013-01-06 16:00:00,43.8,27.3,30.01,South,185,4.0,6.0,52,0.00,,---,0.01,VWS V14.01,2013-01-06 21:00:00,
2013-01-06 16:01:00,43.8,27.3,30.01,South,179,2.0,6.0,52,0.00,,---,0.01,VWS V14.01,2013-01-06 21:01:00,
2013-01-06 16:02:00,43.8,27.3,30.01,South,180,2.0,7.0,52,0.00,,---,0.01,VWS V14.01,2013-01-06 21:02:00,
2013-01-06 16:03:00,43.8,27.3,30.01,SSW,209,0.0,7.0,52,0.00,,---,0.01,VWS V14.01,2013-01-06 21:03:00,
2013-01-06 16:04:00,43.8,27.3,30.01,SSW,213,0.0,4.0,52,0.00,,---,0.01,VWS V14.01,2013-01-06 21:04:00,
2013-01-06 16:05:00,43.8,27.3,30.01,SSW,213,0.0,0.0,52,0.00,,---,0.01,VWS V14.01,2013-01-06 21:05:00,
2013-01-06 16:06:00,43.8,27.3,30.01,South,191,6.0,6.0,52,0.00,,---,0.01,VWS V14.01,2013-01-06 21:06:00,
2013-01-06 16:07:00,43.8,27.3,30.01,South,180,0.0,6.0,52,0.00,,---,0.01,VWS V14.01,2013-01-06 21:07:00,
2013-01-06 16:08:00,43.6,27.1,30.01,South,180,1.0,4.0,52,0.00,,---,0.01,VWS V14.01,2013-01-06 21:08:00,
2013-01-06 16:09:00,43.6,27.1,30.01,South,186,7.0,9.0,52,0.00,,---,0.01,VWS V14.01,2013-01-06 21:09:00,
2013-01-06 16:10:00,43.6,27.1,30.01,SSW,193,9.0,10.0,52,0.00,,---,0.01,VWS V14.01,2013-01-06 21:10:00,
2013-01-06 16:11:00,43.6,27.1,30.01,SSW,192,2.0,6.0,52,0.00,,---,0.01,VWS V14.01,2013-01-06 21:11:00,
2013-01-06 16:12:00,43.6,27.1,30.01,South,186,0.0,5.0,52,0.00,,---,0.01,VWS V14.01,2013-01-06 21:12:00,
2013-01-06 16:13:00,43.6,27.1,30.01,South,175,4.0,4.0,52,0.00,,---,0.01,VWS V14.01,2013-01-06 21:13:00,
2013-01-06 16:14:00,43.6,27.1,30.01,South,188,1.0,6.0,52,0.00,,---,0.01,VWS V14.01,2013-01-06 21:14:00,
2013-01-06 16:15:00,43.6,27.1,30.01,South,188,4.0,5.0,52,0.00,,---,0.01,VWS V14.01,2013-01-06 21:15:00,
2013-01-06 16:16:00,43.6,27.6,30.01,South,186,8.0,8.0,53,0.00,,---,0.01,VWS V14.01,2013-01-06 21:16:00,
2013-01-06 16:17:00,43.6,27.1,30.01,South,183,6.0,10.0,52,0.00,,---,0.01,VWS V14.01,2013-01-06 21:17:00,
2013-01-06 16:18:00,43.6,27.1,30.01,SSW,192,5.0,8.0,52,0.00,,---,0.01,VWS V14.01,2013-01-06 21:18:00,
2013-01-06 16:19:00,43.6,27.1,30.01,SSW,201,7.0,8.0,52,0.00,,---,0.01,VWS V14.01,2013-01-06 21:19:00,
2013-01-06 16:20:00,43.6,27.1,30.01,South,171,6.0,8.0,52,0.00,,---,0.01,VWS V14.01,2013-01-06 21:20:00,
2013-01-06 16:21:00,43.8,27.3,30.01,WSW,238,1.0,5.0,52,0.00,,---,0.01,VWS V14.01,2013-01-06 21:21:00,
2013-01-06 16:22:00,43.8,27.3,30.01,South,174,1.0,7.0,52,0.00,,---,0.01,VWS V14.01,2013-01-06 21:22:00,
2013-01-06 16:23:00,43.8,27.3,30.01,SSW,206,5.0,10.0,52,0.00,,---,0.01,VWS V14.01,2013-01-06 21:23:00,
2013-01-06 16:24:00,43.9,27.4,30.01,SSW,192,5.0,6.0,52,0.00,,---,0.01,VWS V14.01,2013-01-06 21:24:00,
2013-01-06 16:25:00,43.9,27.0,30.01,WSW,251,1.0,6.0,51,0.00,,---,0.01,VWS V14.01,2013-01-06 21:25:00,
2013-01-06 16:26:00,43.9,27.4,30.01,SSW,193,2.0,6.0,52,0.00,,---,0.01,VWS V14.01,2013-01-06 21:26:00,
2013-01-06 16:27:00,43.9,27.0,30.01,South,182,5.0,8.0,51,0.00,,---,0.01,VWS V14.01,2013-01-06 21:27:00,
2013-01-06 16:28:00,43.9,27.4,30.01,WSW,244,6.0,7.0,52,0.00,,---,0.01,VWS V14.01,2013-01-06 21:28:00,
2013-01-06 16:29:00,43.9,27.4,30.01,SSW,198,5.0,7.0,52,0.00,,---,0.01,VWS V14.01,2013-01-06 21:29:00,
2013-01-06 16:30:00,43.9,27.4,30.01,SSW,198,1.0,5.0,52,0.00,,---,0.01,VWS V14.01,2013-01-06 21:30:00,
2013-01-06 16:31:00,43.8,27.3,30.01,SSW,192,2.0,6.0,52,0.00,,---,0.01,VWS V14.01,2013-01-06 21:31:00,
2013-01-06 16:32:00,43.8,27.3,30.01,SSW,196,0.0,3.0,52,0.00,,---,0.01,VWS V14.01,2013-01-06 21:32:00,
2013-01-06 16:33:00,43.6,27.1,30.01,South,175,4.0,4.0,52,0.00,,---,0.01,VWS V14.01,2013-01-06 21:33:00,
2013-01-06 16:34:00,43.6,27.1,30.01,SSE,166,2.0,6.0,52,0.00,,---,0.01,VWS V14.01,2013-01-06 21:34:00,
2013-01-06 16:35:00,43.6,27.1,30.01,South,171,6.0,7.0,52,0.00,,---,0.01,VWS V14.01,2013-01-06 21:35:00,
2013-01-06 16:36:00,43.5,27.5,30.01,SSW,192,0.0,2.0,53,0.00,,---,0.01,VWS V14.01,2013-01-06 21:36:00,
2013-01-06 16:37:00,43.5,27.1,30.01,SSW,192,4.0,9.0,52,0.00,,---,0.01,VWS V14.01,2013-01-06 21:37:00,
2013-01-06 16:38:00,43.5,27.1,30.01,SSW,201,4.0,6.0,52,0.00,,---,0.01,VWS V14.01,2013-01-06 21:38:00,
2013-01-06 16:39:00,43.5,27.5,30.01,SSW,201,0.0,4.0,53,0.00,,---,0.01,VWS V14.01,2013-01-06 21:39:00,
2013-01-06 16:40:00,43.3,27.3,30.01,SSW,201,0.0,0.0,53,0.00,,---,0.01,VWS V14.01,2013-01-06 21:40:00,
2013-01-06 16:41:00,43.3,27.3,30.01,SSW,195,4.0,6.0,53,0.00,,---,0.01,VWS V14.01,2013-01-06 21:41:00,
2013-01-06 16:42:00,43.3,27.3,30.01,SSW,195,0.0,4.0,53,0.00,,---,0.01,VWS V14.01,2013-01-06 21:42:00,
2013-01-06 16:43:00,43.3,27.3,30.01,SSW,192,5.0,5.0,53,0.00,,---,0.01,VWS V14.01,2013-01-06 21:43:00,
2013-01-06 16:44:00,43.2,27.2,30.01,South,182,2.0,7.0,53,0.00,,---,0.01,VWS V14.01,2013-01-06 21:44:00,
2013-01-06 16:45:00,43.2,27.2,30.01,South,175,3.0,4.0,53,0.00,,---,0.01,VWS V14.01,2013-01-06 21:45:00,
2013-01-06 16:46:00,43.2,27.7,30.01,South,178,2.0,6.0,54,0.00,,---,0.01,VWS V14.01,2013-01-06 21:46:00,
2013-01-06 16:47:00,43.2,27.7,30.01,South,178,0.0,2.0,54,0.00,,---,0.01,VWS V14.01,2013-01-06 21:47:00,
2013-01-06 16:48:00,43.1,27.6,30.01,South,172,4.0,5.0,54,0.00,,---,0.01,VWS V14.01,2013-01-06 21:48:00,
2013-01-06 16:49:00,43.1,27.1,30.01,South,184,1.0,7.0,53,0.00,,---,0.01,VWS V14.01,2013-01-06 21:49:00,
2013-01-06 16:50:00,43.1,27.1,30.01,South,184,3.0,3.0,53,0.00,,---,0.01,VWS V14.01,2013-01-06 21:50:00,
2013-01-06 16:51:00,43.1,27.1,30.01,South,184,1.0,6.0,53,0.00,,---,0.01,VWS V14.01,2013-01-06 21:51:00,
2013-01-06 16:52:00,43.1,27.1,30.01,South,184,0.0,2.0,53,0.00,,---,0.01,VWS V14.01,2013-01-06 21:52:00,
2013-01-06 16:53:00,43.1,27.6,30.01,South,184,2.0,2.0,54,0.00,,---,0.01,VWS V14.01,2013-01-06 21:53:00,
2013-01-06 16:54:00,42.9,27.4,30.01,South,191,4.0,7.0,54,0.00,,---,0.01,VWS V14.01,2013-01-06 21:54:00,
2013-01-06 16:55:00,42.9,27.0,30.01,South,190,6.0,8.0,53,0.00,,---,0.01,VWS V14.01,2013-01-06 21:55:00,
2013-01-06 16:56:00,42.9,27.0,30.01,South,175,5.0,7.0,53,0.00,,---,0.01,VWS V14.01,2013-01-06 21:56:00,
2013-01-06 16:57:00,42.9,27.4,30.01,SSE,154,2.0,5.0,54,0.00,,---,0.01,VWS V14.01,2013-01-06 21:57:00,
2013-01-06 16:58:00,42.9,27.4,30.01,South,170,4.0,5.0,54,0.00,,---,0.01,VWS V14.01,2013-01-06 21:58:00,
2013-01-06 16:59:00,42.9,27.4,30.01,South,175,4.0,4.0,54,0.00,,---,0.01,VWS V14.01,2013-01-06 21:59:00,
2013-01-06 17:00:00,42.9,27.4,30.01,South,175,0.0,4.0,54,0.00,,---,0.01,VWS V14.01,2013-01-06 22:00:00,
2013-01-06 17:01:00,42.8,27.3,30.01,South,176,2.0,2.0,54,0.00,,---,0.01,VWS V14.01,2013-01-06 22:01:00,
2013-01-06 17:02:00,42.8,27.3,30.01,SSW,207,0.0,6.0,54,0.00,,---,0.01,VWS V14.01,2013-01-06 22:02:00,
2013-01-06 17:03:00,42.8,27.3,30.01,South,182,1.0,6.0,54,0.00,,---,0.01,VWS V14.01,2013-01-06 22:03:00,
2013-01-06 17:04:00,42.6,27.6,30.01,SSW,201,2.0,5.0,55,0.00,,---,0.01,VWS V14.01,2013-01-06 22:04:00,
2013-01-06 17:05:00,42.6,27.6,30.01,SSW,200,4.0,4.0,55,0.00,,---,0.01,VWS V14.01,2013-01-06 22:05:00,
2013-01-06 17:06:00,42.6,27.6,30.01,SSW,201,4.0,4.0,55,0.00,,---,0.01,VWS V14.01,2013-01-06 22:06:00,
2013-01-06 17:07:00,42.6,27.6,30.01,SSW,198,0.0,4.0,55,0.00,,---,0.01,VWS V14.01,2013-01-06 22:07:00,
2013-01-06 17:08:00,42.6,27.6,30.01,SSW,200,4.0,5.0,55,0.00,,---,0.01,VWS V14.01,2013-01-06 22:08:00,
2013-01-06 17:09:00,42.6,27.1,30.01,SSW,195,5.0,7.0,54,0.00,,---,0.01,VWS V14.01,2013-01-06 22:09:00,
2013-01-06 17:10:00,42.6,27.1,30.01,SSW,200,4.0,5.0,54,0.00,,---,0.01,VWS V14.01,2013-01-06 22:10:00,
2013-01-06 17:11:00,42.6,27.1,30.01,WSW,243,1.0,5.0,54,0.00,,---,0.01,VWS V14.01,2013-01-06 22:11:00,
2013-01-06 17:12:00,42.6,27.1,30.01,South,191,7.0,7.0,54,0.00,,---,0.01,VWS V14.01,2013-01-06 22:12:00,
2013-01-06 17:13:00,42.5,27.0,30.01,South,184,0.0,7.0,54,0.00,,---,0.01,VWS V14.01,2013-01-06 22:13:00,
2013-01-06 17:14:00,42.5,27.0,30.01,South,184,0.0,3.0,54,0.00,,---,0.01,VWS V14.01,2013-01-06 22:14:00,
2013-01-06 17:15:00,42.5,27.0,30.02,South,184,3.0,4.0,54,0.00,,---,0.01,VWS V14.01,2013-01-06 22:15:00,
2013-01-06 17:16:00,42.5,27.5,30.02,South,169,5.0,6.0,55,0.00,,---,0.01,VWS V14.01,2013-01-06 22:16:00,
2013-01-06 17:17:00,42.5,27.0,30.02,South,174,2.0,6.0,54,0.00,,---,0.01,VWS V14.01,2013-01-06 22:17:00,
2013-01-06 17:18:00,42.5,27.0,30.02,SW,219,3.0,7.0,54,0.00,,---,0.01,VWS V14.01,2013-01-06 22:18:00,
2013-01-06 17:19:00,42.5,27.5,30.02,SW,219,1.0,3.0,55,0.00,,---,0.01,VWS V14.01,2013-01-06 22:19:00,
2013-01-06 17:20:00,42.5,27.5,30.02,WSW,237,2.0,5.0,55,0.00,,---,0.01,VWS V14.01,2013-01-06 22:20:00,
2013-01-06 17:21:00,42.5,27.0,30.02,South,175,2.0,6.0,54,0.00,,---,0.01,VWS V14.01,2013-01-06 22:21:00,
2013-01-06 17:22:00,42.5,27.0,30.02,SSW,196,2.0,6.0,54,0.00,,---,0.01,VWS V14.01,2013-01-06 22:22:00,
2013-01-06 17:23:00,42.5,27.0,30.02,SSW,193,7.0,7.0,54,0.00,,---,0.01,VWS V14.01,2013-01-06 22:23:00,
2013-01-06 17:24:00,42.5,27.0,30.02,SSW,199,3.0,7.0,54,0.00,,---,0.01,VWS V14.01,2013-01-06 22:24:00,
2013-01-06 17:25:00,42.5,27.0,30.02,SSW,198,1.0,4.0,54,0.00,,---,0.01,VWS V14.01,2013-01-06 22:25:00,
2013-01-06 17:26:00,42.5,27.0,30.02,South,182,1.0,7.0,54,0.00,,---,0.01,VWS V14.01,2013-01-06 22:26:00,
2013-01-06 17:27:00,42.5,27.0,30.02,South,182,2.0,4.0,54,0.00,,---,0.01,VWS V14.01,2013-01-06 22:27:00,
2013-01-06 17:28:00,42.5,27.0,30.02,South,178,0.0,5.0,54,0.00,,---,0.01,VWS V14.01,2013-01-06 22:28:00,
2013-01-06 17:29:00,42.5,27.5,30.02,South,178,3.0,3.0,55,0.00,,---,0.01,VWS V14.01,2013-01-06 22:29:00,
2013-01-06 17:30:00,42.5,27.5,30.02,South,178,2.0,5.0,55,0.00,,---,0.01,VWS V14.01,2013-01-06 22:30:00,
2013-01-06 17:31:00,42.5,27.5,30.02,South,180,1.0,4.0,55,0.00,,---,0.01,VWS V14.01,2013-01-06 22:31:00,
2013-01-06 17:32:00,42.5,27.5,30.02,South,180,0.0,2.0,55,0.00,,---,0.01,VWS V14.01,2013-01-06 22:32:00,
2013-01-06 17:33:00,42.5,27.5,30.02,South,188,1.0,3.0,55,0.00,,---,0.01,VWS V14.01,2013-01-06 22:33:00,
2013-01-06 17:34:00,42.3,27.3,30.02,South,188,1.0,2.0,55,0.00,,---,0.01,VWS V14.01,2013-01-06 22:34:00,
2013-01-06 17:35:00,42.3,27.3,30.02,South,188,0.0,1.0,55,0.00,,---,0.01,VWS V14.01,2013-01-06 22:35:00,
2013-01-06 17:36:00,42.3,27.3,30.02,SSW,195,0.0,2.0,55,0.00,,---,0.01,VWS V14.01,2013-01-06 22:36:00,
2013-01-06 17:37:00,42.3,27.3,30.02,SSW,195,0.0,0.0,55,0.00,,---,0.01,VWS V14.01,2013-01-06 22:37:00,
2013-01-06 17:38:00,42.3,27.3,30.02,SSW,195,0.0,2.0,55,0.00,,---,0.01,VWS V14.01,2013-01-06 22:38:00,
2013-01-06 17:39:00,42.2,27.2,30.02,SSW,195,0.0,1.0,55,0.00,,---,0.01,VWS V14.01,2013-01-06 22:39:00,
2013-01-06 17:40:00,42.2,27.2,30.02,SSW,195,1.0,2.0,55,0.00,,---,0.01,VWS V14.01,2013-01-06 22:40:00,
2013-01-06 17:41:00,42.2,27.2,30.02,SSW,195,0.0,1.0,55,0.00,,---,0.01,VWS V14.01,2013-01-06 22:41:00,
2013-01-06 17:42:00,42.2,27.2,30.02,SSW,195,0.0,4.0,55,0.00,,---,0.01,VWS V14.01,2013-01-06 22:42:00,
2013-01-06 17:43:00,42.2,27.2,30.02,SSW,195,0.0,1.0,55,0.00,,---,0.01,VWS V14.01,2013-01-06 22:43:00,
2013-01-06 17:44:00,42.2,27.2,30.02,South,184,5.0,6.0,55,0.00,,---,0.01,VWS V14.01,2013-01-06 22:44:00,
2013-01-06 17:45:00,42.2,27.2,30.03,South,180,5.0,6.0,55,0.00,,---,0.01,VWS V14.01,2013-01-06 22:45:00,
2013-01-06 17:46:00,42.2,27.2,30.03,South,180,0.0,2.0,55,0.00,,---,0.01,VWS V14.01,2013-01-06 22:46:00,
2013-01-06 17:47:00,42.2,27.2,30.03,South,180,0.0,1.0,55,0.00,,---,0.01,VWS V14.01,2013-01-06 22:47:00,
2013-01-06 17:48:00,42.2,27.6,30.03,South,180,0.0,0.0,56,0.00,,---,0.01,VWS V14.01,2013-01-06 22:48:00,
2013-01-06 17:49:00,42.1,27.5,30.03,South,180,0.0,1.0,56,0.00,,---,0.01,VWS V14.01,2013-01-06 22:49:00,
2013-01-06 17:50:00,42.1,27.5,30.03,South,180,1.0,1.0,56,0.00,,---,0.01,VWS V14.01,2013-01-06 22:50:00,
2013-01-06 17:51:00,42.1,27.5,30.03,South,180,2.0,2.0,56,0.00,,---,0.01,VWS V14.01,2013-01-06 22:51:00,
2013-01-06 17:52:00,42.1,27.1,30.03,South,180,0.0,2.0,55,0.00,,---,0.01,VWS V14.01,2013-01-06 22:52:00,
2013-01-06 17:53:00,42.1,27.5,30.03,South,180,0.0,1.0,56,0.00,,---,0.01,VWS V14.01,2013-01-06 22:53:00,
2013-01-06 17:54:00,42.1,27.5,30.03,South,180,0.0,1.0,56,0.00,,---,0.01,VWS V14.01,2013-01-06 22:54:00,
2013-01-06 17:55:00,42.1,27.5,30.03,South,180,0.0,0.0,56,0.00,,---,0.01,VWS V14.01,2013-01-06 22:55:00,
2013-01-06 17:56:00,41.9,27.4,30.03,South,180,0.0,1.0,56,0.00,,---,0.01,VWS V14.01,2013-01-06 22:56:00,
2013-01-06 17:57:00,41.9,27.4,30.03,South,180,0.0,0.0,56,0.00,,---,0.01,VWS V14.01,2013-01-06 22:57:00,
2013-01-06 17:58:00,41.9,27.4,30.03,South,180,0.0,1.0,56,0.00,,---,0.01,VWS V14.01,2013-01-06 22:58:00,
2013-01-06 17:59:00,41.9,27.4,30.03,South,180,1.0,4.0,56,0.00,,---,0.01,VWS V14.01,2013-01-06 22:59:00,
2013-01-06 18:00:00,41.9,27.4,30.03,South,180,0.0,1.0,56,0.00,,---,0.01,VWS V14.01,2013-01-06 23:00:00,
2013-01-06 18:01:00,41.9,27.4,30.03,South,180,2.0,2.0,56,0.00,,---,0.01,VWS V14.01,2013-01-06 23:01:00,
2013-01-06 18:02:00,41.8,27.3,30.03,South,180,1.0,2.0,56,0.00,,---,0.01,VWS V14.01,2013-01-06 23:02:00,
2013-01-06 18:03:00,41.8,27.3,30.03,South,180,4.0,4.0,56,0.00,,---,0.01,VWS V14.01,2013-01-06 23:03:00,
2013-01-06 18:04:00,41.8,27.3,30.03,South,180,0.0,4.0,56,0.00,,---,0.01,VWS V14.01,2013-01-06 23:04:00,
2013-01-06 18:05:00,41.8,27.3,30.03,South,180,0.0,0.0,56,0.00,,---,0.01,VWS V14.01,2013-01-06 23:05:00,
2013-01-06 18:06:00,41.8,27.3,30.03,South,180,0.0,0.0,56,0.00,,---,0.01,VWS V14.01,2013-01-06 23:06:00,
2013-01-06 18:07:00,41.8,27.3,30.03,South,180,0.0,0.0,56,0.00,,---,0.01,VWS V14.01,2013-01-06 23:07:00,
2013-01-06 18:08:00,41.8,27.3,30.03,South,180,0.0,1.0,56,0.00,,---,0.01,VWS V14.01,2013-01-06 23:08:00,
2013-01-06 18:09:00,41.8,27.3,30.03,South,180,0.0,0.0,56,0.00,,---,0.01,VWS V14.01,2013-01-06 23:09:00,
2013-01-06 18:10:00,41.8,27.3,30.03,South,180,0.0,0.0,56,0.00,,---,0.01,VWS V14.01,2013-01-06 23:10:00,
2013-01-06 18:11:00,41.6,27.1,30.03,South,180,1.0,1.0,56,0.00,,---,0.01,VWS V14.01,2013-01-06 23:11:00,
2013-01-06 18:12:00,41.6,27.1,30.03,South,179,0.0,3.0,56,0.00,,---,0.01,VWS V14.01,2013-01-06 23:12:00,
2013-01-06 18:13:00,41.6,27.1,30.03,South,178,3.0,6.0,56,0.00,,---,0.01,VWS V14.01,2013-01-06 23:13:00,
2013-01-06 18:14:00,41.6,27.1,30.03,South,178,0.0,5.0,56,0.00,,---,0.01,VWS V14.01,2013-01-06 23:14:00,
2013-01-06 18:15:00,41.6,27.1,30.04,South,178,0.0,0.0,56,0.00,,---,0.01,VWS V14.01,2013-01-06 23:15:00,
2013-01-06 18:16:00,41.6,27.5,30.04,South,178,0.0,0.0,57,0.00,,---,0.01,VWS V14.01,2013-01-06 23:16:00,
2013-01-06 18:17:00,41.6,27.5,30.04,South,178,0.0,1.0,57,0.00,,---,0.01,VWS V14.01,2013-01-06 23:17:00,
2013-01-06 18:18:00,41.5,27.4,30.04,South,178,1.0,2.0,57,0.00,,---,0.01,VWS V14.01,2013-01-06 23:18:00,
2013-01-06 18:19:00,41.5,27.4,30.04,South,178,0.0,3.0,57,0.00,,---,0.01,VWS V14.01,2013-01-06 23:19:00,
2013-01-06 18:20:00,41.5,27.4,30.04,South,178,1.0,1.0,57,0.00,,---,0.01,VWS V14.01,2013-01-06 23:20:00,
2013-01-06 18:21:00,41.5,27.0,30.04,South,178,1.0,5.0,56,0.00,,---,0.01,VWS V14.01,2013-01-06 23:21:00,
2013-01-06 18:22:00,41.6,27.1,30.04,South,178,1.0,3.0,56,0.00,,---,0.01,VWS V14.01,2013-01-06 23:22:00,
2013-01-06 18:23:00,41.6,27.1,30.04,South,178,4.0,4.0,56,0.00,,---,0.01,VWS V14.01,2013-01-06 23:23:00,
2013-01-06 18:24:00,41.6,27.1,30.04,South,178,0.0,4.0,56,0.00,,---,0.01,VWS V14.01,2013-01-06 23:24:00,
2013-01-06 18:25:00,41.6,27.1,30.04,South,178,2.0,2.0,56,0.00,,---,0.01,VWS V14.01,2013-01-06 23:25:00,
2013-01-06 18:33:00,41.6,27.1,30.04,South,178,2.0,2.0,56,0.00,,---,0.01,VWS V14.01,2013-01-06 23:33:00,
2013-01-06 18:34:00,41.6,27.1,30.04,South,180,1.0,4.0,56,0.00,,---,0.01,VWS V14.01,2013-01-06 23:34:00,
2013-01-06 18:35:00,41.6,27.5,30.04,South,178,0.0,2.0,57,0.00,,---,0.01,VWS V14.01,2013-01-06 23:35:00,
2013-01-06 18:36:00,41.6,27.5,30.04,South,178,0.0,0.0,57,0.00,,---,0.01,VWS V14.01,2013-01-06 23:36:00,
2013-01-06 18:37:00,41.6,27.1,30.04,South,178,0.0,2.0,56,0.00,,---,0.01,VWS V14.01,2013-01-06 23:37:00,
2013-01-06 18:39:00,41.6,27.5,30.04,South,178,1.0,1.0,57,0.00,,---,0.01,VWS V14.01,2013-01-06 23:39:00,
2013-01-06 18:44:00,41.5,27.4,30.04,South,178,0.0,0.0,57,0.00,,---,0.01,VWS V14.01,2013-01-06 23:44:00,
2013-01-06 18:49:00,41.5,27.4,30.05,South,178,0.0,1.0,57,0.00,,---,0.01,VWS V14.01,2013-01-06 23:49:00,
2013-01-06 18:54:00,41.3,27.2,30.05,South,178,0.0,0.0,57,0.00,,---,0.01,VWS V14.01,2013-01-06 23:54:00,
2013-01-06 18:59:00,41.2,27.6,30.05,South,178,0.0,0.0,58,0.00,,---,0.01,VWS V14.01,2013-01-06 23:59:00,
2013-01-06 19:04:00,41.1,27.9,30.06,South,178,0.0,0.0,59,0.00,,---,0.01,VWS V14.01,2013-01-07 00:04:00,
2013-01-06 19:09:00,41.1,27.5,30.06,South,178,1.0,1.0,58,0.00,,---,0.01,VWS V14.01,2013-01-07 00:09:00,
2013-01-06 19:14:00,41.2,27.6,30.06,South,181,0.0,0.0,58,0.00,,---,0.01,VWS V14.01,2013-01-07 00:14:00,
2013-01-06 19:19:00,41.3,27.6,30.06,South,181,0.0,0.0,58,0.00,,---,0.01,VWS V14.01,2013-01-07 00:19:00,
2013-01-06 19:24:00,41.3,27.6,30.06,South,181,1.0,1.0,58,0.00,,---,0.01,VWS V14.01,2013-01-07 00:24:00,
2013-01-06 19:29:00,41.2,27.6,30.06,South,181,0.0,0.0,58,0.00,,---,0.01,VWS V14.01,2013-01-07 00:29:00,
2013-01-06 19:34:00,41.2,27.6,30.07,South,181,0.0,0.0,58,0.00,,---,0.01,VWS V14.01,2013-01-07 00:34:00,
2013-01-06 19:39:00,41.2,27.1,30.07,South,181,0.0,0.0,57,0.00,,---,0.01,VWS V14.01,2013-01-07 00:39:00,
2013-01-06 19:44:00,41.2,26.7,30.07,South,181,0.0,0.0,56,0.00,,---,0.01,VWS V14.01,2013-01-07 00:44:00,
2013-01-06 19:49:00,41.3,27.2,30.07,South,175,2.0,2.0,57,0.00,,---,0.01,VWS V14.01,2013-01-07 00:49:00,
2013-01-06 19:54:00,41.2,27.1,30.07,South,175,4.0,4.0,57,0.00,,---,0.01,VWS V14.01,2013-01-07 00:54:00,
2013-01-06 19:59:00,41.5,26.1,30.07,South,175,2.0,2.0,54,0.00,,---,0.01,VWS V14.01,2013-01-07 00:59:00,
2013-01-06 20:04:00,41.6,26.2,30.06,South,175,1.0,2.0,54,0.00,,---,0.01,VWS V14.01,2013-01-07 01:04:00,
2013-01-06 20:09:00,41.8,26.4,30.06,South,176,4.0,6.0,54,0.00,,---,0.01,VWS V14.01,2013-01-07 01:09:00,
2013-01-06 20:14:00,41.9,26.0,30.06,South,176,0.0,0.0,53,0.00,,---,0.01,VWS V14.01,2013-01-07 01:14:00,
2013-01-06 20:19:00,41.8,26.8,30.05,South,176,0.0,0.0,55,0.00,,---,0.01,VWS V14.01,2013-01-07 01:19:00,
2013-01-06 20:24:00,41.6,26.6,30.05,South,176,0.0,0.0,55,0.00,,---,0.01,VWS V14.01,2013-01-07 01:24:00,
2013-01-06 20:29:00,41.3,26.8,30.05,South,176,0.0,0.0,56,0.00,,---,0.01,VWS V14.01,2013-01-07 01:29:00,
2013-01-06 20:34:00,41.2,26.7,30.05,South,176,0.0,0.0,56,0.00,,---,0.01,VWS V14.01,2013-01-07 01:34:00,
2013-01-06 20:39:00,41.1,27.0,30.05,South,176,0.0,0.0,57,0.00,,---,0.01,VWS V14.01,2013-01-07 01:39:00,
2013-01-06 20:44:00,40.9,26.4,30.05,South,176,0.0,0.0,56,0.00,,---,0.01,VWS V14.01,2013-01-07 01:44:00,
2013-01-06 20:49:00,40.8,27.6,30.06,South,176,0.0,0.0,59,0.00,,---,0.01,VWS V14.01,2013-01-07 01:49:00,
2013-01-06 20:54:00,40.5,27.7,30.06,South,176,0.0,0.0,60,0.00,,---,0.01,VWS V14.01,2013-01-07 01:54:00,
2013-01-06 20:59:00,40.2,27.4,30.06,South,176,0.0,0.0,60,0.00,,---,0.01,VWS V14.01,2013-01-07 01:59:00,
2013-01-06 21:04:00,39.9,27.6,30.06,South,176,0.0,0.0,61,0.00,,---,0.01,VWS V14.01,2013-01-07 02:04:00,
2013-01-06 21:09:00,39.6,27.3,30.06,South,176,0.0,0.0,61,0.00,,---,0.01,VWS V14.01,2013-01-07 02:09:00,
2013-01-06 21:14:00,39.6,27.3,30.06,South,176,0.0,0.0,61,0.00,,---,0.01,VWS V14.01,2013-01-07 02:14:00,
2013-01-06 21:19:00,39.6,27.7,30.06,South,176,0.0,0.0,62,0.00,,---,0.01,VWS V14.01,2013-01-07 02:19:00,
2013-01-06 21:24:00,39.5,27.2,30.06,South,176,1.0,1.0,61,0.00,,---,0.01,VWS V14.01,2013-01-07 02:24:00,
2013-01-06 21:29:00,39.9,26.3,30.06,South,176,0.0,1.0,58,0.00,,---,0.01,VWS V14.01,2013-01-07 02:29:00,
2013-01-06 21:34:00,39.9,27.6,30.05,South,176,0.0,1.0,61,0.00,,---,0.01,VWS V14.01,2013-01-07 02:34:00,
2013-01-06 21:39:00,39.8,27.9,30.05,South,176,0.0,0.0,62,0.00,,---,0.01,VWS V14.01,2013-01-07 02:39:00,
2013-01-06 21:44:00,39.6,28.1,30.05,South,176,0.0,0.0,63,0.00,,---,0.01,VWS V14.01,2013-01-07 02:44:00,
2013-01-06 21:49:00,39.5,27.2,30.06,South,176,0.0,1.0,61,0.00,,---,0.01,VWS V14.01,2013-01-07 02:49:00,
2013-01-06 21:54:00,39.5,27.2,30.06,South,176,0.0,0.0,61,0.00,,---,0.01,VWS V14.01,2013-01-07 02:54:00,
2013-01-06 21:59:00,39.8,26.7,30.06,South,176,0.0,0.0,59,0.00,,---,0.01,VWS V14.01,2013-01-07 02:59:00,
2013-01-06 22:04:00,40.1,26.9,30.06,South,176,0.0,0.0,59,0.00,,---,0.01,VWS V14.01,2013-01-07 03:04:00,
2013-01-06 22:09:00,40.1,26.9,30.06,South,176,0.0,0.0,59,0.00,,---,0.01,VWS V14.01,2013-01-07 03:09:00,
2013-01-06 22:14:00,40.1,26.9,30.06,South,176,0.0,0.0,59,0.00,,---,0.01,VWS V14.01,2013-01-07 03:14:00,
2013-01-06 22:19:00,40.1,26.9,30.06,South,176,1.0,1.0,59,0.00,,---,0.01,VWS V14.01,2013-01-07 03:19:00,
2013-01-06 22:24:00,40.3,26.7,30.06,South,176,0.0,4.0,58,0.00,,---,0.01,VWS V14.01,2013-01-07 03:24:00,
2013-01-06 22:29:00,40.6,27.0,30.06,South,171,1.0,1.0,58,0.00,,---,0.01,VWS V14.01,2013-01-07 03:29:00,
2013-01-06 22:34:00,40.6,27.0,30.07,South,170,0.0,1.0,58,0.00,,---,0.01,VWS V14.01,2013-01-07 03:34:00,
2013-01-06 22:39:00,40.6,27.0,30.07,South,170,1.0,2.0,58,0.00,,---,0.01,VWS V14.01,2013-01-07 03:39:00,
2013-01-06 22:44:00,40.5,27.3,30.07,South,169,0.0,5.0,59,0.00,,---,0.01,VWS V14.01,2013-01-07 03:44:00,
2013-01-06 22:49:00,40.5,27.3,30.07,South,169,2.0,4.0,59,0.00,,---,0.01,VWS V14.01,2013-01-07 03:49:00,
2013-01-06 22:54:00,40.3,27.1,30.07,South,169,0.0,2.0,59,0.00,,---,0.01,VWS V14.01,2013-01-07 03:54:00,
2013-01-06 22:59:00,40.3,27.5,30.07,South,169,0.0,0.0,60,0.00,,---,0.01,VWS V14.01,2013-01-07 03:59:00,
2013-01-06 23:04:00,40.2,27.0,30.08,South,169,0.0,1.0,59,0.00,,---,0.01,VWS V14.01,2013-01-07 04:04:00,
2013-01-06 23:09:00,40.3,27.1,30.08,South,169,0.0,3.0,59,0.00,,---,0.01,VWS V14.01,2013-01-07 04:09:00,
2013-01-06 23:14:00,40.2,27.4,30.08,South,169,0.0,0.0,60,0.00,,---,0.01,VWS V14.01,2013-01-07 04:14:00,
2013-01-06 23:19:00,40.2,27.4,30.08,South,169,0.0,0.0,60,0.00,,---,0.01,VWS V14.01,2013-01-07 04:19:00,
2013-01-06 23:24:00,40.1,27.4,30.08,South,169,0.0,0.0,60,0.00,,---,0.01,VWS V14.01,2013-01-07 04:24:00,
2013-01-06 23:29:00,39.9,27.6,30.08,South,169,0.0,0.0,61,0.00,,---,0.01,VWS V14.01,2013-01-07 04:29:00,
2013-01-06 23:34:00,39.6,27.7,30.09,South,169,0.0,0.0,62,0.00,,---,0.01,VWS V14.01,2013-01-07 04:34:00,
2013-01-06 23:39:00,39.5,28.4,30.09,South,169,0.0,0.0,64,0.00,,---,0.01,VWS V14.01,2013-01-07 04:39:00,
2013-01-06 23:44:00,39.2,28.4,30.09,South,169,0.0,1.0,65,0.00,,---,0.01,VWS V14.01,2013-01-07 04:44:00,
2013-01-06 23:49:00,38.9,28.1,30.10,South,169,0.0,1.0,65,0.00,,---,0.01,VWS V14.01,2013-01-07 04:49:00,
2013-01-06 23:54:00,38.9,28.1,30.10,South,169,0.0,0.0,65,0.00,,---,0.01,VWS V14.01,2013-01-07 04:54:00,
2013-01-06 23:59:00,38.9,28.5,30.10,South,169,0.0,0.0,66,0.00,,---,0.01,VWS V14.01,2013-01-07 04:59:00,